<?xml version='1.0' encoding='UTF-8'?><gpx version="1.1" creator="JPX - https://github.com/jenetics/jpx" xmlns="http://www.topografix.com/GPX/1/1"><trk><trkseg><trkpt lat="44.70810803522016" lon="8.229576660824003"><ele>173.0</ele><time>2026-03-29T11:04:20.811Z</time></trkpt><trkpt lat="44.70798357606203" lon="8.229497108610287"><ele>173.0</ele><time>2026-03-29T11:05:08Z</time></trkpt><trkpt lat="44.708029416714425" lon="8.229418047730753"><ele>173.0</ele><time>2026-03-29T11:05:13Z</time></trkpt><trkpt lat="44.70812241479148" lon="8.229314318280014"><ele>173.0</ele><time>2026-03-29T11:05:15Z</time></trkpt><trkpt lat="44.70820783670593" lon="8.22919989638386"><ele>173.0</ele><time>2026-03-29T11:05:17Z</time></trkpt><trkpt lat="44.70829296774162" lon="8.229087836577598"><ele>173.0</ele><time>2026-03-29T11:05:19Z</time></trkpt><trkpt lat="44.70836922730516" lon="8.229166693305103"><ele>173.0</ele><time>2026-03-29T11:05:21.999Z</time></trkpt><trkpt lat="44.70841102244453" lon="8.229244168440314"><ele>173.0</ele><time>2026-03-29T11:05:23.999Z</time></trkpt><trkpt lat="44.708466532501866" lon="8.229318480415513"><ele>173.0</ele><time>2026-03-29T11:05:26.999Z</time></trkpt><trkpt lat="44.708540040136654" lon="8.229411591932998"><ele>173.0</ele><time>2026-03-29T11:05:29.999Z</time></trkpt><trkpt lat="44.70858325186488" lon="8.22950008847686"><ele>173.0</ele><time>2026-03-29T11:05:31.999Z</time></trkpt><trkpt lat="44.70863133646142" lon="8.229581582821105"><ele>172.66666666666666</ele><time>2026-03-29T11:05:33.999Z</time></trkpt><trkpt lat="44.708677955382974" lon="8.229659374174723"><ele>172.33333333333331</ele><time>2026-03-29T11:05:35.999Z</time></trkpt><trkpt lat="44.70872916787756" lon="8.22973756505843"><ele>172.0</ele><time>2026-03-29T11:05:37.999Z</time></trkpt><trkpt lat="44.70879040126101" lon="8.229814661735865"><ele>171.66666666666666</ele><time>2026-03-29T11:05:39.999Z</time></trkpt><trkpt lat="44.708879370904455" lon="8.22983607714918"><ele>171.33333333333334</ele><time>2026-03-29T11:05:42.999Z</time></trkpt><trkpt lat="44.70896073458216" lon="8.229844667092555"><ele>171.0</ele><time>2026-03-29T11:05:46.999Z</time></trkpt><trkpt lat="44.709021169396685" lon="8.229780126557108"><ele>171.0</ele><time>2026-03-29T11:05:48.999Z</time></trkpt><trkpt lat="44.709095257258426" lon="8.229697478603784"><ele>171.0</ele><time>2026-03-29T11:05:51.999Z</time></trkpt><trkpt lat="44.709137497523216" lon="8.22963023879748"><ele>171.0</ele><time>2026-03-29T11:05:53.999Z</time></trkpt><trkpt lat="44.70919161456876" lon="8.229578058538937"><ele>171.0</ele><time>2026-03-29T11:05:55.999Z</time></trkpt><trkpt lat="44.7092519452964" lon="8.229508003317699"><ele>171.0</ele><time>2026-03-29T11:05:57.999Z</time></trkpt><trkpt lat="44.70930798032196" lon="8.229440712556235"><ele>171.0</ele><time>2026-03-29T11:05:59.999Z</time></trkpt><trkpt lat="44.70936443300103" lon="8.2293726836005"><ele>170.99999999999997</ele><time>2026-03-29T11:06:01.999Z</time></trkpt><trkpt lat="44.709420750163694" lon="8.229302308981444"><ele>171.0</ele><time>2026-03-29T11:06:03.999Z</time></trkpt><trkpt lat="44.709479720592064" lon="8.22923663973288"><ele>171.0</ele><time>2026-03-29T11:06:05.999Z</time></trkpt><trkpt lat="44.7095407558597" lon="8.229160859618391"><ele>171.0</ele><time>2026-03-29T11:06:07.999Z</time></trkpt><trkpt lat="44.70959575821936" lon="8.229097832643037"><ele>171.0</ele><time>2026-03-29T11:06:09.999Z</time></trkpt><trkpt lat="44.70964529433305" lon="8.22903130338878"><ele>170.99999999999997</ele><time>2026-03-29T11:06:11.999Z</time></trkpt><trkpt lat="44.70969782573325" lon="8.228971246711973"><ele>171.0</ele><time>2026-03-29T11:06:13.999Z</time></trkpt><trkpt lat="44.70974903181138" lon="8.22889978076843"><ele>171.0</ele><time>2026-03-29T11:06:15.999Z</time></trkpt><trkpt lat="44.709809694952256" lon="8.228799344900665"><ele>171.0</ele><time>2026-03-29T11:06:18.999Z</time></trkpt><trkpt lat="44.70987481505287" lon="8.22871303426262"><ele>171.0</ele><time>2026-03-29T11:06:21.999Z</time></trkpt><trkpt lat="44.7099141890394" lon="8.228629103420083"><ele>171.0</ele><time>2026-03-29T11:06:23.999Z</time></trkpt><trkpt lat="44.70988979071239" lon="8.228517827909805"><ele>171.0</ele><time>2026-03-29T11:06:25.999Z</time></trkpt><trkpt lat="44.70983114466124" lon="8.228437014087369"><ele>171.0</ele><time>2026-03-29T11:06:27.999Z</time></trkpt><trkpt lat="44.70976918148406" lon="8.22840098895414"><ele>170.99999999999997</ele><time>2026-03-29T11:06:29.999Z</time></trkpt><trkpt lat="44.70970571938089" lon="8.228386456654226"><ele>171.0</ele><time>2026-03-29T11:06:35Z</time></trkpt><trkpt lat="44.70965610477284" lon="8.228292283826551"><ele>171.0</ele><time>2026-03-29T11:06:38Z</time></trkpt><trkpt lat="44.709622501830246" lon="8.228214076412197"><ele>171.0</ele><time>2026-03-29T11:06:40Z</time></trkpt><trkpt lat="44.709565641637994" lon="8.22810836386362"><ele>171.0</ele><time>2026-03-29T11:06:43Z</time></trkpt><trkpt lat="44.70952640834067" lon="8.22803789934907"><ele>170.99999999999997</ele><time>2026-03-29T11:06:45Z</time></trkpt><trkpt lat="44.709484258644125" lon="8.227968146025393"><ele>171.0</ele><time>2026-03-29T11:06:47Z</time></trkpt><trkpt lat="44.70944818526118" lon="8.227891806671352"><ele>171.0</ele><time>2026-03-29T11:06:49Z</time></trkpt><trkpt lat="44.709374111544705" lon="8.227840772400583"><ele>171.0</ele><time>2026-03-29T11:06:53Z</time></trkpt><trkpt lat="44.70931341421508" lon="8.227743954488787"><ele>171.0</ele><time>2026-03-29T11:06:57Z</time></trkpt><trkpt lat="44.70925518920767" lon="8.227660868381145"><ele>171.0</ele><time>2026-03-29T11:07:00Z</time></trkpt><trkpt lat="44.70919145217961" lon="8.22757797816016"><ele>171.0</ele><time>2026-03-29T11:07:02.999Z</time></trkpt><trkpt lat="44.70912387782465" lon="8.227488481030191"><ele>171.0</ele><time>2026-03-29T11:07:05.999Z</time></trkpt><trkpt lat="44.709071244385946" lon="8.227411775709422"><ele>170.99999999999997</ele><time>2026-03-29T11:07:08.999Z</time></trkpt><trkpt lat="44.70901307584547" lon="8.22735881235963"><ele>171.0</ele><time>2026-03-29T11:07:11.999Z</time></trkpt><trkpt lat="44.708951027721575" lon="8.227306424138893"><ele>171.0</ele><time>2026-03-29T11:07:14.999Z</time></trkpt><trkpt lat="44.70889108641218" lon="8.227263578846873"><ele>171.0</ele><time>2026-03-29T11:07:17.999Z</time></trkpt><trkpt lat="44.70882718393264" lon="8.227228599759139"><ele>171.0</ele><time>2026-03-29T11:07:20.999Z</time></trkpt><trkpt lat="44.70876877665266" lon="8.227170887032864"><ele>170.99999999999997</ele><time>2026-03-29T11:07:23.999Z</time></trkpt><trkpt lat="44.70870697448633" lon="8.227110708605576"><ele>171.0</ele><time>2026-03-29T11:07:26.999Z</time></trkpt><trkpt lat="44.70863842267567" lon="8.227072322890931"><ele>170.83333333333334</ele><time>2026-03-29T11:07:29.999Z</time></trkpt><trkpt lat="44.70856783480321" lon="8.22703471407844"><ele>170.66666666666666</ele><time>2026-03-29T11:07:32.999Z</time></trkpt><trkpt lat="44.70849934589112" lon="8.226988110290808"><ele>170.5</ele><time>2026-03-29T11:07:35.999Z</time></trkpt><trkpt lat="44.708423520416225" lon="8.22694215333227"><ele>170.33333333333331</ele><time>2026-03-29T11:07:38.999Z</time></trkpt><trkpt lat="44.70834006941635" lon="8.22689690693801"><ele>170.16666666666666</ele><time>2026-03-29T11:07:41.999Z</time></trkpt><trkpt lat="44.70825797310535" lon="8.226847530657444"><ele>170.0</ele><time>2026-03-29T11:07:44.999Z</time></trkpt><trkpt lat="44.708200344201074" lon="8.226810088104306"><ele>170.0</ele><time>2026-03-29T11:07:46.999Z</time></trkpt><trkpt lat="44.708114847985186" lon="8.226763932326433"><ele>170.0</ele><time>2026-03-29T11:07:49.999Z</time></trkpt><trkpt lat="44.70803305097712" lon="8.226715268992239"><ele>170.0</ele><time>2026-03-29T11:07:52.999Z</time></trkpt><trkpt lat="44.70794712307899" lon="8.226665590163249"><ele>170.0</ele><time>2026-03-29T11:07:55.999Z</time></trkpt><trkpt lat="44.707863853998305" lon="8.226619634974776"><ele>170.0</ele><time>2026-03-29T11:07:58.999Z</time></trkpt><trkpt lat="44.70777894706905" lon="8.226567036588616"><ele>170.0</ele><time>2026-03-29T11:08:01.999Z</time></trkpt><trkpt lat="44.707692004264885" lon="8.226520607264584"><ele>170.0</ele><time>2026-03-29T11:08:04.999Z</time></trkpt><trkpt lat="44.7076343816922" lon="8.226484931839419"><ele>170.0</ele><time>2026-03-29T11:08:06.999Z</time></trkpt><trkpt lat="44.70755325315928" lon="8.226426953435979"><ele>170.0</ele><time>2026-03-29T11:08:09.999Z</time></trkpt><trkpt lat="44.70747499472766" lon="8.226388905273812"><ele>170.0</ele><time>2026-03-29T11:08:12.999Z</time></trkpt><trkpt lat="44.70739553950471" lon="8.22632557953472"><ele>170.0</ele><time>2026-03-29T11:08:15.999Z</time></trkpt><trkpt lat="44.707317793706984" lon="8.226276260513444"><ele>169.83333333333331</ele><time>2026-03-29T11:08:18.999Z</time></trkpt><trkpt lat="44.70723756901994" lon="8.226222150909436"><ele>169.66666666666666</ele><time>2026-03-29T11:08:21.999Z</time></trkpt><trkpt lat="44.70716146893116" lon="8.226166402058206"><ele>169.5</ele><time>2026-03-29T11:08:24.999Z</time></trkpt><trkpt lat="44.7070815341678" lon="8.226111065020241"><ele>169.33333333333334</ele><time>2026-03-29T11:08:27.999Z</time></trkpt><trkpt lat="44.707001012328696" lon="8.226049416763152"><ele>169.16666666666669</ele><time>2026-03-29T11:08:30.999Z</time></trkpt><trkpt lat="44.70692714092029" lon="8.22598975587932"><ele>169.0</ele><time>2026-03-29T11:08:33.999Z</time></trkpt><trkpt lat="44.70687247299571" lon="8.225941932783334"><ele>169.0</ele><time>2026-03-29T11:08:35.999Z</time></trkpt><trkpt lat="44.70680088457861" lon="8.225875767210702"><ele>169.0</ele><time>2026-03-29T11:08:38.999Z</time></trkpt><trkpt lat="44.706733753238126" lon="8.225811036740371"><ele>169.0</ele><time>2026-03-29T11:08:41.999Z</time></trkpt><trkpt lat="44.706663597029845" lon="8.225744668801903"><ele>169.0</ele><time>2026-03-29T11:08:44.999Z</time></trkpt><trkpt lat="44.70659432889417" lon="8.225674736060698"><ele>169.0</ele><time>2026-03-29T11:08:47.999Z</time></trkpt><trkpt lat="44.706524686722865" lon="8.225602034144236"><ele>169.0</ele><time>2026-03-29T11:08:50.999Z</time></trkpt><trkpt lat="44.70645151513423" lon="8.225527078335292"><ele>169.16666666666669</ele><time>2026-03-29T11:08:53.999Z</time></trkpt><trkpt lat="44.70637761042197" lon="8.225449306319737"><ele>169.33333333333334</ele><time>2026-03-29T11:08:56.999Z</time></trkpt><trkpt lat="44.70631265402803" lon="8.225371046700355"><ele>169.5</ele><time>2026-03-29T11:08:59.999Z</time></trkpt><trkpt lat="44.70624820865881" lon="8.225292028123596"><ele>169.66666666666666</ele><time>2026-03-29T11:09:02.999Z</time></trkpt><trkpt lat="44.70618307832034" lon="8.22520728840672"><ele>169.83333333333331</ele><time>2026-03-29T11:09:05.999Z</time></trkpt><trkpt lat="44.70612260083607" lon="8.225114400836134"><ele>170.0</ele><time>2026-03-29T11:09:08.999Z</time></trkpt><trkpt lat="44.7060653656826" lon="8.225021316571649"><ele>170.33333333333331</ele><time>2026-03-29T11:09:11.999Z</time></trkpt><trkpt lat="44.70600556078778" lon="8.224931141440068"><ele>170.66666666666666</ele><time>2026-03-29T11:09:14.999Z</time></trkpt><trkpt lat="44.70595159952687" lon="8.224837549890745"><ele>171.0</ele><time>2026-03-29T11:09:17.999Z</time></trkpt><trkpt lat="44.70589559740501" lon="8.224741287999802"><ele>171.33333333333334</ele><time>2026-03-29T11:09:20.999Z</time></trkpt><trkpt lat="44.70584263306534" lon="8.224637739699462"><ele>171.66666666666669</ele><time>2026-03-29T11:09:23.999Z</time></trkpt><trkpt lat="44.70579323545338" lon="8.22453069333316"><ele>172.0</ele><time>2026-03-29T11:09:26.999Z</time></trkpt><trkpt lat="44.7057460101071" lon="8.22442367197309"><ele>172.0</ele><time>2026-03-29T11:09:29.999Z</time></trkpt><trkpt lat="44.70570125565402" lon="8.22431862560735"><ele>172.0</ele><time>2026-03-29T11:09:32.999Z</time></trkpt><trkpt lat="44.705658480335515" lon="8.224216321627294"><ele>172.0</ele><time>2026-03-29T11:09:35.999Z</time></trkpt><trkpt lat="44.70561808210951" lon="8.224107064442393"><ele>172.0</ele><time>2026-03-29T11:09:38.999Z</time></trkpt><trkpt lat="44.7055721233318" lon="8.223998872374654"><ele>172.0</ele><time>2026-03-29T11:09:41.999Z</time></trkpt><trkpt lat="44.70553261327342" lon="8.223893968648015"><ele>172.0</ele><time>2026-03-29T11:09:44.999Z</time></trkpt><trkpt lat="44.70549300008637" lon="8.223788616871184"><ele>172.0</ele><time>2026-03-29T11:09:47.999Z</time></trkpt><trkpt lat="44.70545213475837" lon="8.223683586626105"><ele>172.0</ele><time>2026-03-29T11:09:50.999Z</time></trkpt><trkpt lat="44.705414291718235" lon="8.223581293277242"><ele>172.0</ele><time>2026-03-29T11:09:53.999Z</time></trkpt><trkpt lat="44.70537397680075" lon="8.223476807640905"><ele>172.0</ele><time>2026-03-29T11:09:56.999Z</time></trkpt><trkpt lat="44.705338231341756" lon="8.223376256745306"><ele>172.0</ele><time>2026-03-29T11:09:59.999Z</time></trkpt><trkpt lat="44.70529901008713" lon="8.223272326096978"><ele>172.0</ele><time>2026-03-29T11:10:02.999Z</time></trkpt><trkpt lat="44.70525755888353" lon="8.223169701880407"><ele>171.83333333333334</ele><time>2026-03-29T11:10:05.999Z</time></trkpt><trkpt lat="44.70521776361571" lon="8.223067067877588"><ele>171.66666666666669</ele><time>2026-03-29T11:10:08.999Z</time></trkpt><trkpt lat="44.70517784816329" lon="8.222968334933654"><ele>171.5</ele><time>2026-03-29T11:10:11.999Z</time></trkpt><trkpt lat="44.705145464855036" lon="8.222865616185107"><ele>171.33333333333334</ele><time>2026-03-29T11:10:14.999Z</time></trkpt><trkpt lat="44.705105252063866" lon="8.222763342772751"><ele>171.16666666666666</ele><time>2026-03-29T11:10:17.999Z</time></trkpt><trkpt lat="44.705063298810536" lon="8.222664749681725"><ele>171.0</ele><time>2026-03-29T11:10:20.999Z</time></trkpt><trkpt lat="44.70501781675568" lon="8.2225494097623"><ele>171.0</ele><time>2026-03-29T11:10:23.999Z</time></trkpt><trkpt lat="44.70498710206836" lon="8.222464768140826"><ele>171.0</ele><time>2026-03-29T11:10:25.999Z</time></trkpt><trkpt lat="44.70496458560777" lon="8.222378739422085"><ele>171.0</ele><time>2026-03-29T11:10:27.999Z</time></trkpt><trkpt lat="44.70491451178298" lon="8.222272483461717"><ele>171.0</ele><time>2026-03-29T11:10:30.999Z</time></trkpt><trkpt lat="44.704904471356386" lon="8.222144268824103"><ele>171.0</ele><time>2026-03-29T11:10:33.999Z</time></trkpt><trkpt lat="44.70495621106653" lon="8.222042942118359"><ele>171.0</ele><time>2026-03-29T11:10:37Z</time></trkpt><trkpt lat="44.70503112135938" lon="8.221976835015608"><ele>171.33333333333334</ele><time>2026-03-29T11:10:40Z</time></trkpt><trkpt lat="44.70510541226897" lon="8.221916476104772"><ele>171.66666666666666</ele><time>2026-03-29T11:10:43Z</time></trkpt><trkpt lat="44.70517843625971" lon="8.221860573871322"><ele>172.0</ele><time>2026-03-29T11:10:46Z</time></trkpt><trkpt lat="44.70525789131482" lon="8.221810718516736"><ele>172.33333333333331</ele><time>2026-03-29T11:10:49Z</time></trkpt><trkpt lat="44.70532884452833" lon="8.221746406783447"><ele>172.66666666666666</ele><time>2026-03-29T11:10:52Z</time></trkpt><trkpt lat="44.70540460617215" lon="8.221690228843592"><ele>173.0</ele><time>2026-03-29T11:10:55Z</time></trkpt><trkpt lat="44.705483023007226" lon="8.221646353061239"><ele>173.0</ele><time>2026-03-29T11:10:58Z</time></trkpt><trkpt lat="44.70555858275033" lon="8.221591832387222"><ele>173.0</ele><time>2026-03-29T11:11:01Z</time></trkpt><trkpt lat="44.705636033245796" lon="8.22154893512712"><ele>173.0</ele><time>2026-03-29T11:11:04Z</time></trkpt><trkpt lat="44.705713063706234" lon="8.221494074405111"><ele>173.0</ele><time>2026-03-29T11:11:07Z</time></trkpt><trkpt lat="44.705783300906255" lon="8.221450606812033"><ele>173.0</ele><time>2026-03-29T11:11:09Z</time></trkpt><trkpt lat="44.70584700123763" lon="8.221402533719916"><ele>173.0</ele><time>2026-03-29T11:11:11Z</time></trkpt><trkpt lat="44.70589867486746" lon="8.221350140699757"><ele>173.28571428571428</ele><time>2026-03-29T11:11:13Z</time></trkpt><trkpt lat="44.70595433605662" lon="8.221301977353711"><ele>173.57142857142858</ele><time>2026-03-29T11:11:16Z</time></trkpt><trkpt lat="44.70602043410954" lon="8.221241529532515"><ele>173.85714285714286</ele><time>2026-03-29T11:11:20Z</time></trkpt><trkpt lat="44.70608613524596" lon="8.22117753040263"><ele>174.14285714285714</ele><time>2026-03-29T11:11:24Z</time></trkpt><trkpt lat="44.70614050592191" lon="8.221116793118576"><ele>174.42857142857144</ele><time>2026-03-29T11:11:27Z</time></trkpt><trkpt lat="44.70618826048635" lon="8.221046323669517"><ele>174.71428571428572</ele><time>2026-03-29T11:11:30Z</time></trkpt><trkpt lat="44.70623427109814" lon="8.220981620467215"><ele>175.0</ele><time>2026-03-29T11:11:33Z</time></trkpt><trkpt lat="44.70628127499855" lon="8.220901039385101"><ele>175.57142857142858</ele><time>2026-03-29T11:11:35.999Z</time></trkpt><trkpt lat="44.70633067542861" lon="8.220826493819391"><ele>176.14285714285714</ele><time>2026-03-29T11:11:38.999Z</time></trkpt><trkpt lat="44.706371833772394" lon="8.220747080842838"><ele>176.71428571428572</ele><time>2026-03-29T11:11:41.999Z</time></trkpt><trkpt lat="44.706408663318946" lon="8.220673837262423"><ele>177.28571428571428</ele><time>2026-03-29T11:11:44.999Z</time></trkpt><trkpt lat="44.70643393426871" lon="8.220581995939574"><ele>177.85714285714286</ele><time>2026-03-29T11:11:47.999Z</time></trkpt><trkpt lat="44.70645640907205" lon="8.220480527997026"><ele>178.42857142857144</ele><time>2026-03-29T11:11:50.999Z</time></trkpt><trkpt lat="44.70646167458431" lon="8.220378203902625"><ele>179.0</ele><time>2026-03-29T11:11:54.999Z</time></trkpt><trkpt lat="44.70641800057526" lon="8.220309091447653"><ele>179.0</ele><time>2026-03-29T11:11:57.999Z</time></trkpt><trkpt lat="44.70634026791711" lon="8.220304339271014"><ele>179.0</ele><time>2026-03-29T11:12:27.999Z</time></trkpt><trkpt lat="44.70629064937707" lon="8.220426226718834"><ele>179.0</ele><time>2026-03-29T11:12:30.999Z</time></trkpt><trkpt lat="44.706239420152485" lon="8.220529250108303"><ele>179.0</ele><time>2026-03-29T11:12:32.999Z</time></trkpt><trkpt lat="44.70617834203248" lon="8.220650230587895"><ele>179.0</ele><time>2026-03-29T11:12:34.999Z</time></trkpt><trkpt lat="44.70609771016514" lon="8.220767894841"><ele>178.2</ele><time>2026-03-29T11:12:36.999Z</time></trkpt><trkpt lat="44.70600884834367" lon="8.220876733643886"><ele>177.39999999999998</ele><time>2026-03-29T11:12:38.999Z</time></trkpt><trkpt lat="44.70591696692149" lon="8.220983471983553"><ele>176.6</ele><time>2026-03-29T11:12:40.999Z</time></trkpt><trkpt lat="44.705821967423574" lon="8.221076057836198"><ele>175.8</ele><time>2026-03-29T11:12:43Z</time></trkpt><trkpt lat="44.7057458428131" lon="8.221149767301284"><ele>175.0</ele><time>2026-03-29T11:12:45Z</time></trkpt><trkpt lat="44.70567729201623" lon="8.221209844069028"><ele>175.0</ele><time>2026-03-29T11:12:47Z</time></trkpt><trkpt lat="44.7055954569124" lon="8.22127294795604"><ele>175.0</ele><time>2026-03-29T11:12:50Z</time></trkpt><trkpt lat="44.70551317917809" lon="8.22132032568732"><ele>175.0</ele><time>2026-03-29T11:12:53Z</time></trkpt><trkpt lat="44.705437573715734" lon="8.221363854782648"><ele>175.0</ele><time>2026-03-29T11:12:56Z</time></trkpt><trkpt lat="44.70535804457581" lon="8.221413097526934"><ele>175.0</ele><time>2026-03-29T11:12:59Z</time></trkpt><trkpt lat="44.70527496929445" lon="8.221463670683717"><ele>175.0</ele><time>2026-03-29T11:13:02Z</time></trkpt><trkpt lat="44.7051939003169" lon="8.22151386496813"><ele>174.85714285714286</ele><time>2026-03-29T11:13:05Z</time></trkpt><trkpt lat="44.70513406466359" lon="8.22155011277039"><ele>174.71428571428572</ele><time>2026-03-29T11:13:07Z</time></trkpt><trkpt lat="44.705073958446896" lon="8.221591544880589"><ele>174.57142857142856</ele><time>2026-03-29T11:13:09Z</time></trkpt><trkpt lat="44.70501189957183" lon="8.221619014882927"><ele>174.42857142857144</ele><time>2026-03-29T11:13:11Z</time></trkpt><trkpt lat="44.70496128790674" lon="8.22151887739395"><ele>174.28571428571428</ele><time>2026-03-29T11:13:14Z</time></trkpt><trkpt lat="44.70493592450381" lon="8.221419233185296"><ele>174.14285714285714</ele><time>2026-03-29T11:13:17Z</time></trkpt><trkpt lat="44.704897718066555" lon="8.221325386111817"><ele>174.0</ele><time>2026-03-29T11:13:20Z</time></trkpt><trkpt lat="44.7048568659645" lon="8.221227007101042"><ele>174.0</ele><time>2026-03-29T11:13:23Z</time></trkpt><trkpt lat="44.70481098818232" lon="8.221128961158323"><ele>174.0</ele><time>2026-03-29T11:13:26Z</time></trkpt><trkpt lat="44.70477681578535" lon="8.221033094911279"><ele>174.0</ele><time>2026-03-29T11:13:29Z</time></trkpt><trkpt lat="44.70473615814727" lon="8.220935030525801"><ele>174.0</ele><time>2026-03-29T11:13:32Z</time></trkpt><trkpt lat="44.704694662623226" lon="8.220832043566778"><ele>174.0</ele><time>2026-03-29T11:13:35Z</time></trkpt><trkpt lat="44.704659767648465" lon="8.220730986010603"><ele>174.0</ele><time>2026-03-29T11:13:38Z</time></trkpt><trkpt lat="44.70462447998787" lon="8.220633677659517"><ele>174.16666666666666</ele><time>2026-03-29T11:13:41Z</time></trkpt><trkpt lat="44.70458469913711" lon="8.220532317591768"><ele>174.33333333333334</ele><time>2026-03-29T11:13:44Z</time></trkpt><trkpt lat="44.70454442893534" lon="8.2204427636804"><ele>174.5</ele><time>2026-03-29T11:13:47Z</time></trkpt><trkpt lat="44.7045107329691" lon="8.220349153577239"><ele>174.66666666666669</ele><time>2026-03-29T11:13:50Z</time></trkpt><trkpt lat="44.70447394815208" lon="8.220261627357944"><ele>174.83333333333334</ele><time>2026-03-29T11:13:53Z</time></trkpt><trkpt lat="44.70442819581199" lon="8.220175145792508"><ele>175.0</ele><time>2026-03-29T11:13:56Z</time></trkpt><trkpt lat="44.704471017344126" lon="8.220098290808062"><ele>175.0</ele><time>2026-03-29T11:13:59Z</time></trkpt><trkpt lat="44.70452811030513" lon="8.220012360436323"><ele>175.0</ele><time>2026-03-29T11:14:02.999Z</time></trkpt><trkpt lat="44.70457614316582" lon="8.21993356885792"><ele>175.0</ele><time>2026-03-29T11:14:05.999Z</time></trkpt><trkpt lat="44.70462692064485" lon="8.219853884103994"><ele>175.0</ele><time>2026-03-29T11:14:08.999Z</time></trkpt><trkpt lat="44.70467403364665" lon="8.219774126174363"><ele>175.0</ele><time>2026-03-29T11:14:11.999Z</time></trkpt><trkpt lat="44.70471430634033" lon="8.219693050090363"><ele>175.0</ele><time>2026-03-29T11:14:14.999Z</time></trkpt><trkpt lat="44.70475823367631" lon="8.219616958149977"><ele>175.0</ele><time>2026-03-29T11:14:17.999Z</time></trkpt><trkpt lat="44.70480766897957" lon="8.21954692957647"><ele>175.14285714285714</ele><time>2026-03-29T11:14:20.999Z</time></trkpt><trkpt lat="44.704860374708296" lon="8.219466380988226"><ele>175.28571428571428</ele><time>2026-03-29T11:14:23.999Z</time></trkpt><trkpt lat="44.70490089723298" lon="8.219391392392453"><ele>175.42857142857144</ele><time>2026-03-29T11:14:26.999Z</time></trkpt><trkpt lat="44.704949382092956" lon="8.219309272276757"><ele>175.57142857142856</ele><time>2026-03-29T11:14:29.999Z</time></trkpt><trkpt lat="44.704998281137144" lon="8.21923505777635"><ele>175.71428571428572</ele><time>2026-03-29T11:14:32.999Z</time></trkpt><trkpt lat="44.705041280061444" lon="8.21916161816509"><ele>175.85714285714286</ele><time>2026-03-29T11:14:35.999Z</time></trkpt><trkpt lat="44.70508153787898" lon="8.219091286906645"><ele>176.0</ele><time>2026-03-29T11:14:38.999Z</time></trkpt><trkpt lat="44.70512117950987" lon="8.219019031146937"><ele>177.83333333333331</ele><time>2026-03-29T11:14:41.999Z</time></trkpt><trkpt lat="44.70510553554577" lon="8.218906622685683"><ele>179.66666666666666</ele><time>2026-03-29T11:14:46.999Z</time></trkpt><trkpt lat="44.70505304387623" lon="8.218856171735043"><ele>181.5</ele><time>2026-03-29T11:14:49Z</time></trkpt><trkpt lat="44.70499256836696" lon="8.218773494330389"><ele>183.33333333333334</ele><time>2026-03-29T11:14:52Z</time></trkpt><trkpt lat="44.70493378971474" lon="8.218694386209346"><ele>185.16666666666669</ele><time>2026-03-29T11:14:55Z</time></trkpt><trkpt lat="44.70488627684523" lon="8.218607822946261"><ele>187.0</ele><time>2026-03-29T11:14:58Z</time></trkpt><trkpt lat="44.704842508944395" lon="8.21853583227028"><ele>187.0</ele><time>2026-03-29T11:15:01Z</time></trkpt><trkpt lat="44.704794159400045" lon="8.218462278989431"><ele>187.0</ele><time>2026-03-29T11:15:04Z</time></trkpt><trkpt lat="44.704729932091745" lon="8.218412318916934"><ele>187.0</ele><time>2026-03-29T11:15:07Z</time></trkpt><trkpt lat="44.70467012672819" lon="8.218353929617013"><ele>187.0</ele><time>2026-03-29T11:15:10Z</time></trkpt><trkpt lat="44.70461503781599" lon="8.218278513238712"><ele>187.0</ele><time>2026-03-29T11:15:16Z</time></trkpt><trkpt lat="44.70457602474505" lon="8.218197743871698"><ele>187.0</ele><time>2026-03-29T11:15:20Z</time></trkpt><trkpt lat="44.70452358927934" lon="8.218130692380907"><ele>187.0</ele><time>2026-03-29T11:15:24Z</time></trkpt><trkpt lat="44.70446167739542" lon="8.218063286528102"><ele>186.57142857142856</ele><time>2026-03-29T11:15:28Z</time></trkpt><trkpt lat="44.704410120180256" lon="8.218005476609806"><ele>186.14285714285717</ele><time>2026-03-29T11:15:31Z</time></trkpt><trkpt lat="44.70436450897748" lon="8.217943274110795"><ele>185.71428571428572</ele><time>2026-03-29T11:15:34Z</time></trkpt><trkpt lat="44.70431534793112" lon="8.217886721736148"><ele>185.28571428571428</ele><time>2026-03-29T11:15:37Z</time></trkpt><trkpt lat="44.70426583190663" lon="8.21781259315165"><ele>184.85714285714283</ele><time>2026-03-29T11:15:40Z</time></trkpt><trkpt lat="44.7042201371332" lon="8.217741413118603"><ele>184.42857142857144</ele><time>2026-03-29T11:15:43Z</time></trkpt><trkpt lat="44.70417679612267" lon="8.217673314214686"><ele>184.0</ele><time>2026-03-29T11:15:46Z</time></trkpt><trkpt lat="44.70414314145345" lon="8.21759833233755"><ele>184.0</ele><time>2026-03-29T11:15:49Z</time></trkpt><trkpt lat="44.704080362047776" lon="8.217540443760813"><ele>184.0</ele><time>2026-03-29T11:15:53Z</time></trkpt><trkpt lat="44.70402797016234" lon="8.21747369071601"><ele>184.0</ele><time>2026-03-29T11:15:56Z</time></trkpt><trkpt lat="44.703955996218355" lon="8.217399112567314"><ele>184.0</ele><time>2026-03-29T11:16:00Z</time></trkpt><trkpt lat="44.70390819284153" lon="8.217329592947966"><ele>184.0</ele><time>2026-03-29T11:16:04Z</time></trkpt><trkpt lat="44.70387470613538" lon="8.217244308206542"><ele>184.0</ele><time>2026-03-29T11:19:16Z</time></trkpt><trkpt lat="44.70386696602951" lon="8.217147588641165"><ele>184.0</ele><time>2026-03-29T11:19:20Z</time></trkpt><trkpt lat="44.70384358649924" lon="8.217050927261328"><ele>183.57142857142858</ele><time>2026-03-29T11:19:25Z</time></trkpt><trkpt lat="44.70380679559327" lon="8.216965415276714"><ele>183.14285714285714</ele><time>2026-03-29T11:19:29Z</time></trkpt><trkpt lat="44.70375884211614" lon="8.216878023813582"><ele>182.71428571428572</ele><time>2026-03-29T11:19:33Z</time></trkpt><trkpt lat="44.70370819983674" lon="8.216817721403157"><ele>182.28571428571428</ele><time>2026-03-29T11:19:37Z</time></trkpt><trkpt lat="44.703651775674516" lon="8.216762335129493"><ele>181.85714285714283</ele><time>2026-03-29T11:19:41Z</time></trkpt><trkpt lat="44.70360227903832" lon="8.216694501672572"><ele>181.42857142857142</ele><time>2026-03-29T11:19:45Z</time></trkpt><trkpt lat="44.7035504201948" lon="8.216612358652947"><ele>181.0</ele><time>2026-03-29T11:19:50Z</time></trkpt><trkpt lat="44.70350155087917" lon="8.216545821188925"><ele>183.14285714285714</ele><time>2026-03-29T11:19:54Z</time></trkpt><trkpt lat="44.70345058666223" lon="8.21646985395254"><ele>185.28571428571428</ele><time>2026-03-29T11:19:58Z</time></trkpt><trkpt lat="44.70341335787918" lon="8.216386469372528"><ele>187.42857142857144</ele><time>2026-03-29T11:20:02Z</time></trkpt><trkpt lat="44.703378590124665" lon="8.21629244729303"><ele>189.57142857142856</ele><time>2026-03-29T11:20:06.999Z</time></trkpt><trkpt lat="44.70334047121244" lon="8.216208927936373"><ele>191.71428571428572</ele><time>2026-03-29T11:20:10.999Z</time></trkpt><trkpt lat="44.70328371103753" lon="8.216144068507637"><ele>193.85714285714286</ele><time>2026-03-29T11:20:15.999Z</time></trkpt><trkpt lat="44.70323924589031" lon="8.216080786645078"><ele>196.0</ele><time>2026-03-29T11:20:19.999Z</time></trkpt><trkpt lat="44.703196449453536" lon="8.216011064268397"><ele>196.0</ele><time>2026-03-29T11:20:24.999Z</time></trkpt><trkpt lat="44.703141420540724" lon="8.215941033466226"><ele>196.0</ele><time>2026-03-29T11:20:30.999Z</time></trkpt><trkpt lat="44.703101208356074" lon="8.215867201847024"><ele>196.0</ele><time>2026-03-29T11:20:35.999Z</time></trkpt><trkpt lat="44.70305779127083" lon="8.215802951377999"><ele>196.0</ele><time>2026-03-29T11:20:40.999Z</time></trkpt><trkpt lat="44.703008969465635" lon="8.21572694612951"><ele>196.0</ele><time>2026-03-29T11:20:45.999Z</time></trkpt><trkpt lat="44.702956000858876" lon="8.21565113064779"><ele>196.0</ele><time>2026-03-29T11:20:49.999Z</time></trkpt><trkpt lat="44.702898504758124" lon="8.215579997178246"><ele>196.0</ele><time>2026-03-29T11:20:53.999Z</time></trkpt><trkpt lat="44.702852966703574" lon="8.215510596290581"><ele>194.85714285714286</ele><time>2026-03-29T11:20:56.999Z</time></trkpt><trkpt lat="44.702810616359805" lon="8.215443756618312"><ele>193.71428571428572</ele><time>2026-03-29T11:20:59.999Z</time></trkpt><trkpt lat="44.702781261067884" lon="8.215361428258182"><ele>192.57142857142856</ele><time>2026-03-29T11:21:03.999Z</time></trkpt><trkpt lat="44.70275174494852" lon="8.215272298572225"><ele>191.42857142857144</ele><time>2026-03-29T11:21:10Z</time></trkpt><trkpt lat="44.70271889918309" lon="8.215194037066667"><ele>190.28571428571428</ele><time>2026-03-29T11:21:14Z</time></trkpt><trkpt lat="44.70270700020774" lon="8.215098910227063"><ele>189.14285714285714</ele><time>2026-03-29T11:21:19Z</time></trkpt><trkpt lat="44.70266561422838" lon="8.2150152682968"><ele>188.0</ele><time>2026-03-29T11:21:23Z</time></trkpt><trkpt lat="44.70259272239933" lon="8.214915851662886"><ele>190.33333333333331</ele><time>2026-03-29T11:21:27Z</time></trkpt><trkpt lat="44.702528968935816" lon="8.214799683015016"><ele>192.66666666666666</ele><time>2026-03-29T11:21:29Z</time></trkpt><trkpt lat="44.70249216101561" lon="8.21472518561504"><ele>195.0</ele><time>2026-03-29T11:21:30Z</time></trkpt><trkpt lat="44.7024519040598" lon="8.21464311268816"><ele>197.33333333333331</ele><time>2026-03-29T11:21:31Z</time></trkpt><trkpt lat="44.702409006566505" lon="8.214555413479554"><ele>199.66666666666666</ele><time>2026-03-29T11:21:32Z</time></trkpt><trkpt lat="44.70236695188196" lon="8.21446721203157"><ele>202.0</ele><time>2026-03-29T11:21:33Z</time></trkpt><trkpt lat="44.70232202737999" lon="8.214376824647351"><ele>201.99999999999997</ele><time>2026-03-29T11:21:34Z</time></trkpt><trkpt lat="44.702279127153474" lon="8.214291608252754"><ele>202.0</ele><time>2026-03-29T11:21:35Z</time></trkpt><trkpt lat="44.702234092640964" lon="8.214208984603408"><ele>202.0</ele><time>2026-03-29T11:21:36Z</time></trkpt><trkpt lat="44.702186603063836" lon="8.214134277326927"><ele>202.0</ele><time>2026-03-29T11:21:37Z</time></trkpt><trkpt lat="44.702141079614236" lon="8.214065250888728"><ele>201.99999999999997</ele><time>2026-03-29T11:21:38Z</time></trkpt><trkpt lat="44.7020593593937" lon="8.213943240787943"><ele>202.0</ele><time>2026-03-29T11:21:40Z</time></trkpt><trkpt lat="44.70198644400253" lon="8.21385605499223"><ele>201.83333333333331</ele><time>2026-03-29T11:21:42Z</time></trkpt><trkpt lat="44.70192982320894" lon="8.213768647443889"><ele>201.66666666666666</ele><time>2026-03-29T11:21:44Z</time></trkpt><trkpt lat="44.701879527203275" lon="8.213696986917158"><ele>201.5</ele><time>2026-03-29T11:21:46Z</time></trkpt><trkpt lat="44.70182408401546" lon="8.213636281320742"><ele>201.33333333333331</ele><time>2026-03-29T11:21:48Z</time></trkpt><trkpt lat="44.70176788053593" lon="8.213548685548261"><ele>201.16666666666666</ele><time>2026-03-29T11:21:51Z</time></trkpt><trkpt lat="44.701713775878304" lon="8.213477333301835"><ele>201.0</ele><time>2026-03-29T11:21:54Z</time></trkpt><trkpt lat="44.70165940237304" lon="8.213408465010838"><ele>201.0</ele><time>2026-03-29T11:21:57Z</time></trkpt><trkpt lat="44.7015982955656" lon="8.213356710308314"><ele>201.0</ele><time>2026-03-29T11:22:00Z</time></trkpt><trkpt lat="44.701541196127195" lon="8.213307729313469"><ele>201.0</ele><time>2026-03-29T11:22:03Z</time></trkpt><trkpt lat="44.70147944531099" lon="8.213255645841434"><ele>201.0</ele><time>2026-03-29T11:22:05.999Z</time></trkpt><trkpt lat="44.70141924599474" lon="8.213196435286216"><ele>201.0</ele><time>2026-03-29T11:22:08.999Z</time></trkpt><trkpt lat="44.70135660894622" lon="8.213136485785592"><ele>201.0</ele><time>2026-03-29T11:22:11.999Z</time></trkpt><trkpt lat="44.701293743056745" lon="8.213078895155029"><ele>201.0</ele><time>2026-03-29T11:22:14.999Z</time></trkpt><trkpt lat="44.70123405387488" lon="8.213017174340902"><ele>201.66666666666666</ele><time>2026-03-29T11:22:17.999Z</time></trkpt><trkpt lat="44.701171075794846" lon="8.212971074820066"><ele>202.33333333333331</ele><time>2026-03-29T11:22:20.999Z</time></trkpt><trkpt lat="44.70111535825557" lon="8.212906962264961"><ele>203.0</ele><time>2026-03-29T11:22:23.999Z</time></trkpt><trkpt lat="44.70105215793503" lon="8.212857861610289"><ele>203.66666666666666</ele><time>2026-03-29T11:22:26.999Z</time></trkpt><trkpt lat="44.700981418458994" lon="8.21279046938943"><ele>204.33333333333331</ele><time>2026-03-29T11:22:29.999Z</time></trkpt><trkpt lat="44.70090311106497" lon="8.212714545585529"><ele>205.0</ele><time>2026-03-29T11:22:32.999Z</time></trkpt><trkpt lat="44.700847921708416" lon="8.212661740327293"><ele>205.0</ele><time>2026-03-29T11:22:34.999Z</time></trkpt><trkpt lat="44.700780520985326" lon="8.212614207609379"><ele>205.0</ele><time>2026-03-29T11:22:36.999Z</time></trkpt><trkpt lat="44.70071948585615" lon="8.212552225967238"><ele>205.0</ele><time>2026-03-29T11:22:38.999Z</time></trkpt><trkpt lat="44.700662140608664" lon="8.212488459477925"><ele>205.0</ele><time>2026-03-29T11:22:40.999Z</time></trkpt><trkpt lat="44.70060098615503" lon="8.212425376449685"><ele>205.0</ele><time>2026-03-29T11:22:42.999Z</time></trkpt><trkpt lat="44.70053868805706" lon="8.212367856241178"><ele>205.0</ele><time>2026-03-29T11:22:44.999Z</time></trkpt><trkpt lat="44.7004825268623" lon="8.212306640051688"><ele>205.0</ele><time>2026-03-29T11:22:46.999Z</time></trkpt><trkpt lat="44.70043303724663" lon="8.212250079314618"><ele>204.57142857142858</ele><time>2026-03-29T11:22:48.999Z</time></trkpt><trkpt lat="44.700380208438126" lon="8.212198447010026"><ele>204.14285714285714</ele><time>2026-03-29T11:22:50.999Z</time></trkpt><trkpt lat="44.70030759650785" lon="8.212125771267662"><ele>203.71428571428572</ele><time>2026-03-29T11:22:53.999Z</time></trkpt><trkpt lat="44.70022994271311" lon="8.212061658116015"><ele>203.28571428571428</ele><time>2026-03-29T11:22:56.999Z</time></trkpt><trkpt lat="44.70017932562306" lon="8.21200637081988"><ele>202.85714285714283</ele><time>2026-03-29T11:22:58.999Z</time></trkpt><trkpt lat="44.700124566490956" lon="8.211959038985247"><ele>202.42857142857142</ele><time>2026-03-29T11:23:00.999Z</time></trkpt><trkpt lat="44.70006927020508" lon="8.211912054105694"><ele>202.0</ele><time>2026-03-29T11:23:02.999Z</time></trkpt><trkpt lat="44.70001369498044" lon="8.211853659323145"><ele>202.0</ele><time>2026-03-29T11:23:04.999Z</time></trkpt><trkpt lat="44.699952378881385" lon="8.211802791072765"><ele>202.0</ele><time>2026-03-29T11:23:06.999Z</time></trkpt><trkpt lat="44.6998955942397" lon="8.211745421513768"><ele>202.0</ele><time>2026-03-29T11:23:08.999Z</time></trkpt><trkpt lat="44.699836657746324" lon="8.211687385319648"><ele>202.0</ele><time>2026-03-29T11:23:11Z</time></trkpt><trkpt lat="44.69977256174634" lon="8.211626461415879"><ele>202.0</ele><time>2026-03-29T11:23:13Z</time></trkpt><trkpt lat="44.69970570774858" lon="8.211568173414824"><ele>202.0</ele><time>2026-03-29T11:23:15Z</time></trkpt><trkpt lat="44.69963698026594" lon="8.211510879370097"><ele>202.0</ele><time>2026-03-29T11:23:17Z</time></trkpt><trkpt lat="44.699570563434264" lon="8.211454048803695"><ele>201.83333333333331</ele><time>2026-03-29T11:23:19Z</time></trkpt><trkpt lat="44.69950660630547" lon="8.211406496897274"><ele>201.66666666666666</ele><time>2026-03-29T11:23:21Z</time></trkpt><trkpt lat="44.69941611369135" lon="8.211323952131053"><ele>201.5</ele><time>2026-03-29T11:23:24Z</time></trkpt><trkpt lat="44.699337654222866" lon="8.211256864252569"><ele>201.33333333333331</ele><time>2026-03-29T11:23:27Z</time></trkpt><trkpt lat="44.699262206059835" lon="8.211209058130164"><ele>201.16666666666666</ele><time>2026-03-29T11:23:30Z</time></trkpt><trkpt lat="44.699195164032325" lon="8.211166074731034"><ele>201.0</ele><time>2026-03-29T11:23:33Z</time></trkpt><trkpt lat="44.69913156735956" lon="8.211116750845237"><ele>201.0</ele><time>2026-03-29T11:23:36Z</time></trkpt><trkpt lat="44.69906010818588" lon="8.211083640954692"><ele>201.0</ele><time>2026-03-29T11:23:39Z</time></trkpt><trkpt lat="44.698996139459936" lon="8.211022682507183"><ele>201.0</ele><time>2026-03-29T11:23:42Z</time></trkpt><trkpt lat="44.698934821078815" lon="8.21097541410554"><ele>201.0</ele><time>2026-03-29T11:23:45Z</time></trkpt><trkpt lat="44.698877166705934" lon="8.210915387760586"><ele>201.0</ele><time>2026-03-29T11:23:48Z</time></trkpt><trkpt lat="44.698824478732845" lon="8.210851529013082"><ele>201.0</ele><time>2026-03-29T11:23:51Z</time></trkpt><trkpt lat="44.69876985130052" lon="8.210793850898417"><ele>201.0</ele><time>2026-03-29T11:23:54Z</time></trkpt><trkpt lat="44.69871189451276" lon="8.210745829025438"><ele>201.0</ele><time>2026-03-29T11:23:57Z</time></trkpt><trkpt lat="44.69866015464123" lon="8.210678134237758"><ele>201.0</ele><time>2026-03-29T11:24:00Z</time></trkpt><trkpt lat="44.6986115086208" lon="8.210618864070167"><ele>201.0</ele><time>2026-03-29T11:24:03Z</time></trkpt><trkpt lat="44.69854812610473" lon="8.210547753119005"><ele>201.0</ele><time>2026-03-29T11:24:06.999Z</time></trkpt><trkpt lat="44.69848467408439" lon="8.210495920474111"><ele>201.0</ele><time>2026-03-29T11:24:10.999Z</time></trkpt><trkpt lat="44.698444212636716" lon="8.210422946960676"><ele>201.0</ele><time>2026-03-29T11:24:14.999Z</time></trkpt><trkpt lat="44.698378274198596" lon="8.21035769578326"><ele>201.0</ele><time>2026-03-29T11:24:18.999Z</time></trkpt><trkpt lat="44.69830810255126" lon="8.210287518397926"><ele>200.83333333333334</ele><time>2026-03-29T11:24:21.999Z</time></trkpt><trkpt lat="44.698251617200555" lon="8.210223436453507"><ele>200.66666666666669</ele><time>2026-03-29T11:24:23.999Z</time></trkpt><trkpt lat="44.69818148688766" lon="8.210139380625948"><ele>200.5</ele><time>2026-03-29T11:24:25.999Z</time></trkpt><trkpt lat="44.698076142073155" lon="8.210054179169855"><ele>200.33333333333334</ele><time>2026-03-29T11:24:27.999Z</time></trkpt><trkpt lat="44.698011412851734" lon="8.210018363056102"><ele>200.16666666666669</ele><time>2026-03-29T11:24:28.999Z</time></trkpt><trkpt lat="44.697936888752125" lon="8.209981897824496"><ele>200.0</ele><time>2026-03-29T11:24:29.999Z</time></trkpt><trkpt lat="44.69785473878952" lon="8.20993156047882"><ele>200.0</ele><time>2026-03-29T11:24:30.999Z</time></trkpt><trkpt lat="44.69776892686301" lon="8.209869252323292"><ele>200.0</ele><time>2026-03-29T11:24:31.999Z</time></trkpt><trkpt lat="44.69768424092682" lon="8.209779780523592"><ele>200.0</ele><time>2026-03-29T11:24:32.999Z</time></trkpt><trkpt lat="44.69761885116208" lon="8.2096643283291"><ele>200.0</ele><time>2026-03-29T11:24:33.999Z</time></trkpt><trkpt lat="44.6975527718076" lon="8.20954723329355"><ele>200.0</ele><time>2026-03-29T11:24:34.999Z</time></trkpt><trkpt lat="44.69749087690829" lon="8.20944932873681"><ele>197.83333333333334</ele><time>2026-03-29T11:24:35.999Z</time></trkpt><trkpt lat="44.69742909571539" lon="8.209383912584357"><ele>195.66666666666669</ele><time>2026-03-29T11:24:36.999Z</time></trkpt><trkpt lat="44.69735560301304" lon="8.20935918793562"><ele>193.5</ele><time>2026-03-29T11:24:37.999Z</time></trkpt><trkpt lat="44.6972880930678" lon="8.209390145067971"><ele>191.33333333333334</ele><time>2026-03-29T11:24:38.999Z</time></trkpt><trkpt lat="44.697231579171145" lon="8.20946223094237"><ele>189.16666666666669</ele><time>2026-03-29T11:24:39.999Z</time></trkpt><trkpt lat="44.69713776084585" lon="8.209562871531666"><ele>187.0</ele><time>2026-03-29T11:24:41.999Z</time></trkpt><trkpt lat="44.69705303257695" lon="8.209640777290927"><ele>187.0</ele><time>2026-03-29T11:24:43.999Z</time></trkpt><trkpt lat="44.696979990968856" lon="8.209712473498868"><ele>187.0</ele><time>2026-03-29T11:24:45.999Z</time></trkpt><trkpt lat="44.69690680569328" lon="8.209760553851206"><ele>187.0</ele><time>2026-03-29T11:24:47.999Z</time></trkpt><trkpt lat="44.696861778344115" lon="8.209836750116931"><ele>187.0</ele><time>2026-03-29T11:24:49.999Z</time></trkpt><trkpt lat="44.69681007870237" lon="8.209894649042596"><ele>187.0</ele><time>2026-03-29T11:24:51.999Z</time></trkpt><trkpt lat="44.69675283926129" lon="8.209944814911111"><ele>187.0</ele><time>2026-03-29T11:24:53.999Z</time></trkpt><trkpt lat="44.696755109405856" lon="8.209836155647855"><ele>186.33333333333334</ele><time>2026-03-29T11:24:56.999Z</time></trkpt><trkpt lat="44.69681466902555" lon="8.209732605561452"><ele>185.66666666666669</ele><time>2026-03-29T11:24:58.999Z</time></trkpt><trkpt lat="44.69681756250889" lon="8.209571308151721"><ele>185.0</ele><time>2026-03-29T11:25:00.999Z</time></trkpt><trkpt lat="44.69678191075108" lon="8.2094973762174"><ele>184.33333333333334</ele><time>2026-03-29T11:25:01.999Z</time></trkpt><trkpt lat="44.696726048493595" lon="8.209432295108448"><ele>183.66666666666666</ele><time>2026-03-29T11:25:03.999Z</time></trkpt><trkpt lat="44.696674251513194" lon="8.209363390083713"><ele>183.0</ele><time>2026-03-29T11:25:07.999Z</time></trkpt><trkpt lat="44.69664106724368" lon="8.20928448059161"><ele>183.0</ele><time>2026-03-29T11:25:11.999Z</time></trkpt><trkpt lat="44.69659752303867" lon="8.209215741834521"><ele>183.0</ele><time>2026-03-29T11:25:15.999Z</time></trkpt><trkpt lat="44.69654883018611" lon="8.209146070528057"><ele>183.0</ele><time>2026-03-29T11:25:20Z</time></trkpt><trkpt lat="44.69651943322115" lon="8.209063510606038"><ele>183.0</ele><time>2026-03-29T11:25:23Z</time></trkpt><trkpt lat="44.69647081465008" lon="8.208966549508594"><ele>183.0</ele><time>2026-03-29T11:25:26Z</time></trkpt><trkpt lat="44.6964256203036" lon="8.208894696020431"><ele>183.0</ele><time>2026-03-29T11:25:28Z</time></trkpt><trkpt lat="44.69636154944164" lon="8.20879782424956"><ele>183.0</ele><time>2026-03-29T11:25:31Z</time></trkpt><trkpt lat="44.69630479829941" lon="8.208702872718504"><ele>183.16666666666666</ele><time>2026-03-29T11:25:34Z</time></trkpt><trkpt lat="44.69626173470164" lon="8.20860414942359"><ele>183.33333333333334</ele><time>2026-03-29T11:25:37Z</time></trkpt><trkpt lat="44.69623006265638" lon="8.208501421282442"><ele>183.5</ele><time>2026-03-29T11:25:40Z</time></trkpt><trkpt lat="44.6961872004238" lon="8.208400800518469"><ele>183.66666666666669</ele><time>2026-03-29T11:25:43Z</time></trkpt><trkpt lat="44.69615598519039" lon="8.208306678048904"><ele>183.83333333333334</ele><time>2026-03-29T11:25:46Z</time></trkpt><trkpt lat="44.6961097150164" lon="8.208213156906815"><ele>184.0</ele><time>2026-03-29T11:25:49Z</time></trkpt><trkpt lat="44.696070153324676" lon="8.208130860703266"><ele>184.0</ele><time>2026-03-29T11:25:52Z</time></trkpt><trkpt lat="44.69602496856721" lon="8.208038039401707"><ele>184.0</ele><time>2026-03-29T11:25:55Z</time></trkpt><trkpt lat="44.69597908883238" lon="8.20794935753296"><ele>184.0</ele><time>2026-03-29T11:25:58Z</time></trkpt><trkpt lat="44.69593308424617" lon="8.207855213787182"><ele>184.0</ele><time>2026-03-29T11:26:01Z</time></trkpt><trkpt lat="44.69589134017425" lon="8.207762528533012"><ele>184.0</ele><time>2026-03-29T11:26:04Z</time></trkpt><trkpt lat="44.69584567439048" lon="8.207670237483075"><ele>184.0</ele><time>2026-03-29T11:26:07.999Z</time></trkpt><trkpt lat="44.69580220944764" lon="8.207594722418861"><ele>184.0</ele><time>2026-03-29T11:26:10.999Z</time></trkpt><trkpt lat="44.695755680502124" lon="8.207507074654838"><ele>184.0</ele><time>2026-03-29T11:26:13.999Z</time></trkpt><trkpt lat="44.69570821935993" lon="8.207421723591981"><ele>184.0</ele><time>2026-03-29T11:26:16.999Z</time></trkpt><trkpt lat="44.69565825319095" lon="8.207329413833635"><ele>184.0</ele><time>2026-03-29T11:26:19.999Z</time></trkpt><trkpt lat="44.69561339407126" lon="8.20723994316586"><ele>184.0</ele><time>2026-03-29T11:26:23.999Z</time></trkpt><trkpt lat="44.695579119634466" lon="8.207156538635477"><ele>184.0</ele><time>2026-03-29T11:26:26.999Z</time></trkpt><trkpt lat="44.69553839099704" lon="8.20706052582976"><ele>184.57142857142858</ele><time>2026-03-29T11:26:29.999Z</time></trkpt><trkpt lat="44.69549600966677" lon="8.206981188761436"><ele>185.14285714285714</ele><time>2026-03-29T11:26:32.999Z</time></trkpt><trkpt lat="44.69544979612412" lon="8.206898512622011"><ele>185.71428571428572</ele><time>2026-03-29T11:26:35.999Z</time></trkpt><trkpt lat="44.69539887697917" lon="8.206818251188023"><ele>186.28571428571428</ele><time>2026-03-29T11:26:38.999Z</time></trkpt><trkpt lat="44.695337429593" lon="8.206790919634877"><ele>186.85714285714283</ele><time>2026-03-29T11:26:41.999Z</time></trkpt><trkpt lat="44.695281702827565" lon="8.206733162680417"><ele>187.42857142857142</ele><time>2026-03-29T11:26:44.999Z</time></trkpt><trkpt lat="44.69524235577428" lon="8.206659159124097"><ele>188.0</ele><time>2026-03-29T11:26:50.999Z</time></trkpt><trkpt lat="44.69519703455294" lon="8.206584002666357"><ele>188.0</ele><time>2026-03-29T11:27:16.999Z</time></trkpt><trkpt lat="44.695148757562684" lon="8.206525885827277"><ele>188.0</ele><time>2026-03-29T11:27:21.999Z</time></trkpt><trkpt lat="44.695092678760666" lon="8.20646715172742"><ele>188.0</ele><time>2026-03-29T11:27:26Z</time></trkpt><trkpt lat="44.69503302158611" lon="8.206395222424181"><ele>188.0</ele><time>2026-03-29T11:27:31Z</time></trkpt><trkpt lat="44.694984662081886" lon="8.206313278010969"><ele>188.0</ele><time>2026-03-29T11:27:35Z</time></trkpt><trkpt lat="44.69493851948397" lon="8.2062520858436"><ele>188.0</ele><time>2026-03-29T11:27:38Z</time></trkpt><trkpt lat="44.69489692864271" lon="8.20618122715261"><ele>188.0</ele><time>2026-03-29T11:27:41Z</time></trkpt><trkpt lat="44.69484871598961" lon="8.206120786402536"><ele>189.5</ele><time>2026-03-29T11:27:44Z</time></trkpt><trkpt lat="44.69477473912024" lon="8.206052431365137"><ele>191.0</ele><time>2026-03-29T11:27:48Z</time></trkpt><trkpt lat="44.69471147091585" lon="8.20599552817737"><ele>192.5</ele><time>2026-03-29T11:27:51Z</time></trkpt><trkpt lat="44.69465716226083" lon="8.205937863408318"><ele>194.0</ele><time>2026-03-29T11:27:54Z</time></trkpt><trkpt lat="44.694600607076794" lon="8.205857928324257"><ele>195.50000000000003</ele><time>2026-03-29T11:27:57Z</time></trkpt><trkpt lat="44.694541724033286" lon="8.205780536249057"><ele>197.0</ele><time>2026-03-29T11:28:00Z</time></trkpt><trkpt lat="44.69448732077955" lon="8.205700654768664"><ele>196.83333333333334</ele><time>2026-03-29T11:28:03Z</time></trkpt><trkpt lat="44.694433871359394" lon="8.205611835085666"><ele>196.66666666666669</ele><time>2026-03-29T11:28:06Z</time></trkpt><trkpt lat="44.694361517813434" lon="8.205547968756404"><ele>196.5</ele><time>2026-03-29T11:28:09Z</time></trkpt><trkpt lat="44.694321942743024" lon="8.205468079033817"><ele>196.33333333333331</ele><time>2026-03-29T11:28:11.999Z</time></trkpt><trkpt lat="44.69428115439232" lon="8.205384006719049"><ele>196.16666666666666</ele><time>2026-03-29T11:28:14.999Z</time></trkpt><trkpt lat="44.69422215826057" lon="8.205305176151619"><ele>196.0</ele><time>2026-03-29T11:28:17.999Z</time></trkpt><trkpt lat="44.694167163299134" lon="8.205228510545021"><ele>195.99999999999997</ele><time>2026-03-29T11:28:20.999Z</time></trkpt><trkpt lat="44.69411691153117" lon="8.205153897186468"><ele>196.0</ele><time>2026-03-29T11:28:23.999Z</time></trkpt><trkpt lat="44.69405617186751" lon="8.205082757585792"><ele>196.0</ele><time>2026-03-29T11:28:27.999Z</time></trkpt><trkpt lat="44.69402372349012" lon="8.20498394917495"><ele>196.0</ele><time>2026-03-29T11:28:31.999Z</time></trkpt><trkpt lat="44.693986155044776" lon="8.204826738389999"><ele>195.99999999999997</ele><time>2026-03-29T11:28:35.999Z</time></trkpt><trkpt lat="44.69394196307102" lon="8.20475823999379"><ele>196.0</ele><time>2026-03-29T11:28:46.999Z</time></trkpt><trkpt lat="44.6939292044451" lon="8.204653796069426"><ele>198.99999999999997</ele><time>2026-03-29T11:28:50.999Z</time></trkpt><trkpt lat="44.69387701811079" lon="8.204571207016063"><ele>202.0</ele><time>2026-03-29T11:28:54.999Z</time></trkpt><trkpt lat="44.69382717623066" lon="8.204472078351113"><ele>205.0</ele><time>2026-03-29T11:28:57.999Z</time></trkpt><trkpt lat="44.69378715153397" lon="8.204387195933501"><ele>208.0</ele><time>2026-03-29T11:29:00.999Z</time></trkpt><trkpt lat="44.69374543410544" lon="8.204295748090132"><ele>210.99999999999997</ele><time>2026-03-29T11:29:03.999Z</time></trkpt><trkpt lat="44.693682097039805" lon="8.204240092089297"><ele>214.0</ele><time>2026-03-29T11:29:07.999Z</time></trkpt><trkpt lat="44.69364256802618" lon="8.204165169900222"><ele>213.00000000000003</ele><time>2026-03-29T11:29:10.999Z</time></trkpt><trkpt lat="44.69358114130203" lon="8.204122932112803"><ele>212.0</ele><time>2026-03-29T11:29:13.999Z</time></trkpt><trkpt lat="44.693519073194324" lon="8.20407353703385"><ele>211.0</ele><time>2026-03-29T11:29:16.999Z</time></trkpt><trkpt lat="44.693505538452776" lon="8.203968638474418"><ele>210.0</ele><time>2026-03-29T11:29:20.999Z</time></trkpt><trkpt lat="44.693467093189724" lon="8.203898436827396"><ele>209.0</ele><time>2026-03-29T11:29:22.999Z</time></trkpt><trkpt lat="44.69340136273911" lon="8.20383632103591"><ele>208.00000000000003</ele><time>2026-03-29T11:29:25.999Z</time></trkpt><trkpt lat="44.69334662863566" lon="8.203743202266082"><ele>207.0</ele><time>2026-03-29T11:29:30Z</time></trkpt><trkpt lat="44.69328429816706" lon="8.203683067388168"><ele>207.0</ele><time>2026-03-29T11:29:33Z</time></trkpt><trkpt lat="44.69321463954773" lon="8.203628569012839"><ele>207.0</ele><time>2026-03-29T11:29:36Z</time></trkpt><trkpt lat="44.69314258142461" lon="8.203577378045022"><ele>207.0</ele><time>2026-03-29T11:29:39Z</time></trkpt><trkpt lat="44.69308521849035" lon="8.20353630981831"><ele>207.0</ele><time>2026-03-29T11:29:42Z</time></trkpt><trkpt lat="44.69302710031089" lon="8.203493201465703"><ele>207.0</ele><time>2026-03-29T11:29:45Z</time></trkpt><trkpt lat="44.69293445374455" lon="8.203498312535178"><ele>207.0</ele><time>2026-03-29T11:29:48Z</time></trkpt><trkpt lat="44.69288541992059" lon="8.203431402527384"><ele>207.0</ele><time>2026-03-29T11:29:50Z</time></trkpt><trkpt lat="44.692826279465265" lon="8.203345536854119"><ele>207.0</ele><time>2026-03-29T11:29:52Z</time></trkpt><trkpt lat="44.69276212192768" lon="8.2033525482371"><ele>207.0</ele><time>2026-03-29T11:29:54Z</time></trkpt><trkpt lat="44.69268507442941" lon="8.20336033717706"><ele>207.0</ele><time>2026-03-29T11:29:57Z</time></trkpt><trkpt lat="44.69260367232905" lon="8.203366636587813"><ele>207.0</ele><time>2026-03-29T11:30:00Z</time></trkpt><trkpt lat="44.69252180564737" lon="8.203381178146234"><ele>207.0</ele><time>2026-03-29T11:30:03Z</time></trkpt><trkpt lat="44.69245504436201" lon="8.203388410453238"><ele>204.71428571428572</ele><time>2026-03-29T11:30:06Z</time></trkpt><trkpt lat="44.692377367938654" lon="8.20335638465622"><ele>202.42857142857144</ele><time>2026-03-29T11:30:09Z</time></trkpt><trkpt lat="44.69231636593052" lon="8.203330772465273"><ele>200.14285714285717</ele><time>2026-03-29T11:30:12Z</time></trkpt><trkpt lat="44.6922595684343" lon="8.20327748886192"><ele>197.85714285714286</ele><time>2026-03-29T11:30:14.999Z</time></trkpt><trkpt lat="44.69220004634128" lon="8.20322329512813"><ele>195.57142857142856</ele><time>2026-03-29T11:30:18.999Z</time></trkpt><trkpt lat="44.6921319360994" lon="8.203212233795043"><ele>193.2857142857143</ele><time>2026-03-29T11:30:22.999Z</time></trkpt><trkpt lat="44.692059130534254" lon="8.20317784843854"><ele>191.0</ele><time>2026-03-29T11:30:26.999Z</time></trkpt><trkpt lat="44.69197836946447" lon="8.203155764409741"><ele>194.16666666666666</ele><time>2026-03-29T11:30:30.999Z</time></trkpt><trkpt lat="44.69189810920128" lon="8.203128756468255"><ele>197.33333333333331</ele><time>2026-03-29T11:30:34.999Z</time></trkpt><trkpt lat="44.691831167841606" lon="8.203110129228465"><ele>200.5</ele><time>2026-03-29T11:30:37.999Z</time></trkpt><trkpt lat="44.6917512923262" lon="8.20309036222644"><ele>203.66666666666666</ele><time>2026-03-29T11:30:41.999Z</time></trkpt><trkpt lat="44.6916705378276" lon="8.203057529719256"><ele>206.83333333333334</ele><time>2026-03-29T11:30:45.999Z</time></trkpt><trkpt lat="44.69160849085441" lon="8.203037101035875"><ele>210.0</ele><time>2026-03-29T11:30:48.999Z</time></trkpt><trkpt lat="44.69153663203411" lon="8.20301009376655"><ele>210.0</ele><time>2026-03-29T11:30:51.999Z</time></trkpt><trkpt lat="44.691466510953774" lon="8.202968012466814"><ele>210.0</ele><time>2026-03-29T11:30:54.999Z</time></trkpt><trkpt lat="44.69137808092166" lon="8.202933447447458"><ele>210.0</ele><time>2026-03-29T11:30:57.999Z</time></trkpt><trkpt lat="44.691298652360715" lon="8.20288535687432"><ele>210.0</ele><time>2026-03-29T11:31:00.999Z</time></trkpt><trkpt lat="44.69122757707567" lon="8.20283052036599"><ele>210.0</ele><time>2026-03-29T11:31:03.999Z</time></trkpt><trkpt lat="44.69114340270165" lon="8.202782712390432"><ele>210.0</ele><time>2026-03-29T11:31:06.999Z</time></trkpt><trkpt lat="44.69107368288704" lon="8.202748704215825"><ele>208.85714285714286</ele><time>2026-03-29T11:31:09.999Z</time></trkpt><trkpt lat="44.69100751992834" lon="8.202710218580233"><ele>207.71428571428572</ele><time>2026-03-29T11:31:12.999Z</time></trkpt><trkpt lat="44.69093653398281" lon="8.202670478592566"><ele>206.57142857142856</ele><time>2026-03-29T11:31:15.999Z</time></trkpt><trkpt lat="44.690867729366154" lon="8.202628004114999"><ele>205.42857142857144</ele><time>2026-03-29T11:31:18.999Z</time></trkpt><trkpt lat="44.69080222896449" lon="8.202600828400264"><ele>204.28571428571428</ele><time>2026-03-29T11:31:21.999Z</time></trkpt><trkpt lat="44.690724870833954" lon="8.202569993041152"><ele>203.14285714285714</ele><time>2026-03-29T11:31:25.999Z</time></trkpt><trkpt lat="44.69065384734356" lon="8.202542627753884"><ele>202.0</ele><time>2026-03-29T11:31:29.999Z</time></trkpt><trkpt lat="44.69058966293904" lon="8.202527719363426"><ele>202.0</ele><time>2026-03-29T11:31:32.999Z</time></trkpt><trkpt lat="44.69051834917033" lon="8.202509075285915"><ele>202.0</ele><time>2026-03-29T11:31:36Z</time></trkpt><trkpt lat="44.6904480612387" lon="8.202534802193968"><ele>202.0</ele><time>2026-03-29T11:31:39Z</time></trkpt><trkpt lat="44.690383692859136" lon="8.202566502775026"><ele>202.0</ele><time>2026-03-29T11:31:42Z</time></trkpt><trkpt lat="44.69031684033635" lon="8.202614117106599"><ele>202.0</ele><time>2026-03-29T11:31:46Z</time></trkpt><trkpt lat="44.690246448796714" lon="8.202665986138507"><ele>202.0</ele><time>2026-03-29T11:31:50Z</time></trkpt><trkpt lat="44.690188987986964" lon="8.202717037772821"><ele>202.0</ele><time>2026-03-29T11:31:53Z</time></trkpt><trkpt lat="44.69012108270315" lon="8.202784356472765"><ele>200.57142857142856</ele><time>2026-03-29T11:31:57Z</time></trkpt><trkpt lat="44.690069366913775" lon="8.20283798659305"><ele>199.14285714285714</ele><time>2026-03-29T11:32:00Z</time></trkpt><trkpt lat="44.69001138315271" lon="8.202897295690113"><ele>197.71428571428572</ele><time>2026-03-29T11:32:03Z</time></trkpt><trkpt lat="44.68995874418171" lon="8.202961078244414"><ele>196.28571428571428</ele><time>2026-03-29T11:32:06Z</time></trkpt><trkpt lat="44.689898431821696" lon="8.203031505343027"><ele>194.85714285714286</ele><time>2026-03-29T11:32:10Z</time></trkpt><trkpt lat="44.689835629156306" lon="8.203101788753939"><ele>193.42857142857142</ele><time>2026-03-29T11:32:14Z</time></trkpt><trkpt lat="44.68978285124164" lon="8.20316213693873"><ele>192.0</ele><time>2026-03-29T11:32:17Z</time></trkpt><trkpt lat="44.68972317047453" lon="8.20322593132846"><ele>192.16666666666666</ele><time>2026-03-29T11:32:19.999Z</time></trkpt><trkpt lat="44.689637432197024" lon="8.203298100683343"><ele>192.33333333333331</ele><time>2026-03-29T11:32:22.999Z</time></trkpt><trkpt lat="44.689577569162765" lon="8.203355102490042"><ele>192.5</ele><time>2026-03-29T11:32:24.999Z</time></trkpt><trkpt lat="44.6895024072684" lon="8.203420180888612"><ele>192.66666666666666</ele><time>2026-03-29T11:32:26.999Z</time></trkpt><trkpt lat="44.689416583867875" lon="8.203474464824593"><ele>192.83333333333331</ele><time>2026-03-29T11:32:28.999Z</time></trkpt><trkpt lat="44.689354660064346" lon="8.20353388830541"><ele>193.0</ele><time>2026-03-29T11:32:30.999Z</time></trkpt><trkpt lat="44.689258346596446" lon="8.203583237325725"><ele>193.00000000000003</ele><time>2026-03-29T11:32:32.999Z</time></trkpt><trkpt lat="44.689187549536825" lon="8.203600120974281"><ele>193.0</ele><time>2026-03-29T11:32:46.999Z</time></trkpt><trkpt lat="44.689123878322974" lon="8.203654050945554"><ele>193.0</ele><time>2026-03-29T11:32:48.999Z</time></trkpt><trkpt lat="44.689051633815495" lon="8.203683151383117"><ele>193.0</ele><time>2026-03-29T11:32:50.999Z</time></trkpt><trkpt lat="44.68897804233804" lon="8.203704452325262"><ele>193.0</ele><time>2026-03-29T11:32:52.999Z</time></trkpt><trkpt lat="44.68889991885896" lon="8.203726322371653"><ele>193.00000000000003</ele><time>2026-03-29T11:32:54.999Z</time></trkpt><trkpt lat="44.68883495196638" lon="8.203753696108466"><ele>193.0</ele><time>2026-03-29T11:32:56.999Z</time></trkpt><trkpt lat="44.68876273841606" lon="8.203767010425478"><ele>192.99999999999997</ele><time>2026-03-29T11:32:58.999Z</time></trkpt><trkpt lat="44.688670310738" lon="8.203792209382284"><ele>193.0</ele><time>2026-03-29T11:33:01.999Z</time></trkpt><trkpt lat="44.68856421029579" lon="8.203812923215743"><ele>193.0</ele><time>2026-03-29T11:33:04.999Z</time></trkpt><trkpt lat="44.68849021171105" lon="8.203830844410344"><ele>193.0</ele><time>2026-03-29T11:33:07.999Z</time></trkpt><trkpt lat="44.68842071432668" lon="8.203848549734793"><ele>192.99999999999997</ele><time>2026-03-29T11:33:10.999Z</time></trkpt><trkpt lat="44.68834270487138" lon="8.203869866682616"><ele>193.0</ele><time>2026-03-29T11:33:14.999Z</time></trkpt><trkpt lat="44.68827124205831" lon="8.20387012361018"><ele>192.85714285714286</ele><time>2026-03-29T11:33:17.999Z</time></trkpt><trkpt lat="44.68820572203368" lon="8.20383286359966"><ele>192.71428571428572</ele><time>2026-03-29T11:33:20.999Z</time></trkpt><trkpt lat="44.68813511999952" lon="8.203823639155615"><ele>192.57142857142856</ele><time>2026-03-29T11:33:23.999Z</time></trkpt><trkpt lat="44.68806236028814" lon="8.203802593966351"><ele>192.42857142857144</ele><time>2026-03-29T11:33:26.999Z</time></trkpt><trkpt lat="44.68799304134282" lon="8.203775685380684"><ele>192.28571428571428</ele><time>2026-03-29T11:33:29.999Z</time></trkpt><trkpt lat="44.687920403015866" lon="8.203749665004109"><ele>192.14285714285714</ele><time>2026-03-29T11:33:32.999Z</time></trkpt><trkpt lat="44.68785215998803" lon="8.203718778514169"><ele>192.0</ele><time>2026-03-29T11:33:35.999Z</time></trkpt><trkpt lat="44.68777824662696" lon="8.203700801604999"><ele>192.57142857142856</ele><time>2026-03-29T11:33:38.999Z</time></trkpt><trkpt lat="44.687712297409135" lon="8.203672831035396"><ele>193.14285714285714</ele><time>2026-03-29T11:33:42Z</time></trkpt><trkpt lat="44.68764497143018" lon="8.203647832110393"><ele>193.71428571428572</ele><time>2026-03-29T11:33:45Z</time></trkpt><trkpt lat="44.68758109513085" lon="8.203620400525491"><ele>194.28571428571428</ele><time>2026-03-29T11:33:48Z</time></trkpt><trkpt lat="44.687517299069704" lon="8.203574419241937"><ele>194.85714285714286</ele><time>2026-03-29T11:33:51Z</time></trkpt><trkpt lat="44.687454746201176" lon="8.203530700020432"><ele>195.42857142857142</ele><time>2026-03-29T11:33:54Z</time></trkpt><trkpt lat="44.68737452235261" lon="8.203493591744534"><ele>196.0</ele><time>2026-03-29T11:33:58Z</time></trkpt><trkpt lat="44.68731025947934" lon="8.203454763572841"><ele>195.99999999999997</ele><time>2026-03-29T11:34:01Z</time></trkpt><trkpt lat="44.68723871147828" lon="8.203410079998795"><ele>196.0</ele><time>2026-03-29T11:34:18Z</time></trkpt><trkpt lat="44.68717280591445" lon="8.203353366451255"><ele>196.0</ele><time>2026-03-29T11:34:21Z</time></trkpt><trkpt lat="44.68711164428058" lon="8.203310085162087"><ele>196.0</ele><time>2026-03-29T11:34:23Z</time></trkpt><trkpt lat="44.687048290092385" lon="8.203278176326023"><ele>195.99999999999997</ele><time>2026-03-29T11:34:24.999Z</time></trkpt><trkpt lat="44.68699669726337" lon="8.203196020182432"><ele>196.0</ele><time>2026-03-29T11:34:27.999Z</time></trkpt><trkpt lat="44.686881854143905" lon="8.203121201759666"><ele>195.71428571428572</ele><time>2026-03-29T11:34:29.999Z</time></trkpt><trkpt lat="44.68681937935068" lon="8.203100633129406"><ele>195.42857142857144</ele><time>2026-03-29T11:34:33.999Z</time></trkpt><trkpt lat="44.68675377417778" lon="8.203079382794133"><ele>195.14285714285714</ele><time>2026-03-29T11:35:17.999Z</time></trkpt><trkpt lat="44.68669682887987" lon="8.203027107309442"><ele>194.85714285714286</ele><time>2026-03-29T11:39:51.999Z</time></trkpt><trkpt lat="44.686633024277924" lon="8.202988407273514"><ele>194.57142857142858</ele><time>2026-03-29T11:40:01Z</time></trkpt><trkpt lat="44.686569302113476" lon="8.202980113356832"><ele>194.28571428571428</ele><time>2026-03-29T11:40:07Z</time></trkpt><trkpt lat="44.68650476568487" lon="8.202980616036731"><ele>194.0</ele><time>2026-03-29T11:40:12Z</time></trkpt><trkpt lat="44.68644368365447" lon="8.20294027521969"><ele>194.0</ele><time>2026-03-29T11:40:18Z</time></trkpt><trkpt lat="44.686368241056215" lon="8.202930935885687"><ele>194.0</ele><time>2026-03-29T11:40:24Z</time></trkpt><trkpt lat="44.68630527700316" lon="8.202923195380281"><ele>194.0</ele><time>2026-03-29T11:40:28Z</time></trkpt><trkpt lat="44.68621650174502" lon="8.202888625457094"><ele>194.0</ele><time>2026-03-29T11:40:33Z</time></trkpt><trkpt lat="44.68615161305833" lon="8.202870456956125"><ele>194.0</ele><time>2026-03-29T11:40:35.999Z</time></trkpt><trkpt lat="44.68607229522107" lon="8.202853802582709"><ele>194.0</ele><time>2026-03-29T11:40:39.999Z</time></trkpt><trkpt lat="44.68600911336295" lon="8.20281251249497"><ele>194.0</ele><time>2026-03-29T11:40:42.999Z</time></trkpt><trkpt lat="44.68593990289781" lon="8.202789562568933"><ele>194.0</ele><time>2026-03-29T11:40:45.999Z</time></trkpt><trkpt lat="44.68587820624034" lon="8.20276657022557"><ele>194.0</ele><time>2026-03-29T11:40:48.999Z</time></trkpt><trkpt lat="44.68580635146118" lon="8.202743553348034"><ele>194.0</ele><time>2026-03-29T11:40:51.999Z</time></trkpt><trkpt lat="44.685731478617" lon="8.202714136789279"><ele>194.0</ele><time>2026-03-29T11:40:54.999Z</time></trkpt><trkpt lat="44.6856580730138" lon="8.202685062670177"><ele>194.0</ele><time>2026-03-29T11:40:57.999Z</time></trkpt><trkpt lat="44.685592734279595" lon="8.202654381138666"><ele>194.0</ele><time>2026-03-29T11:41:00.999Z</time></trkpt><trkpt lat="44.6855323514473" lon="8.202626010700465"><ele>194.0</ele><time>2026-03-29T11:41:03.999Z</time></trkpt><trkpt lat="44.68546461415022" lon="8.202580536952382"><ele>194.0</ele><time>2026-03-29T11:41:07.999Z</time></trkpt><trkpt lat="44.6853982896303" lon="8.202522351086536"><ele>194.0</ele><time>2026-03-29T11:41:11.999Z</time></trkpt><trkpt lat="44.68533789994196" lon="8.202469212888099"><ele>194.0</ele><time>2026-03-29T11:41:14.999Z</time></trkpt><trkpt lat="44.685282747603864" lon="8.202421451723707"><ele>194.0</ele><time>2026-03-29T11:41:17.999Z</time></trkpt><trkpt lat="44.6852160704799" lon="8.202391157335224"><ele>194.0</ele><time>2026-03-29T11:41:20.999Z</time></trkpt><trkpt lat="44.685147108171726" lon="8.202367807939805"><ele>194.0</ele><time>2026-03-29T11:41:24.999Z</time></trkpt><trkpt lat="44.68507451639283" lon="8.202350604791068"><ele>194.0</ele><time>2026-03-29T11:42:24.999Z</time></trkpt><trkpt lat="44.68500122691706" lon="8.202302790940506"><ele>194.14285714285714</ele><time>2026-03-29T11:43:08.999Z</time></trkpt><trkpt lat="44.68494796014184" lon="8.20222502854884"><ele>194.2857142857143</ele><time>2026-03-29T11:43:12.999Z</time></trkpt><trkpt lat="44.68489143418155" lon="8.202155711460412"><ele>194.42857142857144</ele><time>2026-03-29T11:43:17.999Z</time></trkpt><trkpt lat="44.68484400087534" lon="8.202093565407136"><ele>194.57142857142856</ele><time>2026-03-29T11:43:22.999Z</time></trkpt><trkpt lat="44.68478419681604" lon="8.202045314081811"><ele>194.71428571428572</ele><time>2026-03-29T11:43:26.999Z</time></trkpt><trkpt lat="44.684714983360465" lon="8.201987237267508"><ele>194.85714285714286</ele><time>2026-03-29T11:43:30.999Z</time></trkpt><trkpt lat="44.68465796316563" lon="8.201941173119435"><ele>195.0</ele><time>2026-03-29T11:43:33.999Z</time></trkpt><trkpt lat="44.68460329349427" lon="8.20189647455788"><ele>195.0</ele><time>2026-03-29T11:43:37.999Z</time></trkpt><trkpt lat="44.6845490161518" lon="8.20184154188259"><ele>195.0</ele><time>2026-03-29T11:43:41.999Z</time></trkpt><trkpt lat="44.68449451426171" lon="8.201769600642152"><ele>195.0</ele><time>2026-03-29T11:43:44.999Z</time></trkpt><trkpt lat="44.68443847909036" lon="8.201688873356408"><ele>195.0</ele><time>2026-03-29T11:43:46.999Z</time></trkpt><trkpt lat="44.68435592068693" lon="8.20161249924394"><ele>195.0</ele><time>2026-03-29T11:43:49.999Z</time></trkpt><trkpt lat="44.68429744520483" lon="8.201530752355648"><ele>195.0</ele><time>2026-03-29T11:43:51.999Z</time></trkpt><trkpt lat="44.684240222489855" lon="8.201462375975309"><ele>195.66666666666666</ele><time>2026-03-29T11:43:53.999Z</time></trkpt><trkpt lat="44.684190121445525" lon="8.201398365327961"><ele>196.33333333333331</ele><time>2026-03-29T11:43:55.999Z</time></trkpt><trkpt lat="44.684126762279405" lon="8.201313357459528"><ele>197.0</ele><time>2026-03-29T11:43:57.999Z</time></trkpt><trkpt lat="44.68404103742158" lon="8.201217268940267"><ele>197.66666666666666</ele><time>2026-03-29T11:43:59.999Z</time></trkpt><trkpt lat="44.68397485425819" lon="8.201186339932573"><ele>198.33333333333331</ele><time>2026-03-29T11:44:01.998Z</time></trkpt><trkpt lat="44.6838928499346" lon="8.201184601585188"><ele>199.0</ele><time>2026-03-29T11:44:04.998Z</time></trkpt><trkpt lat="44.683820020147266" lon="8.201146741439496"><ele>198.99999999999997</ele><time>2026-03-29T11:44:07.998Z</time></trkpt><trkpt lat="44.683775262146625" lon="8.20107881883632"><ele>199.0</ele><time>2026-03-29T11:44:10.998Z</time></trkpt><trkpt lat="44.68372104590505" lon="8.20100424236831"><ele>199.0</ele><time>2026-03-29T11:44:13.998Z</time></trkpt><trkpt lat="44.68366077920582" lon="8.200938384514268"><ele>199.0</ele><time>2026-03-29T11:44:16.998Z</time></trkpt><trkpt lat="44.68359262076641" lon="8.20086760198196"><ele>198.99999999999997</ele><time>2026-03-29T11:44:19.998Z</time></trkpt><trkpt lat="44.6835255630613" lon="8.20080622394738"><ele>199.0</ele><time>2026-03-29T11:44:22.998Z</time></trkpt><trkpt lat="44.6834561225306" lon="8.200747171955896"><ele>198.99999999999997</ele><time>2026-03-29T11:44:25.998Z</time></trkpt><trkpt lat="44.68339212639083" lon="8.200691714939941"><ele>199.0</ele><time>2026-03-29T11:44:28.998Z</time></trkpt><trkpt lat="44.68333477206134" lon="8.200645989607269"><ele>199.0</ele><time>2026-03-29T11:44:31.998Z</time></trkpt><trkpt lat="44.68327072204397" lon="8.200598757396238"><ele>199.0</ele><time>2026-03-29T11:44:34.999Z</time></trkpt><trkpt lat="44.68320113388436" lon="8.200548600634686"><ele>199.0</ele><time>2026-03-29T11:44:37.999Z</time></trkpt><trkpt lat="44.68313737746401" lon="8.20049667520021"><ele>198.99999999999997</ele><time>2026-03-29T11:44:40.999Z</time></trkpt><trkpt lat="44.683074137258124" lon="8.200446984062475"><ele>199.0</ele><time>2026-03-29T11:44:43.999Z</time></trkpt><trkpt lat="44.68301558039277" lon="8.200391459362883"><ele>198.99999999999997</ele><time>2026-03-29T11:44:46.999Z</time></trkpt><trkpt lat="44.682947302235284" lon="8.200350309678605"><ele>199.0</ele><time>2026-03-29T11:44:49.999Z</time></trkpt><trkpt lat="44.68288824528284" lon="8.200285153006714"><ele>199.0</ele><time>2026-03-29T11:44:53.999Z</time></trkpt><trkpt lat="44.68283437330885" lon="8.200213595688952"><ele>199.0</ele><time>2026-03-29T11:44:56.999Z</time></trkpt><trkpt lat="44.682775806267685" lon="8.200151156731314"><ele>199.0</ele><time>2026-03-29T11:45:00.999Z</time></trkpt><trkpt lat="44.68271091483629" lon="8.200110739226734"><ele>198.99999999999997</ele><time>2026-03-29T11:45:05.999Z</time></trkpt><trkpt lat="44.68266456539631" lon="8.200031191795125"><ele>199.0</ele><time>2026-03-29T11:45:09.999Z</time></trkpt><trkpt lat="44.682612861617564" lon="8.199966564746964"><ele>199.14285714285714</ele><time>2026-03-29T11:45:13.998Z</time></trkpt><trkpt lat="44.6825540329644" lon="8.199934676817557"><ele>199.28571428571428</ele><time>2026-03-29T11:45:17.998Z</time></trkpt><trkpt lat="44.68247862582197" lon="8.199877388743127"><ele>199.42857142857144</ele><time>2026-03-29T11:45:21.998Z</time></trkpt><trkpt lat="44.682415339820594" lon="8.199837146289594"><ele>199.57142857142856</ele><time>2026-03-29T11:45:24.998Z</time></trkpt><trkpt lat="44.68235584610414" lon="8.199796718973815"><ele>199.71428571428572</ele><time>2026-03-29T11:45:27.998Z</time></trkpt><trkpt lat="44.68229449375585" lon="8.199754504727695"><ele>199.85714285714286</ele><time>2026-03-29T11:45:30.998Z</time></trkpt><trkpt lat="44.68222711220376" lon="8.199704145586429"><ele>200.0</ele><time>2026-03-29T11:45:33.998Z</time></trkpt><trkpt lat="44.68216113406398" lon="8.199657613478946"><ele>200.66666666666669</ele><time>2026-03-29T11:45:36.998Z</time></trkpt><trkpt lat="44.68208987480266" lon="8.199616872805581"><ele>201.33333333333334</ele><time>2026-03-29T11:45:41.998Z</time></trkpt><trkpt lat="44.68202476091659" lon="8.199563169479477"><ele>202.0</ele><time>2026-03-29T11:45:44.998Z</time></trkpt><trkpt lat="44.68195321983426" lon="8.199514793398254"><ele>202.66666666666669</ele><time>2026-03-29T11:45:47.998Z</time></trkpt><trkpt lat="44.68189692577967" lon="8.199464936545565"><ele>203.33333333333334</ele><time>2026-03-29T11:45:50.998Z</time></trkpt><trkpt lat="44.681825305665726" lon="8.199428682149357"><ele>204.0</ele><time>2026-03-29T11:45:53.998Z</time></trkpt><trkpt lat="44.68175144753675" lon="8.199380894800273"><ele>204.0</ele><time>2026-03-29T11:45:56.998Z</time></trkpt><trkpt lat="44.68168015975851" lon="8.199343150620603"><ele>204.0</ele><time>2026-03-29T11:45:59.998Z</time></trkpt><trkpt lat="44.681606931085156" lon="8.199293815496828"><ele>204.0</ele><time>2026-03-29T11:46:02.998Z</time></trkpt><trkpt lat="44.681536018356596" lon="8.19924323451761"><ele>204.0</ele><time>2026-03-29T11:46:05.998Z</time></trkpt><trkpt lat="44.681458398808644" lon="8.199192139622784"><ele>204.0</ele><time>2026-03-29T11:46:08.998Z</time></trkpt><trkpt lat="44.68137610810202" lon="8.199148722491117"><ele>204.0</ele><time>2026-03-29T11:46:11.998Z</time></trkpt><trkpt lat="44.681299874953716" lon="8.199109570340267"><ele>204.0</ele><time>2026-03-29T11:46:14.999Z</time></trkpt><trkpt lat="44.68121656366676" lon="8.199080343886061"><ele>204.0</ele><time>2026-03-29T11:46:18.999Z</time></trkpt><trkpt lat="44.681144965774784" lon="8.19905805752866"><ele>204.0</ele><time>2026-03-29T11:46:21.999Z</time></trkpt><trkpt lat="44.68108321702557" lon="8.199030346542557"><ele>204.0</ele><time>2026-03-29T11:46:24.999Z</time></trkpt><trkpt lat="44.68102077731228" lon="8.19901149686794"><ele>204.0</ele><time>2026-03-29T11:46:28.999Z</time></trkpt><trkpt lat="44.68094547738283" lon="8.198987219814935"><ele>204.0</ele><time>2026-03-29T11:46:33.999Z</time></trkpt><trkpt lat="44.680878679157736" lon="8.198959956559055"><ele>204.0</ele><time>2026-03-29T11:46:37.999Z</time></trkpt><trkpt lat="44.6808083014913" lon="8.198941357296508"><ele>205.28571428571428</ele><time>2026-03-29T11:46:41.999Z</time></trkpt><trkpt lat="44.68074346195398" lon="8.198914539559137"><ele>206.57142857142858</ele><time>2026-03-29T11:46:45.999Z</time></trkpt><trkpt lat="44.680674319955884" lon="8.198895409168921"><ele>207.85714285714283</ele><time>2026-03-29T11:46:49.999Z</time></trkpt><trkpt lat="44.680594032822626" lon="8.19887972311606"><ele>209.14285714285714</ele><time>2026-03-29T11:46:53.999Z</time></trkpt><trkpt lat="44.68052778992381" lon="8.198871087444804"><ele>210.42857142857142</ele><time>2026-03-29T11:46:57.999Z</time></trkpt><trkpt lat="44.680452396242195" lon="8.198840765228164"><ele>211.7142857142857</ele><time>2026-03-29T11:47:07.999Z</time></trkpt><trkpt lat="44.68038534131306" lon="8.198823338712948"><ele>213.0</ele><time>2026-03-29T11:47:10.999Z</time></trkpt><trkpt lat="44.68031777961615" lon="8.198806516251357"><ele>212.57142857142856</ele><time>2026-03-29T11:47:13.999Z</time></trkpt><trkpt lat="44.68024860422274" lon="8.198789041953184"><ele>212.14285714285714</ele><time>2026-03-29T11:47:16.999Z</time></trkpt><trkpt lat="44.68018115748029" lon="8.19877309752375"><ele>211.71428571428572</ele><time>2026-03-29T11:47:19.999Z</time></trkpt><trkpt lat="44.6801115732321" lon="8.198761233977796"><ele>211.28571428571428</ele><time>2026-03-29T11:47:22.999Z</time></trkpt><trkpt lat="44.680035048613206" lon="8.198752417943515"><ele>210.85714285714286</ele><time>2026-03-29T11:47:26.999Z</time></trkpt><trkpt lat="44.67997051357618" lon="8.198735672327123"><ele>210.42857142857142</ele><time>2026-03-29T11:47:29.999Z</time></trkpt><trkpt lat="44.679902886206456" lon="8.198719382112957"><ele>210.0</ele><time>2026-03-29T11:47:32.999Z</time></trkpt><trkpt lat="44.67983488266798" lon="8.198704199289875"><ele>210.0</ele><time>2026-03-29T11:47:35.999Z</time></trkpt><trkpt lat="44.679767575576385" lon="8.19869725458279"><ele>210.0</ele><time>2026-03-29T11:47:38.999Z</time></trkpt><trkpt lat="44.679700244809766" lon="8.198680322477342"><ele>210.0</ele><time>2026-03-29T11:47:41.999Z</time></trkpt><trkpt lat="44.679629567249584" lon="8.198659099795783"><ele>210.0</ele><time>2026-03-29T11:47:44.999Z</time></trkpt><trkpt lat="44.679557331924514" lon="8.198645398676174"><ele>210.0</ele><time>2026-03-29T11:47:47.999Z</time></trkpt><trkpt lat="44.679493082240775" lon="8.19863138324092"><ele>210.0</ele><time>2026-03-29T11:47:50.999Z</time></trkpt><trkpt lat="44.679427146463794" lon="8.198619767056245"><ele>210.0</ele><time>2026-03-29T11:47:53.999Z</time></trkpt><trkpt lat="44.67936325248158" lon="8.198606943490413"><ele>209.71428571428572</ele><time>2026-03-29T11:47:56.999Z</time></trkpt><trkpt lat="44.679280764514544" lon="8.19859000831823"><ele>209.42857142857144</ele><time>2026-03-29T11:48:00.999Z</time></trkpt><trkpt lat="44.67921518822302" lon="8.19857526644258"><ele>209.14285714285714</ele><time>2026-03-29T11:48:03.999Z</time></trkpt><trkpt lat="44.67914780780434" lon="8.198559698186976"><ele>208.85714285714286</ele><time>2026-03-29T11:48:06.999Z</time></trkpt><trkpt lat="44.67908416923137" lon="8.198546667378682"><ele>208.57142857142858</ele><time>2026-03-29T11:48:09.999Z</time></trkpt><trkpt lat="44.6790054893073" lon="8.198526414146311"><ele>208.28571428571428</ele><time>2026-03-29T11:48:13.999Z</time></trkpt><trkpt lat="44.678933031458264" lon="8.198511268528058"><ele>208.0</ele><time>2026-03-29T11:48:17.999Z</time></trkpt><trkpt lat="44.6788700398174" lon="8.198492141859566"><ele>207.99999999999997</ele><time>2026-03-29T11:48:21Z</time></trkpt><trkpt lat="44.67879117779334" lon="8.198467042737024"><ele>208.0</ele><time>2026-03-29T11:48:25Z</time></trkpt><trkpt lat="44.67871483283618" lon="8.198440318979877"><ele>208.0</ele><time>2026-03-29T11:48:29Z</time></trkpt><trkpt lat="44.67864208232731" lon="8.198411277318309"><ele>208.0</ele><time>2026-03-29T11:48:33Z</time></trkpt><trkpt lat="44.678564263253236" lon="8.198385899005025"><ele>207.99999999999997</ele><time>2026-03-29T11:48:37Z</time></trkpt><trkpt lat="44.67849471878273" lon="8.19836100953939"><ele>208.0</ele><time>2026-03-29T11:48:41Z</time></trkpt><trkpt lat="44.67842372977961" lon="8.198324827616899"><ele>208.66666666666666</ele><time>2026-03-29T11:48:45Z</time></trkpt><trkpt lat="44.67835072735857" lon="8.198287134923968"><ele>209.33333333333331</ele><time>2026-03-29T11:48:49Z</time></trkpt><trkpt lat="44.678279735844804" lon="8.19825554862384"><ele>210.0</ele><time>2026-03-29T11:48:53Z</time></trkpt><trkpt lat="44.678206518812274" lon="8.198197911425604"><ele>210.66666666666669</ele><time>2026-03-29T11:48:57Z</time></trkpt><trkpt lat="44.678132734627155" lon="8.198150730944109"><ele>211.33333333333334</ele><time>2026-03-29T11:49:01Z</time></trkpt><trkpt lat="44.67806492967651" lon="8.19809654050586"><ele>212.0</ele><time>2026-03-29T11:49:04.999Z</time></trkpt><trkpt lat="44.67800114398956" lon="8.19804412910362"><ele>212.0</ele><time>2026-03-29T11:49:08.999Z</time></trkpt><trkpt lat="44.67794024149753" lon="8.197991018531962"><ele>212.0</ele><time>2026-03-29T11:49:12.999Z</time></trkpt><trkpt lat="44.67787903659762" lon="8.197936160097898"><ele>212.0</ele><time>2026-03-29T11:49:16.999Z</time></trkpt><trkpt lat="44.67782566126435" lon="8.197888363871128"><ele>212.0</ele><time>2026-03-29T11:49:20.999Z</time></trkpt><trkpt lat="44.677763534853156" lon="8.197824050641167"><ele>212.0</ele><time>2026-03-29T11:49:24.999Z</time></trkpt><trkpt lat="44.67771570756791" lon="8.197764997401405"><ele>212.0</ele><time>2026-03-29T11:49:27.999Z</time></trkpt><trkpt lat="44.6776547609276" lon="8.197697522042894"><ele>212.0</ele><time>2026-03-29T11:49:30.999Z</time></trkpt><trkpt lat="44.67760886527692" lon="8.197635730853657"><ele>211.42857142857144</ele><time>2026-03-29T11:49:33.999Z</time></trkpt><trkpt lat="44.67756435315443" lon="8.197571077391704"><ele>210.85714285714283</ele><time>2026-03-29T11:49:36.999Z</time></trkpt><trkpt lat="44.67751980268238" lon="8.19750041595692"><ele>210.28571428571428</ele><time>2026-03-29T11:49:39.999Z</time></trkpt><trkpt lat="44.67747558009181" lon="8.197422505551023"><ele>209.71428571428572</ele><time>2026-03-29T11:49:42.999Z</time></trkpt><trkpt lat="44.677423832853805" lon="8.197334411551436"><ele>209.14285714285717</ele><time>2026-03-29T11:49:46.999Z</time></trkpt><trkpt lat="44.6773836369066" lon="8.19724060400303"><ele>208.57142857142856</ele><time>2026-03-29T11:49:50.999Z</time></trkpt><trkpt lat="44.677346940137355" lon="8.197159039792322"><ele>208.0</ele><time>2026-03-29T11:49:53.999Z</time></trkpt><trkpt lat="44.677295568632964" lon="8.197069166761894"><ele>208.0</ele><time>2026-03-29T11:49:57.999Z</time></trkpt><trkpt lat="44.67726002348643" lon="8.196996013273107"><ele>208.0</ele><time>2026-03-29T11:50:01.999Z</time></trkpt><trkpt lat="44.67721321653403" lon="8.19690358373526"><ele>208.0</ele><time>2026-03-29T11:50:05.999Z</time></trkpt><trkpt lat="44.67716940699519" lon="8.196837287240282"><ele>208.0</ele><time>2026-03-29T11:50:08.999Z</time></trkpt><trkpt lat="44.67712056061377" lon="8.196763586183122"><ele>208.0</ele><time>2026-03-29T11:50:11.999Z</time></trkpt><trkpt lat="44.677060221722286" lon="8.196671458317834"><ele>208.0</ele><time>2026-03-29T11:50:14.999Z</time></trkpt><trkpt lat="44.67701770329112" lon="8.196577426111565"><ele>208.0</ele><time>2026-03-29T11:50:16.999Z</time></trkpt><trkpt lat="44.67695545296116" lon="8.1965013991043"><ele>208.33333333333331</ele><time>2026-03-29T11:50:18.999Z</time></trkpt><trkpt lat="44.67689101254652" lon="8.196501247848657"><ele>208.66666666666666</ele><time>2026-03-29T11:50:20.999Z</time></trkpt><trkpt lat="44.67680619978674" lon="8.196457606214771"><ele>209.0</ele><time>2026-03-29T11:50:23.999Z</time></trkpt><trkpt lat="44.676747558266506" lon="8.196377375438843"><ele>209.33333333333331</ele><time>2026-03-29T11:50:33Z</time></trkpt><trkpt lat="44.676685206847594" lon="8.196300062140356"><ele>209.66666666666666</ele><time>2026-03-29T11:50:35Z</time></trkpt><trkpt lat="44.67662796559461" lon="8.196196356290201"><ele>210.0</ele><time>2026-03-29T11:50:37Z</time></trkpt><trkpt lat="44.676529041931076" lon="8.1961309134027"><ele>210.0</ele><time>2026-03-29T11:50:39Z</time></trkpt><trkpt lat="44.6764439712555" lon="8.196085201068126"><ele>210.0</ele><time>2026-03-29T11:50:41Z</time></trkpt><trkpt lat="44.67638430778688" lon="8.196013735087675"><ele>210.0</ele><time>2026-03-29T11:50:43Z</time></trkpt><trkpt lat="44.676319791036" lon="8.195960940495166"><ele>210.0</ele><time>2026-03-29T11:50:45Z</time></trkpt><trkpt lat="44.676242893331164" lon="8.195903188510476"><ele>210.0</ele><time>2026-03-29T11:50:48Z</time></trkpt><trkpt lat="44.67617075828294" lon="8.19584827810854"><ele>210.0</ele><time>2026-03-29T11:50:51Z</time></trkpt><trkpt lat="44.676109408860555" lon="8.195789606569315"><ele>209.5</ele><time>2026-03-29T11:50:54Z</time></trkpt><trkpt lat="44.67603592969549" lon="8.195730481617222"><ele>209.0</ele><time>2026-03-29T11:50:57Z</time></trkpt><trkpt lat="44.675957337948766" lon="8.195683054187436"><ele>208.5</ele><time>2026-03-29T11:51:00Z</time></trkpt><trkpt lat="44.67587448561825" lon="8.195628112247896"><ele>208.0</ele><time>2026-03-29T11:51:03Z</time></trkpt><trkpt lat="44.67580357295819" lon="8.195576914014612"><ele>207.5</ele><time>2026-03-29T11:51:06Z</time></trkpt><trkpt lat="44.67573205830899" lon="8.195528113626107"><ele>207.0</ele><time>2026-03-29T11:51:09Z</time></trkpt><trkpt lat="44.67566001042758" lon="8.195476726474656"><ele>208.0</ele><time>2026-03-29T11:51:12Z</time></trkpt><trkpt lat="44.67558149275598" lon="8.195436048628975"><ele>209.0</ele><time>2026-03-29T11:51:15Z</time></trkpt><trkpt lat="44.67550677994037" lon="8.195419593005864"><ele>210.0</ele><time>2026-03-29T11:51:18Z</time></trkpt><trkpt lat="44.675440165703876" lon="8.195374227682933"><ele>211.0</ele><time>2026-03-29T11:51:21Z</time></trkpt><trkpt lat="44.675369544271206" lon="8.195331082750327"><ele>212.0</ele><time>2026-03-29T11:51:24Z</time></trkpt><trkpt lat="44.67529532217666" lon="8.19529706782161"><ele>213.0</ele><time>2026-03-29T11:51:27Z</time></trkpt><trkpt lat="44.67522610817718" lon="8.195257233467109"><ele>213.0</ele><time>2026-03-29T11:51:30Z</time></trkpt><trkpt lat="44.675147768030655" lon="8.195212398886927"><ele>213.0</ele><time>2026-03-29T11:51:33Z</time></trkpt><trkpt lat="44.67506781998703" lon="8.195177782083963"><ele>213.0</ele><time>2026-03-29T11:51:36Z</time></trkpt><trkpt lat="44.674988421845725" lon="8.195142285301158"><ele>213.0</ele><time>2026-03-29T11:51:39Z</time></trkpt><trkpt lat="44.67491030966219" lon="8.195112936872034"><ele>213.0</ele><time>2026-03-29T11:51:42Z</time></trkpt><trkpt lat="44.67483191426307" lon="8.195077303716353"><ele>213.0</ele><time>2026-03-29T11:51:44.999Z</time></trkpt><trkpt lat="44.6747541143338" lon="8.195053788921085"><ele>212.99999999999997</ele><time>2026-03-29T11:51:47.999Z</time></trkpt><trkpt lat="44.67468215502783" lon="8.19502914883225"><ele>213.0</ele><time>2026-03-29T11:51:50.999Z</time></trkpt><trkpt lat="44.674606910990335" lon="8.195006079661123"><ele>213.0</ele><time>2026-03-29T11:51:53.999Z</time></trkpt><trkpt lat="44.674534440168095" lon="8.194984357876884"><ele>213.0</ele><time>2026-03-29T11:51:56.999Z</time></trkpt><trkpt lat="44.67446134416972" lon="8.194953409906221"><ele>213.0</ele><time>2026-03-29T11:51:59.999Z</time></trkpt><trkpt lat="44.6743884105736" lon="8.194922505218234"><ele>212.99999999999997</ele><time>2026-03-29T11:52:02.999Z</time></trkpt><trkpt lat="44.67432071253733" lon="8.194895445372604"><ele>213.0</ele><time>2026-03-29T11:52:05.999Z</time></trkpt><trkpt lat="44.67424385474772" lon="8.19488949168813"><ele>212.57142857142856</ele><time>2026-03-29T11:52:08.999Z</time></trkpt><trkpt lat="44.67416878651046" lon="8.194863473682002"><ele>212.14285714285714</ele><time>2026-03-29T11:52:11.999Z</time></trkpt><trkpt lat="44.67410182509786" lon="8.194855886789554"><ele>211.71428571428572</ele><time>2026-03-29T11:52:14.999Z</time></trkpt><trkpt lat="44.67403894640036" lon="8.194826960556346"><ele>211.28571428571428</ele><time>2026-03-29T11:52:17.999Z</time></trkpt><trkpt lat="44.67397582635507" lon="8.194854361043113"><ele>210.85714285714286</ele><time>2026-03-29T11:52:29.999Z</time></trkpt><trkpt lat="44.67391103835931" lon="8.194887928684043"><ele>210.42857142857142</ele><time>2026-03-29T11:52:33Z</time></trkpt><trkpt lat="44.673859842452984" lon="8.19494158239549"><ele>210.0</ele><time>2026-03-29T11:52:37Z</time></trkpt><trkpt lat="44.67381300020897" lon="8.195015604976962"><ele>210.0</ele><time>2026-03-29T11:52:41Z</time></trkpt><trkpt lat="44.67376400268396" lon="8.195093784217926"><ele>210.0</ele><time>2026-03-29T11:52:46Z</time></trkpt><trkpt lat="44.67372673445937" lon="8.195167692446896"><ele>210.0</ele><time>2026-03-29T11:52:50Z</time></trkpt><trkpt lat="44.67368081782375" lon="8.195252335183637"><ele>210.0</ele><time>2026-03-29T11:52:54Z</time></trkpt><trkpt lat="44.67364850409496" lon="8.195329965925215"><ele>210.0</ele><time>2026-03-29T11:52:57Z</time></trkpt><trkpt lat="44.673615738466076" lon="8.195413522986298"><ele>210.0</ele><time>2026-03-29T11:53:00Z</time></trkpt><trkpt lat="44.673576478276345" lon="8.195490953984063"><ele>210.0</ele><time>2026-03-29T11:53:03Z</time></trkpt><trkpt lat="44.673527659342874" lon="8.195579538747522"><ele>210.16666666666666</ele><time>2026-03-29T11:53:07Z</time></trkpt><trkpt lat="44.6735078636459" lon="8.1956855975481"><ele>210.33333333333331</ele><time>2026-03-29T11:53:11Z</time></trkpt><trkpt lat="44.673469455800905" lon="8.195773803099158"><ele>210.5</ele><time>2026-03-29T11:53:15Z</time></trkpt><trkpt lat="44.673434922619826" lon="8.195864026641416"><ele>210.66666666666666</ele><time>2026-03-29T11:53:19Z</time></trkpt><trkpt lat="44.673393913150406" lon="8.195953045025645"><ele>210.83333333333331</ele><time>2026-03-29T11:53:23Z</time></trkpt><trkpt lat="44.67335414520568" lon="8.196046215071373"><ele>211.0</ele><time>2026-03-29T11:53:27Z</time></trkpt><trkpt lat="44.67330477893178" lon="8.196144189187178"><ele>211.0</ele><time>2026-03-29T11:53:31Z</time></trkpt><trkpt lat="44.67326932572591" lon="8.196230403400934"><ele>211.0</ele><time>2026-03-29T11:53:34Z</time></trkpt><trkpt lat="44.67322013723051" lon="8.196334609010444"><ele>211.0</ele><time>2026-03-29T11:53:37Z</time></trkpt><trkpt lat="44.673198075730554" lon="8.196433768605955"><ele>211.0</ele><time>2026-03-29T11:53:41Z</time></trkpt><trkpt lat="44.673147257054204" lon="8.196506867531966"><ele>211.0</ele><time>2026-03-29T11:53:45Z</time></trkpt><trkpt lat="44.67311257008705" lon="8.196587282241982"><ele>211.0</ele><time>2026-03-29T11:53:47.999Z</time></trkpt><trkpt lat="44.67307379791992" lon="8.196657837348408"><ele>211.0</ele><time>2026-03-29T11:53:50.999Z</time></trkpt><trkpt lat="44.67303612568017" lon="8.196737324209664"><ele>211.42857142857144</ele><time>2026-03-29T11:53:53.999Z</time></trkpt><trkpt lat="44.67299245235187" lon="8.196835678431295"><ele>211.85714285714286</ele><time>2026-03-29T11:53:57.999Z</time></trkpt><trkpt lat="44.672954666936505" lon="8.19691219515141"><ele>212.28571428571428</ele><time>2026-03-29T11:54:00.999Z</time></trkpt><trkpt lat="44.672903707519566" lon="8.197000497357163"><ele>212.71428571428572</ele><time>2026-03-29T11:54:04.999Z</time></trkpt><trkpt lat="44.67286718816065" lon="8.19708266393691"><ele>213.14285714285714</ele><time>2026-03-29T11:54:07.999Z</time></trkpt><trkpt lat="44.67283004894179" lon="8.19716147738408"><ele>213.57142857142858</ele><time>2026-03-29T11:54:10.999Z</time></trkpt><trkpt lat="44.672784087995524" lon="8.197258655078242"><ele>214.0</ele><time>2026-03-29T11:54:14.999Z</time></trkpt><trkpt lat="44.67273823673854" lon="8.197353547945779"><ele>214.2857142857143</ele><time>2026-03-29T11:54:18.999Z</time></trkpt><trkpt lat="44.67268575344487" lon="8.197420294506086"><ele>214.57142857142858</ele><time>2026-03-29T11:54:21.999Z</time></trkpt><trkpt lat="44.67263360596942" lon="8.197473279164818"><ele>214.85714285714286</ele><time>2026-03-29T11:54:23.999Z</time></trkpt><trkpt lat="44.672569749359305" lon="8.197563965067134"><ele>215.14285714285717</ele><time>2026-03-29T11:54:25.999Z</time></trkpt><trkpt lat="44.67254932676872" lon="8.19766138104614"><ele>215.42857142857142</ele><time>2026-03-29T11:54:28.999Z</time></trkpt><trkpt lat="44.67248779751336" lon="8.197709804961253"><ele>215.71428571428572</ele><time>2026-03-29T11:55:12Z</time></trkpt><trkpt lat="44.672429236439086" lon="8.197761400814839"><ele>216.0</ele><time>2026-03-29T11:56:09.999Z</time></trkpt><trkpt lat="44.67236225755318" lon="8.197802428238091"><ele>216.0</ele><time>2026-03-29T11:56:22.999Z</time></trkpt><trkpt lat="44.672293690861395" lon="8.197824125011081"><ele>216.0</ele><time>2026-03-29T11:56:25.999Z</time></trkpt><trkpt lat="44.67223205146305" lon="8.197844212887615"><ele>216.0</ele><time>2026-03-29T11:56:28.999Z</time></trkpt><trkpt lat="44.672149738581616" lon="8.197863379444373"><ele>216.0</ele><time>2026-03-29T11:56:31.999Z</time></trkpt><trkpt lat="44.67206397916551" lon="8.197859950144972"><ele>216.0</ele><time>2026-03-29T11:56:34.999Z</time></trkpt><trkpt lat="44.67198167484971" lon="8.197862892026405"><ele>216.0</ele><time>2026-03-29T11:56:37.999Z</time></trkpt><trkpt lat="44.67191485859647" lon="8.197859913380066"><ele>216.14285714285714</ele><time>2026-03-29T11:56:40.999Z</time></trkpt><trkpt lat="44.671851482547176" lon="8.19786081731127"><ele>216.28571428571428</ele><time>2026-03-29T11:56:43.999Z</time></trkpt><trkpt lat="44.671788026057285" lon="8.197855883636844"><ele>216.42857142857144</ele><time>2026-03-29T11:56:47Z</time></trkpt><trkpt lat="44.671722706451035" lon="8.197844909198068"><ele>216.57142857142856</ele><time>2026-03-29T11:56:50Z</time></trkpt><trkpt lat="44.67164119072337" lon="8.197853243284014"><ele>216.71428571428572</ele><time>2026-03-29T11:56:54Z</time></trkpt><trkpt lat="44.671577664058795" lon="8.197861176647557"><ele>216.85714285714286</ele><time>2026-03-29T11:56:57Z</time></trkpt><trkpt lat="44.67150881074297" lon="8.197868499895442"><ele>217.0</ele><time>2026-03-29T11:57:00Z</time></trkpt><trkpt lat="44.671438251524194" lon="8.197868280903549"><ele>216.99999999999997</ele><time>2026-03-29T11:57:04Z</time></trkpt><trkpt lat="44.67135846825688" lon="8.19787892724254"><ele>217.0</ele><time>2026-03-29T11:57:08Z</time></trkpt><trkpt lat="44.6712896634698" lon="8.197895121049163"><ele>217.0</ele><time>2026-03-29T11:57:11Z</time></trkpt><trkpt lat="44.67121508005883" lon="8.197914399323299"><ele>217.0</ele><time>2026-03-29T11:57:14Z</time></trkpt><trkpt lat="44.671145753276186" lon="8.197930345635786"><ele>216.99999999999997</ele><time>2026-03-29T11:57:17Z</time></trkpt><trkpt lat="44.67106504069452" lon="8.197942324210105"><ele>217.0</ele><time>2026-03-29T11:57:20Z</time></trkpt><trkpt lat="44.67098251035366" lon="8.197936175915006"><ele>217.0</ele><time>2026-03-29T11:57:23Z</time></trkpt><trkpt lat="44.67091979535579" lon="8.197914407910627"><ele>217.0</ele><time>2026-03-29T11:57:25Z</time></trkpt><trkpt lat="44.67083366636647" lon="8.197868117565307"><ele>217.0</ele><time>2026-03-29T11:57:28Z</time></trkpt><trkpt lat="44.67076242157107" lon="8.197838917407925"><ele>217.0</ele><time>2026-03-29T11:57:31Z</time></trkpt><trkpt lat="44.670697486000265" lon="8.197814987190288"><ele>217.0</ele><time>2026-03-29T11:57:34Z</time></trkpt><trkpt lat="44.670643252509905" lon="8.197764643884405"><ele>217.0</ele><time>2026-03-29T11:57:48.999Z</time></trkpt><trkpt lat="44.67058951561814" lon="8.197701872851669"><ele>217.0</ele><time>2026-03-29T11:58:55Z</time></trkpt><trkpt lat="44.670545066879896" lon="8.197622884207265"><ele>217.0</ele><time>2026-03-29T12:00:01.999Z</time></trkpt><trkpt lat="44.670491045206425" lon="8.197559158152531"><ele>217.0</ele><time>2026-03-29T12:00:05.999Z</time></trkpt><trkpt lat="44.67043759108046" lon="8.19750529372303"><ele>217.0</ele><time>2026-03-29T12:00:08.999Z</time></trkpt><trkpt lat="44.67037940873544" lon="8.197434880056434"><ele>217.0</ele><time>2026-03-29T12:00:12.999Z</time></trkpt><trkpt lat="44.6703275522169" lon="8.197381939661106"><ele>217.0</ele><time>2026-03-29T12:00:15.999Z</time></trkpt><trkpt lat="44.67026778532606" lon="8.197316839235365"><ele>217.0</ele><time>2026-03-29T12:00:19.999Z</time></trkpt><trkpt lat="44.67021528986101" lon="8.197260699630947"><ele>217.0</ele><time>2026-03-29T12:00:22.999Z</time></trkpt><trkpt lat="44.67016067928801" lon="8.197200785812381"><ele>217.0</ele><time>2026-03-29T12:00:25.999Z</time></trkpt><trkpt lat="44.67011795610068" lon="8.197119487136604"><ele>217.0</ele><time>2026-03-29T12:00:28.999Z</time></trkpt><trkpt lat="44.670061758436525" lon="8.197043741397325"><ele>217.0</ele><time>2026-03-29T12:00:31.999Z</time></trkpt><trkpt lat="44.670012579908985" lon="8.196978024518414"><ele>217.0</ele><time>2026-03-29T12:00:34.999Z</time></trkpt><trkpt lat="44.669961538739805" lon="8.196914529036551"><ele>217.0</ele><time>2026-03-29T12:00:37.999Z</time></trkpt><trkpt lat="44.66990322257294" lon="8.196852373834771"><ele>217.0</ele><time>2026-03-29T12:00:40.999Z</time></trkpt><trkpt lat="44.66984880041854" lon="8.19678440045997"><ele>217.0</ele><time>2026-03-29T12:00:43.999Z</time></trkpt><trkpt lat="44.6697995660589" lon="8.196719763115278"><ele>217.0</ele><time>2026-03-29T12:00:46.999Z</time></trkpt><trkpt lat="44.66974169224725" lon="8.196649828566247"><ele>217.0</ele><time>2026-03-29T12:00:49.999Z</time></trkpt><trkpt lat="44.66968360295681" lon="8.196582894451156"><ele>217.0</ele><time>2026-03-29T12:00:52.999Z</time></trkpt><trkpt lat="44.669625505568085" lon="8.196527506369106"><ele>217.0</ele><time>2026-03-29T12:00:55.999Z</time></trkpt><trkpt lat="44.66956038919014" lon="8.196465172184652"><ele>217.0</ele><time>2026-03-29T12:00:58.999Z</time></trkpt><trkpt lat="44.66950363852917" lon="8.196403190926"><ele>217.0</ele><time>2026-03-29T12:01:01.999Z</time></trkpt><trkpt lat="44.66945149606654" lon="8.196342599300333"><ele>217.0</ele><time>2026-03-29T12:01:04.999Z</time></trkpt><trkpt lat="44.66939848166894" lon="8.196277369738597"><ele>217.28571428571428</ele><time>2026-03-29T12:01:07.999Z</time></trkpt><trkpt lat="44.66934687478083" lon="8.196209750915752"><ele>217.57142857142856</ele><time>2026-03-29T12:01:10.999Z</time></trkpt><trkpt lat="44.66929323023865" lon="8.19614872510381"><ele>217.85714285714286</ele><time>2026-03-29T12:01:13.999Z</time></trkpt><trkpt lat="44.66923656308881" lon="8.196094660940894"><ele>218.14285714285714</ele><time>2026-03-29T12:01:16.999Z</time></trkpt><trkpt lat="44.66917634524901" lon="8.19604531705013"><ele>218.42857142857142</ele><time>2026-03-29T12:01:19.999Z</time></trkpt><trkpt lat="44.669114488094245" lon="8.196005131507667"><ele>218.71428571428572</ele><time>2026-03-29T12:01:22.999Z</time></trkpt><trkpt lat="44.66904957324743" lon="8.195969432193234"><ele>219.0</ele><time>2026-03-29T12:01:25.999Z</time></trkpt><trkpt lat="44.66897787371641" lon="8.195928210792177"><ele>219.0</ele><time>2026-03-29T12:01:28.999Z</time></trkpt><trkpt lat="44.668919712331444" lon="8.195873385934412"><ele>219.0</ele><time>2026-03-29T12:01:31.999Z</time></trkpt><trkpt lat="44.66886161737232" lon="8.195802237935142"><ele>219.0</ele><time>2026-03-29T12:01:34.999Z</time></trkpt><trkpt lat="44.66879526872703" lon="8.19574019818864"><ele>219.0</ele><time>2026-03-29T12:01:37.999Z</time></trkpt><trkpt lat="44.66872113879029" lon="8.195691869757972"><ele>219.0</ele><time>2026-03-29T12:01:40.999Z</time></trkpt><trkpt lat="44.66866027029515" lon="8.19565706114049"><ele>219.0</ele><time>2026-03-29T12:01:43.999Z</time></trkpt><trkpt lat="44.66859142120242" lon="8.19562124124664"><ele>219.0</ele><time>2026-03-29T12:01:46.999Z</time></trkpt><trkpt lat="44.66852642116708" lon="8.19561267935436"><ele>219.33333333333334</ele><time>2026-03-29T12:01:50.999Z</time></trkpt><trkpt lat="44.66845982041418" lon="8.195629919246205"><ele>219.66666666666669</ele><time>2026-03-29T12:01:55.999Z</time></trkpt><trkpt lat="44.66835072688308" lon="8.195557787347182"><ele>220.0</ele><time>2026-03-29T12:05:48.999Z</time></trkpt><trkpt lat="44.668286051762024" lon="8.195490663834285"><ele>220.33333333333334</ele><time>2026-03-29T12:05:52.999Z</time></trkpt><trkpt lat="44.66823057190031" lon="8.195444493439863"><ele>220.66666666666669</ele><time>2026-03-29T12:05:55.999Z</time></trkpt><trkpt lat="44.66816877113579" lon="8.195386926166796"><ele>221.0</ele><time>2026-03-29T12:05:58.999Z</time></trkpt><trkpt lat="44.66809456978651" lon="8.195333552967718"><ele>221.00000000000003</ele><time>2026-03-29T12:06:02.999Z</time></trkpt><trkpt lat="44.66802729997689" lon="8.195290750028137"><ele>221.0</ele><time>2026-03-29T12:06:06.999Z</time></trkpt><trkpt lat="44.66797023157457" lon="8.195225327752828"><ele>221.0</ele><time>2026-03-29T12:06:10.999Z</time></trkpt><trkpt lat="44.667915254218286" lon="8.195162055063943"><ele>221.0</ele><time>2026-03-29T12:06:14.999Z</time></trkpt><trkpt lat="44.667861234375216" lon="8.195097454212569"><ele>221.0</ele><time>2026-03-29T12:06:17.999Z</time></trkpt><trkpt lat="44.66779742785489" lon="8.19503569847264"><ele>221.00000000000003</ele><time>2026-03-29T12:06:21.999Z</time></trkpt><trkpt lat="44.66774104487827" lon="8.194985978127008"><ele>221.0</ele><time>2026-03-29T12:06:24.999Z</time></trkpt><trkpt lat="44.66768313053308" lon="8.194935090200993"><ele>221.14285714285717</ele><time>2026-03-29T12:06:27.999Z</time></trkpt><trkpt lat="44.667608542641986" lon="8.194877801978697"><ele>221.28571428571428</ele><time>2026-03-29T12:06:31.999Z</time></trkpt><trkpt lat="44.66754654592335" lon="8.194834683518607"><ele>221.42857142857144</ele><time>2026-03-29T12:06:34.999Z</time></trkpt><trkpt lat="44.66747327953808" lon="8.19478038877064"><ele>221.57142857142858</ele><time>2026-03-29T12:06:38.999Z</time></trkpt><trkpt lat="44.66741986261103" lon="8.194724953081678"><ele>221.71428571428572</ele><time>2026-03-29T12:06:41.999Z</time></trkpt><trkpt lat="44.667364457373964" lon="8.194668188181279"><ele>221.85714285714286</ele><time>2026-03-29T12:06:44.999Z</time></trkpt><trkpt lat="44.667304145354926" lon="8.194617632080494"><ele>222.0</ele><time>2026-03-29T12:06:48.999Z</time></trkpt><trkpt lat="44.667247407077845" lon="8.194567751233997"><ele>222.0</ele><time>2026-03-29T12:06:51.999Z</time></trkpt><trkpt lat="44.66718048478087" lon="8.194503170289703"><ele>222.0</ele><time>2026-03-29T12:06:55.999Z</time></trkpt><trkpt lat="44.66712024059098" lon="8.194432622177866"><ele>222.0</ele><time>2026-03-29T12:06:59.999Z</time></trkpt><trkpt lat="44.667067593958095" lon="8.194383276343837"><ele>222.0</ele><time>2026-03-29T12:07:02.999Z</time></trkpt><trkpt lat="44.66701161213755" lon="8.194342531852326"><ele>222.0</ele><time>2026-03-29T12:07:05.999Z</time></trkpt><trkpt lat="44.666963525034944" lon="8.194279590062342"><ele>222.0</ele><time>2026-03-29T12:07:08.999Z</time></trkpt><trkpt lat="44.66690628384261" lon="8.194221466115865"><ele>222.0</ele><time>2026-03-29T12:07:11.999Z</time></trkpt><trkpt lat="44.66683910250695" lon="8.19417540558795"><ele>222.0</ele><time>2026-03-29T12:07:15Z</time></trkpt><trkpt lat="44.666774699070665" lon="8.194117695609235"><ele>222.0</ele><time>2026-03-29T12:07:18Z</time></trkpt><trkpt lat="44.66670769481349" lon="8.194062206047267"><ele>222.0</ele><time>2026-03-29T12:07:21Z</time></trkpt><trkpt lat="44.66664197279118" lon="8.194011055494489"><ele>222.0</ele><time>2026-03-29T12:07:24Z</time></trkpt><trkpt lat="44.66657288032168" lon="8.19395664954478"><ele>222.0</ele><time>2026-03-29T12:07:27Z</time></trkpt><trkpt lat="44.66649350317673" lon="8.193899819312218"><ele>222.0</ele><time>2026-03-29T12:07:30Z</time></trkpt><trkpt lat="44.66642077427548" lon="8.19385277606254"><ele>222.14285714285714</ele><time>2026-03-29T12:07:33Z</time></trkpt><trkpt lat="44.66634472720968" lon="8.193808212802653"><ele>222.2857142857143</ele><time>2026-03-29T12:07:37Z</time></trkpt><trkpt lat="44.666285580875986" lon="8.193769713295104"><ele>222.42857142857144</ele><time>2026-03-29T12:07:40Z</time></trkpt><trkpt lat="44.66623322477775" lon="8.193719108418964"><ele>222.57142857142856</ele><time>2026-03-29T12:07:43Z</time></trkpt><trkpt lat="44.66618092045608" lon="8.19366227151912"><ele>222.71428571428572</ele><time>2026-03-29T12:07:45.999Z</time></trkpt><trkpt lat="44.666125786534636" lon="8.193559563771483"><ele>222.85714285714286</ele><time>2026-03-29T12:07:49.999Z</time></trkpt><trkpt lat="44.66609906858954" lon="8.193474273283798"><ele>223.0</ele><time>2026-03-29T12:07:52.999Z</time></trkpt><trkpt lat="44.66603337817517" lon="8.193403535565299"><ele>223.16666666666666</ele><time>2026-03-29T12:07:55.999Z</time></trkpt><trkpt lat="44.66596567471506" lon="8.193351936467046"><ele>223.33333333333331</ele><time>2026-03-29T12:07:59.999Z</time></trkpt><trkpt lat="44.66590837364255" lon="8.193308971365358"><ele>223.5</ele><time>2026-03-29T12:08:02.999Z</time></trkpt><trkpt lat="44.66583562775081" lon="8.193247700674288"><ele>223.66666666666669</ele><time>2026-03-29T12:08:06.999Z</time></trkpt><trkpt lat="44.665761459385784" lon="8.193207139417998"><ele>223.83333333333334</ele><time>2026-03-29T12:08:10.999Z</time></trkpt><trkpt lat="44.66568701154695" lon="8.193239332428192"><ele>224.0</ele><time>2026-03-29T12:08:14.999Z</time></trkpt><trkpt lat="44.665613597340645" lon="8.193256870159223"><ele>224.00000000000003</ele><time>2026-03-29T12:08:18.999Z</time></trkpt><trkpt lat="44.66553534165559" lon="8.193225731978565"><ele>224.0</ele><time>2026-03-29T12:08:22.999Z</time></trkpt><trkpt lat="44.66547056675314" lon="8.193202142612577"><ele>224.0</ele><time>2026-03-29T12:08:26.999Z</time></trkpt><trkpt lat="44.66540444886346" lon="8.193160742613054"><ele>224.0</ele><time>2026-03-29T12:08:30.999Z</time></trkpt><trkpt lat="44.66532241431465" lon="8.193066104768636"><ele>224.00000000000003</ele><time>2026-03-29T12:08:34.999Z</time></trkpt><trkpt lat="44.665248095764305" lon="8.192981017986051"><ele>224.0</ele><time>2026-03-29T12:08:36.999Z</time></trkpt><trkpt lat="44.665148230119556" lon="8.192887237969929"><ele>224.83333333333334</ele><time>2026-03-29T12:08:38.999Z</time></trkpt><trkpt lat="44.665065001445676" lon="8.19283148157879"><ele>225.66666666666669</ele><time>2026-03-29T12:08:40.999Z</time></trkpt><trkpt lat="44.664993559306474" lon="8.192800449454467"><ele>226.5</ele><time>2026-03-29T12:08:42.999Z</time></trkpt><trkpt lat="44.664937563479704" lon="8.19274999573834"><ele>227.33333333333331</ele><time>2026-03-29T12:08:44.999Z</time></trkpt><trkpt lat="44.66485993212259" lon="8.1926846231697"><ele>228.16666666666666</ele><time>2026-03-29T12:08:47.999Z</time></trkpt><trkpt lat="44.664783891897244" lon="8.19264427980315"><ele>229.0</ele><time>2026-03-29T12:08:50.999Z</time></trkpt><trkpt lat="44.6647059825464" lon="8.192582838833282"><ele>228.99999999999997</ele><time>2026-03-29T12:08:53.999Z</time></trkpt><trkpt lat="44.66462965307289" lon="8.192538404441116"><ele>229.0</ele><time>2026-03-29T12:08:56.999Z</time></trkpt><trkpt lat="44.66456040978549" lon="8.192505951074745"><ele>229.0</ele><time>2026-03-29T12:08:59.999Z</time></trkpt><trkpt lat="44.66447770784486" lon="8.192477095416738"><ele>229.0</ele><time>2026-03-29T12:09:02.999Z</time></trkpt><trkpt lat="44.664407984696396" lon="8.192432402081941"><ele>228.99999999999997</ele><time>2026-03-29T12:09:05.999Z</time></trkpt><trkpt lat="44.66433551035853" lon="8.192352395013739"><ele>229.0</ele><time>2026-03-29T12:09:08.999Z</time></trkpt><trkpt lat="44.66425380420126" lon="8.192299388729467"><ele>230.16666666666666</ele><time>2026-03-29T12:09:11.999Z</time></trkpt><trkpt lat="44.66417397252082" lon="8.192250834357694"><ele>231.33333333333331</ele><time>2026-03-29T12:09:14.999Z</time></trkpt><trkpt lat="44.66411441018314" lon="8.19221485008433"><ele>232.5</ele><time>2026-03-29T12:09:16.999Z</time></trkpt><trkpt lat="44.66403694619202" lon="8.192168510597726"><ele>233.66666666666669</ele><time>2026-03-29T12:09:19.999Z</time></trkpt><trkpt lat="44.663963738552255" lon="8.192124917310553"><ele>234.83333333333334</ele><time>2026-03-29T12:09:23Z</time></trkpt><trkpt lat="44.66389511284878" lon="8.192092927038903"><ele>236.0</ele><time>2026-03-29T12:09:26Z</time></trkpt><trkpt lat="44.663824383240154" lon="8.192060757217087"><ele>236.0</ele><time>2026-03-29T12:09:49Z</time></trkpt><trkpt lat="44.66376498930077" lon="8.192026334195214"><ele>236.0</ele><time>2026-03-29T12:09:52Z</time></trkpt><trkpt lat="44.66370590135439" lon="8.19199311319323"><ele>236.0</ele><time>2026-03-29T12:09:55Z</time></trkpt><trkpt lat="44.66362933998917" lon="8.191952477587648"><ele>236.0</ele><time>2026-03-29T12:09:59Z</time></trkpt><trkpt lat="44.663547988492894" lon="8.19191597953436"><ele>236.0</ele><time>2026-03-29T12:10:02.999Z</time></trkpt><trkpt lat="44.66347089301852" lon="8.191881434132691"><ele>236.0</ele><time>2026-03-29T12:10:06.999Z</time></trkpt><trkpt lat="44.663411708457346" lon="8.191846786130036"><ele>236.0</ele><time>2026-03-29T12:10:09.999Z</time></trkpt><trkpt lat="44.663348128779745" lon="8.191815768310112"><ele>235.0</ele><time>2026-03-29T12:10:12.999Z</time></trkpt><trkpt lat="44.66327673887469" lon="8.191786863599566"><ele>234.0</ele><time>2026-03-29T12:10:15.999Z</time></trkpt><trkpt lat="44.663205483309575" lon="8.191767771248939"><ele>233.0</ele><time>2026-03-29T12:10:18.999Z</time></trkpt><trkpt lat="44.6631383156031" lon="8.19174104165156"><ele>232.0</ele><time>2026-03-29T12:10:21.999Z</time></trkpt><trkpt lat="44.663074600013694" lon="8.191718849508593"><ele>231.0</ele><time>2026-03-29T12:10:24.999Z</time></trkpt><trkpt lat="44.662996329176615" lon="8.191685549370531"><ele>230.0</ele><time>2026-03-29T12:10:28.999Z</time></trkpt><trkpt lat="44.66292836689233" lon="8.191666536559273"><ele>229.0</ele><time>2026-03-29T12:10:31.999Z</time></trkpt><trkpt lat="44.66285224492214" lon="8.191639144191512"><ele>228.66666666666666</ele><time>2026-03-29T12:10:35.999Z</time></trkpt><trkpt lat="44.662780065392774" lon="8.19162466971362"><ele>228.33333333333331</ele><time>2026-03-29T12:10:39.999Z</time></trkpt><trkpt lat="44.66271329363806" lon="8.191606197907571"><ele>228.0</ele><time>2026-03-29T12:10:42.999Z</time></trkpt><trkpt lat="44.66263267999199" lon="8.191592511107132"><ele>227.66666666666669</ele><time>2026-03-29T12:10:46.999Z</time></trkpt><trkpt lat="44.66255870839188" lon="8.191590135827344"><ele>227.33333333333334</ele><time>2026-03-29T12:10:50.999Z</time></trkpt><trkpt lat="44.662480536963635" lon="8.191575134578482"><ele>227.0</ele><time>2026-03-29T12:10:54.999Z</time></trkpt><trkpt lat="44.66240218107525" lon="8.191567513088374"><ele>227.0</ele><time>2026-03-29T12:10:58.999Z</time></trkpt><trkpt lat="44.66233588697335" lon="8.191589520343035"><ele>227.00000000000003</ele><time>2026-03-29T12:11:02.999Z</time></trkpt><trkpt lat="44.66226795018402" lon="8.191625757049254"><ele>227.0</ele><time>2026-03-29T12:11:07.999Z</time></trkpt><trkpt lat="44.662202981120025" lon="8.19166749977344"><ele>227.0</ele><time>2026-03-29T12:11:12.999Z</time></trkpt><trkpt lat="44.6621789636854" lon="8.191774910989016"><ele>227.00000000000003</ele><time>2026-03-29T12:11:16.999Z</time></trkpt><trkpt lat="44.66220871695246" lon="8.191695031178266"><ele>227.0</ele><time>2026-03-29T12:11:23.999Z</time></trkpt><trkpt lat="44.66222747422762" lon="8.191780416700995"><ele>227.0</ele><time>2026-03-29T12:11:28Z</time></trkpt><trkpt lat="44.66221481038947" lon="8.191689803399083"><ele>227.0</ele><time>2026-03-29T12:11:34Z</time></trkpt><trkpt lat="44.662151715991804" lon="8.191699279142338"><ele>227.00000000000003</ele><time>2026-03-29T12:11:39Z</time></trkpt><trkpt lat="44.66207673145265" lon="8.191717501316434"><ele>227.0</ele><time>2026-03-29T12:11:44Z</time></trkpt><trkpt lat="44.66200939151841" lon="8.191733977981336"><ele>227.0</ele><time>2026-03-29T12:11:48Z</time></trkpt><trkpt lat="44.66192852556063" lon="8.191719344860166"><ele>227.00000000000003</ele><time>2026-03-29T12:11:52Z</time></trkpt><trkpt lat="44.661853902611576" lon="8.19170636393749"><ele>227.0</ele><time>2026-03-29T12:11:56Z</time></trkpt><trkpt lat="44.66177500359707" lon="8.191702036930161"><ele>227.0</ele><time>2026-03-29T12:12:00Z</time></trkpt><trkpt lat="44.6617105718218" lon="8.191706846490568"><ele>227.14285714285717</ele><time>2026-03-29T12:12:03Z</time></trkpt><trkpt lat="44.66162948201406" lon="8.191715686514105"><ele>227.2857142857143</ele><time>2026-03-29T12:12:07Z</time></trkpt><trkpt lat="44.661565245915625" lon="8.191719624646575"><ele>227.42857142857144</ele><time>2026-03-29T12:12:09.999Z</time></trkpt><trkpt lat="44.661498770961096" lon="8.191720330120353"><ele>227.57142857142856</ele><time>2026-03-29T12:12:12.999Z</time></trkpt><trkpt lat="44.66141923647479" lon="8.191741331652494"><ele>227.7142857142857</ele><time>2026-03-29T12:12:16.999Z</time></trkpt><trkpt lat="44.66133735699595" lon="8.191742945007393"><ele>227.85714285714283</ele><time>2026-03-29T12:12:20.999Z</time></trkpt><trkpt lat="44.66127193303105" lon="8.191743641344319"><ele>228.0</ele><time>2026-03-29T12:12:23.999Z</time></trkpt><trkpt lat="44.66119087356648" lon="8.191747789056631"><ele>228.0</ele><time>2026-03-29T12:12:27.999Z</time></trkpt><trkpt lat="44.6611274476935" lon="8.191768303705334"><ele>227.99999999999997</ele><time>2026-03-29T12:12:30.999Z</time></trkpt><trkpt lat="44.66105079956217" lon="8.191781661444724"><ele>228.0</ele><time>2026-03-29T12:12:34.999Z</time></trkpt><trkpt lat="44.66098021376109" lon="8.191796422071452"><ele>228.0</ele><time>2026-03-29T12:12:38.999Z</time></trkpt><trkpt lat="44.660900927698435" lon="8.191825127750834"><ele>227.99999999999997</ele><time>2026-03-29T12:12:42.999Z</time></trkpt><trkpt lat="44.66083523545244" lon="8.191827581249349"><ele>228.0</ele><time>2026-03-29T12:12:45.999Z</time></trkpt><trkpt lat="44.660767774766086" lon="8.191829596207212"><ele>228.0</ele><time>2026-03-29T12:12:48.999Z</time></trkpt><trkpt lat="44.66068837359902" lon="8.191856023052827"><ele>227.85714285714283</ele><time>2026-03-29T12:12:52.999Z</time></trkpt><trkpt lat="44.66062609726674" lon="8.191883800618214"><ele>227.7142857142857</ele><time>2026-03-29T12:12:55.999Z</time></trkpt><trkpt lat="44.66055615347041" lon="8.191906528219834"><ele>227.57142857142856</ele><time>2026-03-29T12:12:58.999Z</time></trkpt><trkpt lat="44.66047345697295" lon="8.191921643042326"><ele>227.42857142857144</ele><time>2026-03-29T12:13:01.999Z</time></trkpt><trkpt lat="44.66040254266974" lon="8.191945988347682"><ele>227.2857142857143</ele><time>2026-03-29T12:13:04.999Z</time></trkpt><trkpt lat="44.66032899619558" lon="8.1919615397568"><ele>227.14285714285717</ele><time>2026-03-29T12:13:07.999Z</time></trkpt><trkpt lat="44.660254686192246" lon="8.191952726188752"><ele>227.0</ele><time>2026-03-29T12:13:10.999Z</time></trkpt><trkpt lat="44.66018564908536" lon="8.191934862165354"><ele>227.50000000000003</ele><time>2026-03-29T12:13:13.999Z</time></trkpt><trkpt lat="44.660105493025185" lon="8.191915503467921"><ele>228.0</ele><time>2026-03-29T12:13:16.999Z</time></trkpt><trkpt lat="44.66002728610853" lon="8.191896003170324"><ele>228.5</ele><time>2026-03-29T12:13:19.999Z</time></trkpt><trkpt lat="44.65994905257798" lon="8.191886129734302"><ele>229.0</ele><time>2026-03-29T12:13:22.999Z</time></trkpt><trkpt lat="44.65986270694308" lon="8.191877133978762"><ele>229.50000000000003</ele><time>2026-03-29T12:13:25.999Z</time></trkpt><trkpt lat="44.65977601335433" lon="8.191874991406248"><ele>230.0</ele><time>2026-03-29T12:13:28.999Z</time></trkpt><trkpt lat="44.65968906225995" lon="8.19188711274576"><ele>229.99999999999997</ele><time>2026-03-29T12:13:31.999Z</time></trkpt><trkpt lat="44.65961849189369" lon="8.191896348012527"><ele>230.0</ele><time>2026-03-29T12:13:35Z</time></trkpt><trkpt lat="44.65955298838907" lon="8.191892756980218"><ele>229.99999999999997</ele><time>2026-03-29T12:13:38Z</time></trkpt><trkpt lat="44.65948843217949" lon="8.191881644812705"><ele>229.99999999999997</ele><time>2026-03-29T12:13:40Z</time></trkpt><trkpt lat="44.65941494555733" lon="8.191886827591212"><ele>230.0</ele><time>2026-03-29T12:13:43Z</time></trkpt><trkpt lat="44.65932882413181" lon="8.191877131360624"><ele>229.99999999999997</ele><time>2026-03-29T12:13:46Z</time></trkpt><trkpt lat="44.65924379621235" lon="8.191883915213397"><ele>229.99999999999997</ele><time>2026-03-29T12:13:49Z</time></trkpt><trkpt lat="44.65917203183907" lon="8.191879118473883"><ele>230.00000000000003</ele><time>2026-03-29T12:13:52Z</time></trkpt><trkpt lat="44.65910346145774" lon="8.191880437425368"><ele>230.0</ele><time>2026-03-29T12:13:55Z</time></trkpt><trkpt lat="44.659024312279406" lon="8.191876502985572"><ele>230.0</ele><time>2026-03-29T12:13:58Z</time></trkpt><trkpt lat="44.65893555842624" lon="8.191878813035819"><ele>230.0</ele><time>2026-03-29T12:14:01Z</time></trkpt><trkpt lat="44.658860246604945" lon="8.191869167831225"><ele>230.00000000000003</ele><time>2026-03-29T12:14:04Z</time></trkpt><trkpt lat="44.65878587097879" lon="8.19185622935545"><ele>230.0</ele><time>2026-03-29T12:14:07Z</time></trkpt><trkpt lat="44.658702489515" lon="8.191856719788273"><ele>230.50000000000003</ele><time>2026-03-29T12:14:10Z</time></trkpt><trkpt lat="44.65861473008212" lon="8.191866121868642"><ele>231.0</ele><time>2026-03-29T12:14:13Z</time></trkpt><trkpt lat="44.658551946834855" lon="8.191858459685761"><ele>231.5</ele><time>2026-03-29T12:14:15Z</time></trkpt><trkpt lat="44.65845897320441" lon="8.191858558220273"><ele>232.0</ele><time>2026-03-29T12:14:17.999Z</time></trkpt><trkpt lat="44.65837331528437" lon="8.191850772021763"><ele>232.50000000000003</ele><time>2026-03-29T12:14:20.999Z</time></trkpt><trkpt lat="44.65828049430308" lon="8.191851247507918"><ele>233.0</ele><time>2026-03-29T12:14:23.999Z</time></trkpt><trkpt lat="44.65818662006143" lon="8.191851986070374"><ele>233.00000000000003</ele><time>2026-03-29T12:14:26.999Z</time></trkpt><trkpt lat="44.65809377613538" lon="8.191851775192891"><ele>233.0</ele><time>2026-03-29T12:14:29.999Z</time></trkpt><trkpt lat="44.65802665392337" lon="8.191847590984676"><ele>233.0</ele><time>2026-03-29T12:14:31.999Z</time></trkpt><trkpt lat="44.6579590638168" lon="8.191837538567743"><ele>233.0</ele><time>2026-03-29T12:14:33.999Z</time></trkpt><trkpt lat="44.65789404753151" lon="8.191827449311697"><ele>233.00000000000003</ele><time>2026-03-29T12:14:35.999Z</time></trkpt><trkpt lat="44.657796893508745" lon="8.191775747655234"><ele>233.0</ele><time>2026-03-29T12:14:38.999Z</time></trkpt><trkpt lat="44.657715486199045" lon="8.191760750125912"><ele>232.85714285714286</ele><time>2026-03-29T12:14:41.999Z</time></trkpt><trkpt lat="44.657644956907575" lon="8.191738176683655"><ele>232.71428571428572</ele><time>2026-03-29T12:14:43.999Z</time></trkpt><trkpt lat="44.65758080280298" lon="8.191711795830747"><ele>232.57142857142858</ele><time>2026-03-29T12:14:45.999Z</time></trkpt><trkpt lat="44.657500307000944" lon="8.191662774879312"><ele>232.42857142857144</ele><time>2026-03-29T12:14:48.999Z</time></trkpt><trkpt lat="44.657439086998956" lon="8.191619777274795"><ele>232.28571428571428</ele><time>2026-03-29T12:14:50.999Z</time></trkpt><trkpt lat="44.65736297114439" lon="8.191573945238202"><ele>232.14285714285717</ele><time>2026-03-29T12:14:53.999Z</time></trkpt><trkpt lat="44.65730345319119" lon="8.191523355518086"><ele>232.00000000000003</ele><time>2026-03-29T12:14:55.999Z</time></trkpt><trkpt lat="44.65722545798957" lon="8.191458777698575"><ele>231.99999999999997</ele><time>2026-03-29T12:14:58.999Z</time></trkpt><trkpt lat="44.657151755994626" lon="8.191405238517639"><ele>232.0</ele><time>2026-03-29T12:15:01.999Z</time></trkpt><trkpt lat="44.657075835206506" lon="8.191337222407451"><ele>232.0</ele><time>2026-03-29T12:15:04.999Z</time></trkpt><trkpt lat="44.65700186393462" lon="8.19127560103771"><ele>232.0</ele><time>2026-03-29T12:15:07.999Z</time></trkpt><trkpt lat="44.65692309711046" lon="8.191216534759178"><ele>231.99999999999997</ele><time>2026-03-29T12:15:10.999Z</time></trkpt><trkpt lat="44.65684518201654" lon="8.191153464104396"><ele>232.0</ele><time>2026-03-29T12:15:13.999Z</time></trkpt><trkpt lat="44.656776925411364" lon="8.1910967645156"><ele>232.42857142857144</ele><time>2026-03-29T12:15:16.999Z</time></trkpt><trkpt lat="44.65671913475691" lon="8.191037108439394"><ele>232.85714285714286</ele><time>2026-03-29T12:15:19.999Z</time></trkpt><trkpt lat="44.65667408319214" lon="8.190973360359289"><ele>233.28571428571428</ele><time>2026-03-29T12:15:22.999Z</time></trkpt><trkpt lat="44.65664935956773" lon="8.190889118184087"><ele>233.71428571428572</ele><time>2026-03-29T12:15:25.999Z</time></trkpt><trkpt lat="44.65666024298623" lon="8.190779629946771"><ele>234.1428571428571</ele><time>2026-03-29T12:15:43Z</time></trkpt><trkpt lat="44.65666703512566" lon="8.190689101103665"><ele>234.57142857142856</ele><time>2026-03-29T12:15:46Z</time></trkpt><trkpt lat="44.65666825222079" lon="8.19058607440781"><ele>235.0</ele><time>2026-03-29T12:15:49Z</time></trkpt><trkpt lat="44.65667690127584" lon="8.190494275697715"><ele>235.0</ele><time>2026-03-29T12:15:53Z</time></trkpt><trkpt lat="44.6566511413436" lon="8.190588435543251"><ele>234.99999999999997</ele><time>2026-03-29T12:16:18.999Z</time></trkpt><trkpt lat="44.656649759879244" lon="8.190686239759286"><ele>235.0</ele><time>2026-03-29T12:16:24.999Z</time></trkpt><trkpt lat="44.656647466824275" lon="8.19077777991586"><ele>235.0</ele><time>2026-03-29T12:16:30.999Z</time></trkpt><trkpt lat="44.65663419886833" lon="8.190864625411198"><ele>234.99999999999997</ele><time>2026-03-29T12:16:36.999Z</time></trkpt><trkpt lat="44.6565709077716" lon="8.190882671846744"><ele>235.0</ele><time>2026-03-29T12:16:50.999Z</time></trkpt><trkpt lat="44.65650115193141" lon="8.190857333959954"><ele>235.0</ele><time>2026-03-29T12:16:58.999Z</time></trkpt><trkpt lat="44.656432633001984" lon="8.190808163016225"><ele>235.0</ele><time>2026-03-29T12:17:02.999Z</time></trkpt><trkpt lat="44.65637000425683" lon="8.19076788340984"><ele>234.99999999999997</ele><time>2026-03-29T12:17:05.999Z</time></trkpt><trkpt lat="44.65630424065805" lon="8.190723539288014"><ele>235.0</ele><time>2026-03-29T12:17:08.999Z</time></trkpt><trkpt lat="44.65623496552342" lon="8.190683217147257"><ele>235.0</ele><time>2026-03-29T12:17:11.999Z</time></trkpt><trkpt lat="44.65616194627431" lon="8.190641003207421"><ele>234.99999999999997</ele><time>2026-03-29T12:17:14.999Z</time></trkpt><trkpt lat="44.656090554225585" lon="8.190604634766277"><ele>235.0</ele><time>2026-03-29T12:17:17.999Z</time></trkpt><trkpt lat="44.65602360156708" lon="8.190577528316021"><ele>235.0</ele><time>2026-03-29T12:17:20.999Z</time></trkpt><trkpt lat="44.6559527904209" lon="8.190542744382496"><ele>235.14285714285714</ele><time>2026-03-29T12:17:23.999Z</time></trkpt><trkpt lat="44.65587575776455" lon="8.1905075730332"><ele>235.28571428571428</ele><time>2026-03-29T12:17:26.999Z</time></trkpt><trkpt lat="44.655802764435975" lon="8.190483539092286"><ele>235.42857142857142</ele><time>2026-03-29T12:17:29.999Z</time></trkpt><trkpt lat="44.65573898725413" lon="8.190456367813555"><ele>235.57142857142856</ele><time>2026-03-29T12:17:32.999Z</time></trkpt><trkpt lat="44.655668120562616" lon="8.190430410866998"><ele>235.71428571428572</ele><time>2026-03-29T12:17:35.999Z</time></trkpt><trkpt lat="44.65560086619025" lon="8.190394225422201"><ele>235.85714285714283</ele><time>2026-03-29T12:17:38.999Z</time></trkpt><trkpt lat="44.655531042210434" lon="8.190362548132713"><ele>236.0</ele><time>2026-03-29T12:17:41.999Z</time></trkpt><trkpt lat="44.6554631203523" lon="8.190326419741131"><ele>236.00000000000003</ele><time>2026-03-29T12:17:45Z</time></trkpt><trkpt lat="44.655389399092705" lon="8.190297093304812"><ele>236.0</ele><time>2026-03-29T12:17:48Z</time></trkpt><trkpt lat="44.65531955796416" lon="8.190269602260363"><ele>236.0</ele><time>2026-03-29T12:17:51Z</time></trkpt><trkpt lat="44.65524909959596" lon="8.190240479795525"><ele>236.0</ele><time>2026-03-29T12:17:54Z</time></trkpt><trkpt lat="44.65517246499886" lon="8.190208300247235"><ele>236.00000000000003</ele><time>2026-03-29T12:17:57Z</time></trkpt><trkpt lat="44.655098634986736" lon="8.190171702570076"><ele>236.0</ele><time>2026-03-29T12:18:00Z</time></trkpt><trkpt lat="44.65502732505021" lon="8.190137356244778"><ele>236.16666666666669</ele><time>2026-03-29T12:18:03Z</time></trkpt><trkpt lat="44.65494789394856" lon="8.190108598605999"><ele>236.33333333333334</ele><time>2026-03-29T12:18:06Z</time></trkpt><trkpt lat="44.65487271834948" lon="8.190072413269641"><ele>236.5</ele><time>2026-03-29T12:18:09Z</time></trkpt><trkpt lat="44.654797551267855" lon="8.190039910092539"><ele>236.66666666666669</ele><time>2026-03-29T12:18:12Z</time></trkpt><trkpt lat="44.65472394073554" lon="8.190003908288999"><ele>236.83333333333334</ele><time>2026-03-29T12:18:15Z</time></trkpt><trkpt lat="44.654649304034706" lon="8.189975663513861"><ele>237.0</ele><time>2026-03-29T12:18:17.999Z</time></trkpt><trkpt lat="44.65457419083188" lon="8.189937097560643"><ele>236.99999999999997</ele><time>2026-03-29T12:18:20.999Z</time></trkpt><trkpt lat="44.654502952389635" lon="8.18989539981467"><ele>237.0</ele><time>2026-03-29T12:18:23.999Z</time></trkpt><trkpt lat="44.65444610355435" lon="8.189854972977736"><ele>236.99999999999997</ele><time>2026-03-29T12:18:25.999Z</time></trkpt><trkpt lat="44.65438680505094" lon="8.18980952796904"><ele>236.99999999999997</ele><time>2026-03-29T12:18:28.999Z</time></trkpt><trkpt lat="44.65432253774562" lon="8.189750490064538"><ele>237.0</ele><time>2026-03-29T12:18:32.999Z</time></trkpt><trkpt lat="44.654311443316665" lon="8.189634400207897"><ele>236.99999999999997</ele><time>2026-03-29T12:18:37.999Z</time></trkpt><trkpt lat="44.65431062828921" lon="8.189530050664443"><ele>236.99999999999997</ele><time>2026-03-29T12:18:41.999Z</time></trkpt><trkpt lat="44.65430443585515" lon="8.18943880355608"><ele>237.28571428571425</ele><time>2026-03-29T12:18:46.999Z</time></trkpt><trkpt lat="44.654301959716385" lon="8.189329252969557"><ele>237.57142857142856</ele><time>2026-03-29T12:18:51.999Z</time></trkpt><trkpt lat="44.65427700341222" lon="8.18924396855062"><ele>237.85714285714286</ele><time>2026-03-29T12:18:55.999Z</time></trkpt><trkpt lat="44.654280112498405" lon="8.189135516790383"><ele>238.14285714285714</ele><time>2026-03-29T12:19:00.999Z</time></trkpt><trkpt lat="44.65427085684884" lon="8.189036380704096"><ele>238.42857142857144</ele><time>2026-03-29T12:19:04.999Z</time></trkpt><trkpt lat="44.65424549673738" lon="8.188929641367002"><ele>238.71428571428575</ele><time>2026-03-29T12:19:08.999Z</time></trkpt><trkpt lat="44.654250258384906" lon="8.188827808677724"><ele>239.00000000000003</ele><time>2026-03-29T12:19:12.999Z</time></trkpt><trkpt lat="44.65421195345478" lon="8.188723007502132"><ele>239.14285714285717</ele><time>2026-03-29T12:19:40.999Z</time></trkpt><trkpt lat="44.654168473701354" lon="8.188650949455814"><ele>239.28571428571428</ele><time>2026-03-29T12:19:44.999Z</time></trkpt><trkpt lat="44.65409774970629" lon="8.18859814206039"><ele>239.42857142857144</ele><time>2026-03-29T12:19:48.999Z</time></trkpt><trkpt lat="44.65401463438207" lon="8.18855640267699"><ele>239.57142857142858</ele><time>2026-03-29T12:19:53Z</time></trkpt><trkpt lat="44.653952865266064" lon="8.188528804741075"><ele>239.71428571428572</ele><time>2026-03-29T12:19:56Z</time></trkpt><trkpt lat="44.653890705681725" lon="8.188491446298938"><ele>239.85714285714286</ele><time>2026-03-29T12:19:59Z</time></trkpt><trkpt lat="44.65381722475053" lon="8.188443921158001"><ele>240.0</ele><time>2026-03-29T12:20:03Z</time></trkpt><trkpt lat="44.65374131644674" lon="8.188399810757637"><ele>240.0</ele><time>2026-03-29T12:20:07Z</time></trkpt><trkpt lat="44.65367096709371" lon="8.188355926848555"><ele>240.0</ele><time>2026-03-29T12:20:11Z</time></trkpt><trkpt lat="44.65360574760395" lon="8.188325027958246"><ele>240.0</ele><time>2026-03-29T12:20:14Z</time></trkpt><trkpt lat="44.653548004286456" lon="8.188289630166809"><ele>240.0</ele><time>2026-03-29T12:20:17Z</time></trkpt><trkpt lat="44.65347329657157" lon="8.18825439758892"><ele>240.0</ele><time>2026-03-29T12:20:20Z</time></trkpt><trkpt lat="44.6533954065528" lon="8.188218236394142"><ele>240.0</ele><time>2026-03-29T12:20:22.999Z</time></trkpt><trkpt lat="44.65332411835606" lon="8.188183494817618"><ele>240.0</ele><time>2026-03-29T12:20:25.999Z</time></trkpt><trkpt lat="44.6532556992728" lon="8.188148456501068"><ele>240.28571428571428</ele><time>2026-03-29T12:20:28.999Z</time></trkpt><trkpt lat="44.65318969368262" lon="8.188124210751605"><ele>240.57142857142856</ele><time>2026-03-29T12:20:31.999Z</time></trkpt><trkpt lat="44.65312652470746" lon="8.188104311443974"><ele>240.85714285714283</ele><time>2026-03-29T12:20:34.999Z</time></trkpt><trkpt lat="44.65306173562139" lon="8.188077938091826"><ele>241.14285714285714</ele><time>2026-03-29T12:20:37.999Z</time></trkpt><trkpt lat="44.65299847199385" lon="8.188053988102794"><ele>241.4285714285714</ele><time>2026-03-29T12:20:40.999Z</time></trkpt><trkpt lat="44.652926600303914" lon="8.1880242725229"><ele>241.7142857142857</ele><time>2026-03-29T12:20:44.999Z</time></trkpt><trkpt lat="44.652863688835936" lon="8.187993591834188"><ele>242.0</ele><time>2026-03-29T12:20:48.999Z</time></trkpt><trkpt lat="44.65278896180901" lon="8.187966355193815"><ele>242.0</ele><time>2026-03-29T12:20:52.999Z</time></trkpt><trkpt lat="44.65271191032165" lon="8.187948783368213"><ele>241.99999999999997</ele><time>2026-03-29T12:20:56.999Z</time></trkpt><trkpt lat="44.65263721073185" lon="8.187920557826587"><ele>242.0</ele><time>2026-03-29T12:21:00.999Z</time></trkpt><trkpt lat="44.652564090763164" lon="8.18789213016916"><ele>242.0</ele><time>2026-03-29T12:21:05.999Z</time></trkpt><trkpt lat="44.65249987028868" lon="8.187858444065277"><ele>241.99999999999997</ele><time>2026-03-29T12:21:09.999Z</time></trkpt><trkpt lat="44.6524448344794" lon="8.187802582520666"><ele>242.0</ele><time>2026-03-29T12:21:13.999Z</time></trkpt><trkpt lat="44.65237283371723" lon="8.187772987032117"><ele>242.0</ele><time>2026-03-29T12:21:17.999Z</time></trkpt><trkpt lat="44.65228851843938" lon="8.187745880957216"><ele>242.0</ele><time>2026-03-29T12:21:21.999Z</time></trkpt><trkpt lat="44.65222331015079" lon="8.187749540007967"><ele>241.99999999999997</ele><time>2026-03-29T12:21:24.999Z</time></trkpt><trkpt lat="44.652151851144176" lon="8.18780284853913"><ele>242.0</ele><time>2026-03-29T12:21:28.999Z</time></trkpt><trkpt lat="44.65210518357732" lon="8.187882570782731"><ele>242.0</ele><time>2026-03-29T12:21:32.999Z</time></trkpt><trkpt lat="44.65203975654595" lon="8.187875925471143"><ele>241.99999999999997</ele><time>2026-03-29T12:21:36.999Z</time></trkpt><trkpt lat="44.651969965918994" lon="8.187876067932947"><ele>242.0</ele><time>2026-03-29T12:21:41.999Z</time></trkpt><trkpt lat="44.65192518344642" lon="8.187801386779778"><ele>242.0</ele><time>2026-03-29T12:21:45.999Z</time></trkpt><trkpt lat="44.65188638272152" lon="8.187707869821473"><ele>242.33333333333334</ele><time>2026-03-29T12:21:47.999Z</time></trkpt><trkpt lat="44.65183324822405" lon="8.187636762066601"><ele>242.66666666666669</ele><time>2026-03-29T12:21:50.998Z</time></trkpt><trkpt lat="44.651761770779636" lon="8.1876089399244"><ele>243.0</ele><time>2026-03-29T12:21:54.998Z</time></trkpt><trkpt lat="44.65167718962843" lon="8.18758544598934"><ele>243.33333333333331</ele><time>2026-03-29T12:21:59Z</time></trkpt><trkpt lat="44.651600400292665" lon="8.187548253104525"><ele>243.66666666666666</ele><time>2026-03-29T12:22:03Z</time></trkpt><trkpt lat="44.65153216960475" lon="8.187503852881795"><ele>244.0</ele><time>2026-03-29T12:22:07Z</time></trkpt><trkpt lat="44.65147053877512" lon="8.18746431961879"><ele>243.99999999999997</ele><time>2026-03-29T12:24:19Z</time></trkpt><trkpt lat="44.65139726968616" lon="8.18739568925524"><ele>244.0</ele><time>2026-03-29T12:24:24.999Z</time></trkpt><trkpt lat="44.65133235526939" lon="8.187353250499354"><ele>244.0</ele><time>2026-03-29T12:24:28.999Z</time></trkpt><trkpt lat="44.65126673845152" lon="8.187305146549607"><ele>244.0</ele><time>2026-03-29T12:24:32.999Z</time></trkpt><trkpt lat="44.65120849989994" lon="8.187266433140564"><ele>243.99999999999997</ele><time>2026-03-29T12:24:35.999Z</time></trkpt><trkpt lat="44.65114107226225" lon="8.187218162154164"><ele>244.0</ele><time>2026-03-29T12:24:39.999Z</time></trkpt><trkpt lat="44.651065776878816" lon="8.187161075281551"><ele>244.83333333333331</ele><time>2026-03-29T12:24:43.999Z</time></trkpt><trkpt lat="44.65100700667799" lon="8.187120783852455"><ele>245.66666666666666</ele><time>2026-03-29T12:24:46.999Z</time></trkpt><trkpt lat="44.65094731180648" lon="8.187073851447007"><ele>246.5</ele><time>2026-03-29T12:24:49.999Z</time></trkpt><trkpt lat="44.65087770376586" lon="8.187028449450201"><ele>247.33333333333331</ele><time>2026-03-29T12:24:52.999Z</time></trkpt><trkpt lat="44.65080939296201" lon="8.186983459135027"><ele>248.16666666666666</ele><time>2026-03-29T12:24:55.999Z</time></trkpt><trkpt lat="44.65073239563727" lon="8.186937339964347"><ele>249.0</ele><time>2026-03-29T12:24:58.999Z</time></trkpt><trkpt lat="44.650653956260825" lon="8.186888613910892"><ele>249.0</ele><time>2026-03-29T12:25:01.999Z</time></trkpt><trkpt lat="44.65057503228605" lon="8.186844659964187"><ele>249.0</ele><time>2026-03-29T12:25:04.999Z</time></trkpt><trkpt lat="44.650513396598" lon="8.186812150460112"><ele>249.0</ele><time>2026-03-29T12:25:06.999Z</time></trkpt><trkpt lat="44.65043158095191" lon="8.186769791590557"><ele>249.0</ele><time>2026-03-29T12:25:09.999Z</time></trkpt><trkpt lat="44.65035257259656" lon="8.186719486331643"><ele>249.0</ele><time>2026-03-29T12:25:12.999Z</time></trkpt><trkpt lat="44.650263674299104" lon="8.186666424967736"><ele>249.0</ele><time>2026-03-29T12:25:15.999Z</time></trkpt><trkpt lat="44.65018747870143" lon="8.186618941589806"><ele>248.5</ele><time>2026-03-29T12:25:18.999Z</time></trkpt><trkpt lat="44.65010489610317" lon="8.18657555286762"><ele>248.0</ele><time>2026-03-29T12:25:21.999Z</time></trkpt><trkpt lat="44.65002140945814" lon="8.186521818259791"><ele>247.5</ele><time>2026-03-29T12:25:24.999Z</time></trkpt><trkpt lat="44.64994471869535" lon="8.18647528067499"><ele>247.0</ele><time>2026-03-29T12:25:27.999Z</time></trkpt><trkpt lat="44.64986716515678" lon="8.186426937988367"><ele>246.5</ele><time>2026-03-29T12:25:30.999Z</time></trkpt><trkpt lat="44.64979906051496" lon="8.186375121376672"><ele>246.0</ele><time>2026-03-29T12:25:33.999Z</time></trkpt><trkpt lat="44.649728681211414" lon="8.186320815175298"><ele>246.16666666666666</ele><time>2026-03-29T12:25:36.999Z</time></trkpt><trkpt lat="44.64965443729278" lon="8.186264364603518"><ele>246.33333333333331</ele><time>2026-03-29T12:25:39.999Z</time></trkpt><trkpt lat="44.649571850895214" lon="8.186217319874888"><ele>246.5</ele><time>2026-03-29T12:25:42.999Z</time></trkpt><trkpt lat="44.649509580441425" lon="8.18617142262826"><ele>246.66666666666666</ele><time>2026-03-29T12:25:45.999Z</time></trkpt><trkpt lat="44.649435905396516" lon="8.18611372196056"><ele>246.83333333333331</ele><time>2026-03-29T12:25:49.999Z</time></trkpt><trkpt lat="44.64937555285053" lon="8.18606274471919"><ele>247.0</ele><time>2026-03-29T12:25:52.998Z</time></trkpt><trkpt lat="44.64930822912957" lon="8.18601211970097"><ele>247.0</ele><time>2026-03-29T12:25:55.998Z</time></trkpt><trkpt lat="44.64924509342077" lon="8.185959568372878"><ele>247.0</ele><time>2026-03-29T12:25:58.998Z</time></trkpt><trkpt lat="44.649181674877966" lon="8.185921075584218"><ele>247.0</ele><time>2026-03-29T12:26:01.998Z</time></trkpt><trkpt lat="44.649117842168046" lon="8.185871890175425"><ele>247.0</ele><time>2026-03-29T12:26:04.998Z</time></trkpt><trkpt lat="44.64905319162065" lon="8.185824553689107"><ele>247.0</ele><time>2026-03-29T12:26:07.998Z</time></trkpt><trkpt lat="44.64900041520162" lon="8.185776182442554"><ele>247.0</ele><time>2026-03-29T12:26:11Z</time></trkpt><trkpt lat="44.64894012963318" lon="8.18572757681895"><ele>247.0</ele><time>2026-03-29T12:26:14Z</time></trkpt><trkpt lat="44.64887555321718" lon="8.185661965764526"><ele>247.71428571428572</ele><time>2026-03-29T12:26:17Z</time></trkpt><trkpt lat="44.64880888299562" lon="8.185603805114315"><ele>248.42857142857142</ele><time>2026-03-29T12:26:20Z</time></trkpt><trkpt lat="44.648756411888826" lon="8.185552917375421"><ele>249.14285714285714</ele><time>2026-03-29T12:26:23Z</time></trkpt><trkpt lat="44.6487066149769" lon="8.185498047916694"><ele>249.85714285714286</ele><time>2026-03-29T12:26:26.999Z</time></trkpt><trkpt lat="44.648646144225026" lon="8.18545266443241"><ele>250.57142857142856</ele><time>2026-03-29T12:26:30.999Z</time></trkpt><trkpt lat="44.64858243819727" lon="8.185392460710197"><ele>251.28571428571428</ele><time>2026-03-29T12:26:34.999Z</time></trkpt><trkpt lat="44.64851907085637" lon="8.185332838508355"><ele>252.0</ele><time>2026-03-29T12:26:38.999Z</time></trkpt><trkpt lat="44.64846318338682" lon="8.185283729878437"><ele>252.0</ele><time>2026-03-29T12:26:41.999Z</time></trkpt><trkpt lat="44.64839844925676" lon="8.185224702942753"><ele>252.0</ele><time>2026-03-29T12:26:44.999Z</time></trkpt><trkpt lat="44.64833336774062" lon="8.18516705319973"><ele>252.0</ele><time>2026-03-29T12:26:48.999Z</time></trkpt><trkpt lat="44.648278504807344" lon="8.185115791252615"><ele>252.0</ele><time>2026-03-29T12:26:51.999Z</time></trkpt><trkpt lat="44.64822646468641" lon="8.185065342627214"><ele>252.0</ele><time>2026-03-29T12:26:54.999Z</time></trkpt><trkpt lat="44.64817117515427" lon="8.18501353393453"><ele>252.0</ele><time>2026-03-29T12:26:57.999Z</time></trkpt><trkpt lat="44.64810217678685" lon="8.184972697888082"><ele>252.0</ele><time>2026-03-29T12:27:01.999Z</time></trkpt><trkpt lat="44.64804433035991" lon="8.184929518498816"><ele>252.0</ele><time>2026-03-29T12:27:04.999Z</time></trkpt><trkpt lat="44.647984215546074" lon="8.184887693785361"><ele>252.0</ele><time>2026-03-29T12:27:09.999Z</time></trkpt><trkpt lat="44.64791127458839" lon="8.184852019428345"><ele>252.0</ele><time>2026-03-29T12:27:23.999Z</time></trkpt><trkpt lat="44.64784274916066" lon="8.184830551909497"><ele>252.0</ele><time>2026-03-29T12:27:28.999Z</time></trkpt><trkpt lat="44.64777481439904" lon="8.184784216686182"><ele>252.0</ele><time>2026-03-29T12:27:32.999Z</time></trkpt><trkpt lat="44.647703898355346" lon="8.184751132074354"><ele>252.0</ele><time>2026-03-29T12:27:35.999Z</time></trkpt><trkpt lat="44.647634319479366" lon="8.1847068845711"><ele>252.0</ele><time>2026-03-29T12:27:38.999Z</time></trkpt><trkpt lat="44.647565797742175" lon="8.184659660150714"><ele>252.28571428571428</ele><time>2026-03-29T12:27:41.999Z</time></trkpt><trkpt lat="44.6474967969986" lon="8.184623344112772"><ele>252.57142857142856</ele><time>2026-03-29T12:27:45.999Z</time></trkpt><trkpt lat="44.64742033602924" lon="8.184576592753473"><ele>252.85714285714286</ele><time>2026-03-29T12:27:49.999Z</time></trkpt><trkpt lat="44.64735898468115" lon="8.184531567520342"><ele>253.14285714285714</ele><time>2026-03-29T12:27:52.999Z</time></trkpt><trkpt lat="44.64729932917141" lon="8.184501250232376"><ele>253.42857142857142</ele><time>2026-03-29T12:27:56.998Z</time></trkpt><trkpt lat="44.64723582734919" lon="8.184456557105223"><ele>253.71428571428572</ele><time>2026-03-29T12:28:01.998Z</time></trkpt><trkpt lat="44.64716521068689" lon="8.184424638058006"><ele>254.0</ele><time>2026-03-29T12:28:06.998Z</time></trkpt><trkpt lat="44.64711133333496" lon="8.184354451054283"><ele>254.0</ele><time>2026-03-29T12:28:12.998Z</time></trkpt><trkpt lat="44.64706570163467" lon="8.184279729102542"><ele>254.0</ele><time>2026-03-29T12:28:16Z</time></trkpt><trkpt lat="44.64700967066346" lon="8.184205352891057"><ele>254.0</ele><time>2026-03-29T12:28:18Z</time></trkpt><trkpt lat="44.646948574920685" lon="8.184176902853768"><ele>254.0</ele><time>2026-03-29T12:28:20Z</time></trkpt><trkpt lat="44.646893629302205" lon="8.184133602097557"><ele>254.0</ele><time>2026-03-29T12:28:22Z</time></trkpt><trkpt lat="44.64682865473388" lon="8.184097112227684"><ele>254.0</ele><time>2026-03-29T12:28:24Z</time></trkpt><trkpt lat="44.64676841580726" lon="8.184056583453991"><ele>254.0</ele><time>2026-03-29T12:28:30.999Z</time></trkpt><trkpt lat="44.64670410882721" lon="8.184019493863676"><ele>253.85714285714286</ele><time>2026-03-29T12:28:38.999Z</time></trkpt><trkpt lat="44.646639192079036" lon="8.183992634333277"><ele>253.71428571428572</ele><time>2026-03-29T12:28:53.999Z</time></trkpt><trkpt lat="44.646589847312306" lon="8.183935357638179"><ele>253.57142857142858</ele><time>2026-03-29T12:30:08.998Z</time></trkpt><trkpt lat="44.64653333762284" lon="8.183887903512966"><ele>253.42857142857144</ele><time>2026-03-29T12:30:13.998Z</time></trkpt><trkpt lat="44.64645974866835" lon="8.18388610313838"><ele>253.28571428571428</ele><time>2026-03-29T12:30:18.998Z</time></trkpt><trkpt lat="44.64638609055335" lon="8.183912696584786"><ele>253.14285714285717</ele><time>2026-03-29T12:30:22.999Z</time></trkpt><trkpt lat="44.64634100805703" lon="8.183982893150041"><ele>253.00000000000003</ele><time>2026-03-29T12:30:25.999Z</time></trkpt><trkpt lat="44.646306534446616" lon="8.184056965372369"><ele>252.99999999999997</ele><time>2026-03-29T12:30:28.999Z</time></trkpt><trkpt lat="44.64624102012956" lon="8.184130962466618"><ele>253.0</ele><time>2026-03-29T12:30:32.999Z</time></trkpt><trkpt lat="44.64617845632053" lon="8.184154339912519"><ele>253.0</ele><time>2026-03-29T12:30:35.999Z</time></trkpt><trkpt lat="44.64611416037175" lon="8.184169226972973"><ele>253.0</ele><time>2026-03-29T12:30:38.999Z</time></trkpt><trkpt lat="44.64604289541768" lon="8.184184311983772"><ele>252.99999999999997</ele><time>2026-03-29T12:30:41.999Z</time></trkpt><trkpt lat="44.645962640203805" lon="8.184193531513456"><ele>253.0</ele><time>2026-03-29T12:30:45.999Z</time></trkpt><trkpt lat="44.645878051872714" lon="8.184207899107975"><ele>252.83333333333331</ele><time>2026-03-29T12:30:49.999Z</time></trkpt><trkpt lat="44.645816795450095" lon="8.184157167644742"><ele>252.66666666666666</ele><time>2026-03-29T12:30:52.999Z</time></trkpt><trkpt lat="44.645791978470044" lon="8.184014299064781"><ele>252.5</ele><time>2026-03-29T12:30:54.999Z</time></trkpt><trkpt lat="44.645794333484716" lon="8.183914892183603"><ele>252.33333333333331</ele><time>2026-03-29T12:30:57.999Z</time></trkpt><trkpt lat="44.64575710188973" lon="8.183837208335415"><ele>252.16666666666666</ele><time>2026-03-29T12:30:59.999Z</time></trkpt><trkpt lat="44.64568439076717" lon="8.183818033619955"><ele>252.0</ele><time>2026-03-29T12:31:02.999Z</time></trkpt><trkpt lat="44.645610878543565" lon="8.183831772751565"><ele>252.28571428571428</ele><time>2026-03-29T12:31:05.999Z</time></trkpt><trkpt lat="44.645543625343755" lon="8.183844808274175"><ele>252.57142857142856</ele><time>2026-03-29T12:31:08.999Z</time></trkpt><trkpt lat="44.64547030878443" lon="8.183840436024846"><ele>252.85714285714286</ele><time>2026-03-29T12:31:11.999Z</time></trkpt><trkpt lat="44.64540138874847" lon="8.183864905473257"><ele>253.14285714285714</ele><time>2026-03-29T12:31:14.999Z</time></trkpt><trkpt lat="44.64533494394065" lon="8.18388990788128"><ele>253.42857142857142</ele><time>2026-03-29T12:31:17.999Z</time></trkpt><trkpt lat="44.64526261017406" lon="8.183892081971264"><ele>253.71428571428572</ele><time>2026-03-29T12:31:20.999Z</time></trkpt><trkpt lat="44.6451809575388" lon="8.183872211106369"><ele>254.0</ele><time>2026-03-29T12:31:24.999Z</time></trkpt><trkpt lat="44.645116923409965" lon="8.183829890960997"><ele>254.0</ele><time>2026-03-29T12:31:27.999Z</time></trkpt><trkpt lat="44.645049488912036" lon="8.18377888338134"><ele>254.0</ele><time>2026-03-29T12:31:32.999Z</time></trkpt><trkpt lat="44.64498541001261" lon="8.183727481210694"><ele>254.0</ele><time>2026-03-29T12:31:36.999Z</time></trkpt><trkpt lat="44.64492627316921" lon="8.183676524147787"><ele>254.0</ele><time>2026-03-29T12:31:40.999Z</time></trkpt><trkpt lat="44.64486820393508" lon="8.183627559690871"><ele>254.0</ele><time>2026-03-29T12:31:44.999Z</time></trkpt><trkpt lat="44.64479899983873" lon="8.183575352654287"><ele>254.0</ele><time>2026-03-29T12:31:48.999Z</time></trkpt><trkpt lat="44.644742946910554" lon="8.183531245441717"><ele>254.0</ele><time>2026-03-29T12:31:51.999Z</time></trkpt><trkpt lat="44.64469342178516" lon="8.1834643952163"><ele>254.0</ele><time>2026-03-29T12:31:54.999Z</time></trkpt><trkpt lat="44.64469117829929" lon="8.183365360536655"><ele>254.0</ele><time>2026-03-29T12:31:59.999Z</time></trkpt><trkpt lat="44.64470156004227" lon="8.183268578013967"><ele>254.0</ele><time>2026-03-29T12:32:07.998Z</time></trkpt><trkpt lat="44.64465866795374" lon="8.183189018522452"><ele>254.0</ele><time>2026-03-29T12:32:13.998Z</time></trkpt><trkpt lat="44.64459185716446" lon="8.18311718239924"><ele>254.0</ele><time>2026-03-29T12:33:43.999Z</time></trkpt><trkpt lat="44.64452939345002" lon="8.183076592803282"><ele>254.0</ele><time>2026-03-29T12:33:46.999Z</time></trkpt><trkpt lat="44.64446475043094" lon="8.183036092665196"><ele>254.0</ele><time>2026-03-29T12:33:50.999Z</time></trkpt><trkpt lat="44.64440227498885" lon="8.183020199303662"><ele>254.14285714285717</ele><time>2026-03-29T12:33:54.999Z</time></trkpt><trkpt lat="44.644329100853795" lon="8.183039812034092"><ele>254.28571428571428</ele><time>2026-03-29T12:33:59.999Z</time></trkpt><trkpt lat="44.644252873613915" lon="8.183044704895963"><ele>254.42857142857144</ele><time>2026-03-29T12:34:05Z</time></trkpt><trkpt lat="44.64418434656755" lon="8.183028643405093"><ele>254.57142857142858</ele><time>2026-03-29T12:34:09Z</time></trkpt><trkpt lat="44.644107514729306" lon="8.183031379806929"><ele>254.71428571428572</ele><time>2026-03-29T12:34:13.999Z</time></trkpt><trkpt lat="44.64404825270126" lon="8.183080279554309"><ele>254.85714285714286</ele><time>2026-03-29T12:34:17.999Z</time></trkpt><trkpt lat="44.64400116671837" lon="8.183148631603215"><ele>255.0</ele><time>2026-03-29T12:34:21.999Z</time></trkpt><trkpt lat="44.643935038933996" lon="8.183204551763511"><ele>255.0</ele><time>2026-03-29T12:34:25.999Z</time></trkpt><trkpt lat="44.643869290199056" lon="8.18320001318222"><ele>255.00000000000003</ele><time>2026-03-29T12:34:30.999Z</time></trkpt><trkpt lat="44.643803763708995" lon="8.18318295450726"><ele>255.0</ele><time>2026-03-29T12:34:35Z</time></trkpt><trkpt lat="44.64373767642407" lon="8.183196824116353"><ele>255.0</ele><time>2026-03-29T12:34:39Z</time></trkpt><trkpt lat="44.64366030717305" lon="8.183196587443925"><ele>255.00000000000003</ele><time>2026-03-29T12:34:43Z</time></trkpt><trkpt lat="44.64359299673404" lon="8.183188693347834"><ele>255.0</ele><time>2026-03-29T12:34:47Z</time></trkpt><trkpt lat="44.643520733969254" lon="8.183157363263746"><ele>255.0</ele><time>2026-03-29T12:34:52Z</time></trkpt><trkpt lat="44.643448656051405" lon="8.183145265337718"><ele>255.2857142857143</ele><time>2026-03-29T12:34:57Z</time></trkpt><trkpt lat="44.64338711955481" lon="8.183122868467898"><ele>255.5714285714286</ele><time>2026-03-29T12:35:02Z</time></trkpt><trkpt lat="44.643320645048455" lon="8.183089489221631"><ele>255.85714285714286</ele><time>2026-03-29T12:35:08Z</time></trkpt><trkpt lat="44.643261076509454" lon="8.183054293802291"><ele>256.14285714285717</ele><time>2026-03-29T12:35:12Z</time></trkpt><trkpt lat="44.643187413530626" lon="8.18303161364935"><ele>256.42857142857144</ele><time>2026-03-29T12:35:17Z</time></trkpt><trkpt lat="44.64311190257029" lon="8.18299473864011"><ele>256.7142857142857</ele><time>2026-03-29T12:35:21Z</time></trkpt><trkpt lat="44.64303915435289" lon="8.182948268028607"><ele>257.0</ele><time>2026-03-29T12:35:25Z</time></trkpt><trkpt lat="44.64296845161362" lon="8.182920788262718"><ele>257.0</ele><time>2026-03-29T12:35:29Z</time></trkpt><trkpt lat="44.64290327954873" lon="8.18286946849845"><ele>257.0</ele><time>2026-03-29T12:36:04Z</time></trkpt><trkpt lat="44.64283778492309" lon="8.182836892839962"><ele>257.0</ele><time>2026-03-29T12:36:08Z</time></trkpt><trkpt lat="44.64276698825469" lon="8.182793880164883"><ele>257.0</ele><time>2026-03-29T12:36:13Z</time></trkpt><trkpt lat="44.64269709894298" lon="8.182756544227416"><ele>257.0</ele><time>2026-03-29T12:36:17.999Z</time></trkpt><trkpt lat="44.642622289676574" lon="8.18272130846163"><ele>257.0</ele><time>2026-03-29T12:36:22.999Z</time></trkpt><trkpt lat="44.64256603375276" lon="8.182679796219608"><ele>257.0</ele><time>2026-03-29T12:36:28.999Z</time></trkpt><trkpt lat="44.64251002787014" lon="8.182607752384824"><ele>257.2857142857143</ele><time>2026-03-29T12:36:31.999Z</time></trkpt><trkpt lat="44.64245068984625" lon="8.182547755324304"><ele>257.57142857142856</ele><time>2026-03-29T12:36:34.999Z</time></trkpt><trkpt lat="44.64239528394813" lon="8.182483509425692"><ele>257.8571428571429</ele><time>2026-03-29T12:36:40Z</time></trkpt><trkpt lat="44.64234499062704" lon="8.182421931881148"><ele>258.1428571428571</ele><time>2026-03-29T12:36:46Z</time></trkpt><trkpt lat="44.64229194229072" lon="8.182343106192645"><ele>258.42857142857144</ele><time>2026-03-29T12:36:52Z</time></trkpt><trkpt lat="44.64224189442239" lon="8.182263826218145"><ele>258.7142857142857</ele><time>2026-03-29T12:36:56Z</time></trkpt><trkpt lat="44.64220137165543" lon="8.182191160848825"><ele>259.0</ele><time>2026-03-29T12:36:59Z</time></trkpt><trkpt lat="44.64215073339827" lon="8.182118129809668"><ele>259.42857142857144</ele><time>2026-03-29T12:38:04Z</time></trkpt><trkpt lat="44.642113810703364" lon="8.182040748077904"><ele>259.8571428571429</ele><time>2026-03-29T12:38:11Z</time></trkpt><trkpt lat="44.64207347552457" lon="8.18196529316398"><ele>260.2857142857143</ele><time>2026-03-29T12:38:18Z</time></trkpt><trkpt lat="44.64204134790466" lon="8.181877128081384"><ele>260.7142857142857</ele><time>2026-03-29T12:38:25.999Z</time></trkpt><trkpt lat="44.642007924473745" lon="8.181796760136054"><ele>261.14285714285717</ele><time>2026-03-29T12:38:33.999Z</time></trkpt><trkpt lat="44.64197220313792" lon="8.18171005086433"><ele>261.57142857142856</ele><time>2026-03-29T12:38:48Z</time></trkpt><trkpt lat="44.641934553420455" lon="8.181631160327273"><ele>262.0</ele><time>2026-03-29T12:38:52Z</time></trkpt><trkpt lat="44.641887081928715" lon="8.181550363748004"><ele>261.8571428571429</ele><time>2026-03-29T12:38:55Z</time></trkpt><trkpt lat="44.64184725316679" lon="8.181475102660185"><ele>261.7142857142857</ele><time>2026-03-29T12:38:58Z</time></trkpt><trkpt lat="44.64179723083712" lon="8.181380413731427"><ele>261.57142857142856</ele><time>2026-03-29T12:39:02Z</time></trkpt><trkpt lat="44.64175338841702" lon="8.181307413070208"><ele>261.42857142857144</ele><time>2026-03-29T12:39:05Z</time></trkpt><trkpt lat="44.641710181548454" lon="8.181227561159604"><ele>261.2857142857143</ele><time>2026-03-29T12:39:08Z</time></trkpt><trkpt lat="44.64164990710799" lon="8.181154186667984"><ele>261.14285714285717</ele><time>2026-03-29T12:39:11Z</time></trkpt><trkpt lat="44.641598103620424" lon="8.181087856693793"><ele>261.0</ele><time>2026-03-29T12:39:15Z</time></trkpt><trkpt lat="44.64155228219528" lon="8.18102159684612"><ele>261.0</ele><time>2026-03-29T12:39:18Z</time></trkpt><trkpt lat="44.64152900370259" lon="8.180932297044675"><ele>261.0</ele><time>2026-03-29T12:39:21Z</time></trkpt><trkpt lat="44.641483033953854" lon="8.180822138156682"><ele>261.0</ele><time>2026-03-29T12:39:24Z</time></trkpt><trkpt lat="44.64142144571687" lon="8.180746367796802"><ele>261.0</ele><time>2026-03-29T12:39:27Z</time></trkpt><trkpt lat="44.64135744837652" lon="8.18065720767178"><ele>261.0</ele><time>2026-03-29T12:39:30Z</time></trkpt><trkpt lat="44.641283398959374" lon="8.180572290818214"><ele>261.0</ele><time>2026-03-29T12:39:33Z</time></trkpt><trkpt lat="44.64122962561487" lon="8.18051112382818"><ele>261.6666666666667</ele><time>2026-03-29T12:39:35Z</time></trkpt><trkpt lat="44.64117784784776" lon="8.180454499640735"><ele>262.3333333333333</ele><time>2026-03-29T12:39:37Z</time></trkpt><trkpt lat="44.641118736828055" lon="8.180369952593432"><ele>263.0</ele><time>2026-03-29T12:39:40Z</time></trkpt><trkpt lat="44.64105980919236" lon="8.180275619159943"><ele>263.66666666666663</ele><time>2026-03-29T12:39:43Z</time></trkpt><trkpt lat="44.64100694058398" lon="8.180208698510246"><ele>264.3333333333333</ele><time>2026-03-29T12:39:46Z</time></trkpt><trkpt lat="44.64095498506264" lon="8.180138120062452"><ele>265.0</ele><time>2026-03-29T12:39:51Z</time></trkpt><trkpt lat="44.64090096207873" lon="8.180081567581986"><ele>264.99999999999994</ele><time>2026-03-29T12:39:53Z</time></trkpt><trkpt lat="44.64086136413898" lon="8.180009268008344"><ele>265.0</ele><time>2026-03-29T12:39:55Z</time></trkpt><trkpt lat="44.64080820290295" lon="8.179954261584438"><ele>265.0</ele><time>2026-03-29T12:39:58Z</time></trkpt><trkpt lat="44.64074258071465" lon="8.179882652697675"><ele>265.0</ele><time>2026-03-29T12:40:02Z</time></trkpt><trkpt lat="44.6406867133159" lon="8.17981468442947"><ele>265.0</ele><time>2026-03-29T12:40:05Z</time></trkpt><trkpt lat="44.64063172907124" lon="8.179764253010198"><ele>264.99999999999994</ele><time>2026-03-29T12:40:08Z</time></trkpt><trkpt lat="44.64057576011937" lon="8.17970086182873"><ele>265.0</ele><time>2026-03-29T12:40:11Z</time></trkpt><trkpt lat="44.64052521416331" lon="8.1796455789051"><ele>265.2857142857143</ele><time>2026-03-29T12:40:15Z</time></trkpt><trkpt lat="44.640471789063064" lon="8.17959642027215"><ele>265.57142857142856</ele><time>2026-03-29T12:40:18Z</time></trkpt><trkpt lat="44.64041069329811" lon="8.179539412988554"><ele>265.8571428571429</ele><time>2026-03-29T12:40:20Z</time></trkpt><trkpt lat="44.64035405524071" lon="8.179486269115548"><ele>266.1428571428571</ele><time>2026-03-29T12:40:22Z</time></trkpt><trkpt lat="44.64028610855903" lon="8.179419770235045"><ele>266.42857142857144</ele><time>2026-03-29T12:40:24.999Z</time></trkpt><trkpt lat="44.640224880794804" lon="8.179375921061457"><ele>266.7142857142857</ele><time>2026-03-29T12:40:27.999Z</time></trkpt><trkpt lat="44.64016628688" lon="8.17933459530505"><ele>267.0</ele><time>2026-03-29T12:40:30.999Z</time></trkpt><trkpt lat="44.64010634298107" lon="8.1792919744162"><ele>267.00000000000006</ele><time>2026-03-29T12:40:33.999Z</time></trkpt><trkpt lat="44.64003678134462" lon="8.179241398974561"><ele>267.0</ele><time>2026-03-29T12:40:37.999Z</time></trkpt><trkpt lat="44.639978659942884" lon="8.179193066306814"><ele>267.0</ele><time>2026-03-29T12:40:41.999Z</time></trkpt><trkpt lat="44.63991611197226" lon="8.179141592204358"><ele>267.0</ele><time>2026-03-29T12:40:46.999Z</time></trkpt><trkpt lat="44.639858859809294" lon="8.179082505335526"><ele>267.0</ele><time>2026-03-29T12:40:52Z</time></trkpt><trkpt lat="44.63980250270756" lon="8.179025500502613"><ele>267.00000000000006</ele><time>2026-03-29T12:40:56Z</time></trkpt><trkpt lat="44.639735512823286" lon="8.17899310719142"><ele>267.0</ele><time>2026-03-29T12:41:08Z</time></trkpt><trkpt lat="44.63967320023764" lon="8.178954986413734"><ele>266.8571428571429</ele><time>2026-03-29T12:41:11Z</time></trkpt><trkpt lat="44.63961678082949" lon="8.178910287515729"><ele>266.7142857142857</ele><time>2026-03-29T12:41:14Z</time></trkpt><trkpt lat="44.639557005290655" lon="8.178873528932776"><ele>266.57142857142856</ele><time>2026-03-29T12:41:17Z</time></trkpt><trkpt lat="44.63949734066411" lon="8.178833319905722"><ele>266.42857142857144</ele><time>2026-03-29T12:41:20Z</time></trkpt><trkpt lat="44.63943405689049" lon="8.178789321020412"><ele>266.2857142857143</ele><time>2026-03-29T12:41:23Z</time></trkpt><trkpt lat="44.63937078188585" lon="8.178748400673166"><ele>266.14285714285717</ele><time>2026-03-29T12:41:26Z</time></trkpt><trkpt lat="44.6393014373572" lon="8.178710865186604"><ele>266.0</ele><time>2026-03-29T12:41:29Z</time></trkpt><trkpt lat="44.63922316038455" lon="8.17867118881365"><ele>266.0</ele><time>2026-03-29T12:41:32Z</time></trkpt><trkpt lat="44.63914985464934" lon="8.17863906726632"><ele>266.0</ele><time>2026-03-29T12:41:35Z</time></trkpt><trkpt lat="44.63907183552236" lon="8.178602842192456"><ele>266.0</ele><time>2026-03-29T12:41:38Z</time></trkpt><trkpt lat="44.63899112515648" lon="8.178573285346255"><ele>266.0</ele><time>2026-03-29T12:41:41Z</time></trkpt><trkpt lat="44.63892424879762" lon="8.178559830595145"><ele>266.0</ele><time>2026-03-29T12:41:44Z</time></trkpt><trkpt lat="44.6388542024755" lon="8.178568221974501"><ele>266.0</ele><time>2026-03-29T12:41:47Z</time></trkpt><trkpt lat="44.638784696304164" lon="8.17855270192724"><ele>266.0</ele><time>2026-03-29T12:41:50Z</time></trkpt><trkpt lat="44.63872533127328" lon="8.178520521861007"><ele>266.0</ele><time>2026-03-29T12:41:53Z</time></trkpt><trkpt lat="44.63865204213041" lon="8.178474726044312"><ele>266.0</ele><time>2026-03-29T12:41:57Z</time></trkpt><trkpt lat="44.63857897499829" lon="8.178434383102108"><ele>266.0</ele><time>2026-03-29T12:42:01Z</time></trkpt><trkpt lat="44.63849923214797" lon="8.178410952145702"><ele>266.0</ele><time>2026-03-29T12:42:05Z</time></trkpt><trkpt lat="44.63843700477905" lon="8.178389218149315"><ele>266.0</ele><time>2026-03-29T12:42:08Z</time></trkpt><trkpt lat="44.6383753553181" lon="8.178365456955678"><ele>266.0</ele><time>2026-03-29T12:42:11Z</time></trkpt><trkpt lat="44.63829674261613" lon="8.17835095573992"><ele>266.1666666666667</ele><time>2026-03-29T12:42:15Z</time></trkpt><trkpt lat="44.63821531785299" lon="8.178340234291873"><ele>266.33333333333337</ele><time>2026-03-29T12:42:19Z</time></trkpt><trkpt lat="44.6381365258122" lon="8.178328565906579"><ele>266.5</ele><time>2026-03-29T12:42:23Z</time></trkpt><trkpt lat="44.63806372246002" lon="8.178326942574287"><ele>266.6666666666667</ele><time>2026-03-29T12:42:27Z</time></trkpt><trkpt lat="44.63800630287303" lon="8.178251218771575"><ele>266.8333333333333</ele><time>2026-03-29T12:42:32Z</time></trkpt><trkpt lat="44.63798636726866" lon="8.17814804790982"><ele>267.0</ele><time>2026-03-29T12:42:36Z</time></trkpt><trkpt lat="44.637969715301374" lon="8.17805099761186"><ele>267.00000000000006</ele><time>2026-03-29T12:42:38.999Z</time></trkpt><trkpt lat="44.63795010678565" lon="8.177954527619356"><ele>267.0</ele><time>2026-03-29T12:42:41.999Z</time></trkpt><trkpt lat="44.63793040406308" lon="8.17784700050357"><ele>267.0</ele><time>2026-03-29T12:42:44.999Z</time></trkpt><trkpt lat="44.637903286558604" lon="8.17774980013927"><ele>267.0</ele><time>2026-03-29T12:42:47.999Z</time></trkpt><trkpt lat="44.63788485512745" lon="8.177663129394334"><ele>267.0</ele><time>2026-03-29T12:42:50.999Z</time></trkpt><trkpt lat="44.63786159341623" lon="8.177564369962592"><ele>267.00000000000006</ele><time>2026-03-29T12:42:53.999Z</time></trkpt><trkpt lat="44.637837917471465" lon="8.177448018624322"><ele>267.0</ele><time>2026-03-29T12:42:57.001Z</time></trkpt><trkpt lat="44.63781366356672" lon="8.177350306014743"><ele>267.5</ele><time>2026-03-29T12:43:00.001Z</time></trkpt><trkpt lat="44.63778852982982" lon="8.177248011388464"><ele>268.0</ele><time>2026-03-29T12:43:03.001Z</time></trkpt><trkpt lat="44.63776309653439" lon="8.177148504782851"><ele>268.5</ele><time>2026-03-29T12:43:06.001Z</time></trkpt><trkpt lat="44.63773577516048" lon="8.177035423209349"><ele>269.0</ele><time>2026-03-29T12:43:09.001Z</time></trkpt><trkpt lat="44.63771152549117" lon="8.176951146314698"><ele>269.5</ele><time>2026-03-29T12:43:11Z</time></trkpt><trkpt lat="44.637677620534916" lon="8.17683971348422"><ele>270.0</ele><time>2026-03-29T12:43:14Z</time></trkpt><trkpt lat="44.63763989939359" lon="8.17672835210802"><ele>270.0</ele><time>2026-03-29T12:43:17Z</time></trkpt><trkpt lat="44.63760825564486" lon="8.176638682716211"><ele>270.0</ele><time>2026-03-29T12:43:19Z</time></trkpt><trkpt lat="44.63756882057035" lon="8.176569148688058"><ele>270.0</ele><time>2026-03-29T12:43:21Z</time></trkpt><trkpt lat="44.63751562652611" lon="8.176465029784936"><ele>270.0</ele><time>2026-03-29T12:43:24Z</time></trkpt><trkpt lat="44.63747357899055" lon="8.17639455500707"><ele>270.0</ele><time>2026-03-29T12:43:26Z</time></trkpt><trkpt lat="44.63742348617072" lon="8.17631445566523"><ele>270.0</ele><time>2026-03-29T12:43:28Z</time></trkpt><trkpt lat="44.63737017409984" lon="8.176239486882848"><ele>270.0</ele><time>2026-03-29T12:43:30Z</time></trkpt><trkpt lat="44.637311787619055" lon="8.176169821939727"><ele>270.1428571428571</ele><time>2026-03-29T12:43:32Z</time></trkpt><trkpt lat="44.637258449976436" lon="8.17610664930759"><ele>270.2857142857143</ele><time>2026-03-29T12:43:34Z</time></trkpt><trkpt lat="44.63720396126794" lon="8.176044076753438"><ele>270.42857142857144</ele><time>2026-03-29T12:43:36Z</time></trkpt><trkpt lat="44.63714570611259" lon="8.175984353397174"><ele>270.57142857142856</ele><time>2026-03-29T12:43:38Z</time></trkpt><trkpt lat="44.637090710115885" lon="8.17592406169148"><ele>270.7142857142857</ele><time>2026-03-29T12:43:40Z</time></trkpt><trkpt lat="44.637031428543025" lon="8.175866778036887"><ele>270.85714285714283</ele><time>2026-03-29T12:43:42Z</time></trkpt><trkpt lat="44.63697533974012" lon="8.175809594653527"><ele>271.0</ele><time>2026-03-29T12:43:44Z</time></trkpt><trkpt lat="44.636919678488105" lon="8.17574683754327"><ele>272.0</ele><time>2026-03-29T12:43:46Z</time></trkpt><trkpt lat="44.63685828819039" lon="8.175683787684179"><ele>273.0</ele><time>2026-03-29T12:43:48Z</time></trkpt><trkpt lat="44.63680358455654" lon="8.175624744073268"><ele>274.0</ele><time>2026-03-29T12:43:50Z</time></trkpt><trkpt lat="44.6367486512604" lon="8.175562849426589"><ele>275.0</ele><time>2026-03-29T12:43:52Z</time></trkpt><trkpt lat="44.63669322642578" lon="8.175520180618426"><ele>276.0</ele><time>2026-03-29T12:43:54Z</time></trkpt><trkpt lat="44.63665114903211" lon="8.175440327673739"><ele>277.0</ele><time>2026-03-29T12:43:57Z</time></trkpt><trkpt lat="44.63672166661765" lon="8.175344980239158"><ele>278.0</ele><time>2026-03-29T12:44:00Z</time></trkpt><trkpt lat="44.6368013555082" lon="8.175409781601461"><ele>278.0</ele><time>2026-03-29T12:44:02Z</time></trkpt><trkpt lat="44.63686534647606" lon="8.175455201356153"><ele>278.0</ele><time>2026-03-29T12:44:08Z</time></trkpt><trkpt lat="44.63680970368746" lon="8.17549238466195"><ele>278.0</ele><time>2026-03-29T12:49:50Z</time></trkpt><trkpt lat="44.6368683434134" lon="8.175440993257789"><ele>278.0</ele><time>2026-03-29T12:50:06Z</time></trkpt><trkpt lat="44.63681377539461" lon="8.1753734809707"><ele>278.0</ele><time>2026-03-29T12:50:09Z</time></trkpt><trkpt lat="44.63675043074546" lon="8.17537710148677"><ele>278.0</ele><time>2026-03-29T12:50:12Z</time></trkpt><trkpt lat="44.636675505481406" lon="8.175356194677356"><ele>278.0</ele><time>2026-03-29T12:50:18Z</time></trkpt><trkpt lat="44.636647834910356" lon="8.17544741992557"><ele>278.0</ele><time>2026-03-29T12:50:21.999Z</time></trkpt><trkpt lat="44.63669613237643" lon="8.175522469074888"><ele>278.0</ele><time>2026-03-29T12:50:52.999Z</time></trkpt><trkpt lat="44.636744289204245" lon="8.175599523244085"><ele>278.0</ele><time>2026-03-29T12:50:55.999Z</time></trkpt><trkpt lat="44.63679403117489" lon="8.175658091335297"><ele>278.0</ele><time>2026-03-29T12:50:58.999Z</time></trkpt><trkpt lat="44.636847902254424" lon="8.175735759490566"><ele>278.0</ele><time>2026-03-29T12:51:01.999Z</time></trkpt><trkpt lat="44.636915834909516" lon="8.17580185079165"><ele>278.0</ele><time>2026-03-29T12:51:04.999Z</time></trkpt><trkpt lat="44.6369821562766" lon="8.17588035162924"><ele>277.0</ele><time>2026-03-29T12:51:07.999Z</time></trkpt><trkpt lat="44.63703846224693" lon="8.175938854378945"><ele>276.0</ele><time>2026-03-29T12:51:09.999Z</time></trkpt><trkpt lat="44.63709985689965" lon="8.175990240320525"><ele>275.0</ele><time>2026-03-29T12:51:11.999Z</time></trkpt><trkpt lat="44.63715295231452" lon="8.176055074227147"><ele>274.0</ele><time>2026-03-29T12:51:13.999Z</time></trkpt><trkpt lat="44.63720169521948" lon="8.176113759055466"><ele>273.0</ele><time>2026-03-29T12:51:15.999Z</time></trkpt><trkpt lat="44.63725516467737" lon="8.17617634132005"><ele>272.0</ele><time>2026-03-29T12:51:17.999Z</time></trkpt><trkpt lat="44.63731155135379" lon="8.17624619752908"><ele>271.0</ele><time>2026-03-29T12:51:19.999Z</time></trkpt><trkpt lat="44.63736361528641" lon="8.176317741643388"><ele>271.0</ele><time>2026-03-29T12:51:21.999Z</time></trkpt><trkpt lat="44.63741459476241" lon="8.17640172482585"><ele>271.0</ele><time>2026-03-29T12:51:23.999Z</time></trkpt><trkpt lat="44.637466081921374" lon="8.176486543069476"><ele>271.0</ele><time>2026-03-29T12:51:25.999Z</time></trkpt><trkpt lat="44.63750890735672" lon="8.176568462405951"><ele>271.0</ele><time>2026-03-29T12:51:27.999Z</time></trkpt><trkpt lat="44.637552532671535" lon="8.176657934236207"><ele>271.0</ele><time>2026-03-29T12:51:29.999Z</time></trkpt><trkpt lat="44.63759270135782" lon="8.176750247540028"><ele>271.0</ele><time>2026-03-29T12:51:31.999Z</time></trkpt><trkpt lat="44.63762428160844" lon="8.17684407876643"><ele>270.8333333333333</ele><time>2026-03-29T12:51:33.999Z</time></trkpt><trkpt lat="44.63766000451533" lon="8.17694057888334"><ele>270.66666666666663</ele><time>2026-03-29T12:51:35.999Z</time></trkpt><trkpt lat="44.63769256795239" lon="8.177034417294486"><ele>270.5</ele><time>2026-03-29T12:51:37.999Z</time></trkpt><trkpt lat="44.6377190947435" lon="8.17713452630091"><ele>270.3333333333333</ele><time>2026-03-29T12:51:39.999Z</time></trkpt><trkpt lat="44.63774265717913" lon="8.177236460833887"><ele>270.1666666666667</ele><time>2026-03-29T12:51:41.999Z</time></trkpt><trkpt lat="44.63776860922881" lon="8.177334939008604"><ele>270.0</ele><time>2026-03-29T12:51:43.999Z</time></trkpt><trkpt lat="44.63778932723354" lon="8.177432254511057"><ele>269.5</ele><time>2026-03-29T12:51:45.999Z</time></trkpt><trkpt lat="44.637820472327725" lon="8.177527025156301"><ele>269.0</ele><time>2026-03-29T12:51:47.999Z</time></trkpt><trkpt lat="44.6378480599355" lon="8.177649746179453"><ele>268.5</ele><time>2026-03-29T12:51:50.999Z</time></trkpt><trkpt lat="44.63787007960044" lon="8.177759270251633"><ele>268.0</ele><time>2026-03-29T12:51:53.999Z</time></trkpt><trkpt lat="44.63789855531064" lon="8.177880592699653"><ele>267.5</ele><time>2026-03-29T12:51:56.999Z</time></trkpt><trkpt lat="44.63791515218443" lon="8.177967647348822"><ele>267.0</ele><time>2026-03-29T12:51:58.999Z</time></trkpt><trkpt lat="44.63793503227984" lon="8.178052667648473"><ele>267.0</ele><time>2026-03-29T12:52:00.999Z</time></trkpt><trkpt lat="44.637960259624414" lon="8.178166511883786"><ele>267.0</ele><time>2026-03-29T12:52:03.999Z</time></trkpt><trkpt lat="44.63798083006015" lon="8.17825232972561"><ele>267.0</ele><time>2026-03-29T12:52:06.999Z</time></trkpt><trkpt lat="44.63799732542854" lon="8.178349034228491"><ele>267.0</ele><time>2026-03-29T12:52:10.999Z</time></trkpt><trkpt lat="44.63802454510473" lon="8.178448628875802"><ele>267.0</ele><time>2026-03-29T12:52:13.999Z</time></trkpt><trkpt lat="44.638056629533104" lon="8.17855493113263"><ele>267.0</ele><time>2026-03-29T12:52:16.999Z</time></trkpt><trkpt lat="44.638095963131285" lon="8.178670145354165"><ele>267.0</ele><time>2026-03-29T12:52:19.999Z</time></trkpt><trkpt lat="44.63813198905928" lon="8.178756748259723"><ele>267.0</ele><time>2026-03-29T12:52:21.999Z</time></trkpt><trkpt lat="44.63816891289853" lon="8.178838891687258"><ele>267.0</ele><time>2026-03-29T12:52:23.999Z</time></trkpt><trkpt lat="44.63821471361755" lon="8.178922402271558"><ele>267.0</ele><time>2026-03-29T12:52:25.999Z</time></trkpt><trkpt lat="44.63826997449098" lon="8.179006324183534"><ele>267.0</ele><time>2026-03-29T12:52:27.999Z</time></trkpt><trkpt lat="44.638318126903435" lon="8.179096529119409"><ele>267.0</ele><time>2026-03-29T12:52:29.999Z</time></trkpt><trkpt lat="44.638369648044815" lon="8.179198457912353"><ele>266.6666666666667</ele><time>2026-03-29T12:52:31.999Z</time></trkpt><trkpt lat="44.63843190454981" lon="8.1792943394521"><ele>266.3333333333333</ele><time>2026-03-29T12:52:33.999Z</time></trkpt><trkpt lat="44.63848788164802" lon="8.179396004920198"><ele>266.0</ele><time>2026-03-29T12:52:35.999Z</time></trkpt><trkpt lat="44.6385404437953" lon="8.17949619725635"><ele>265.66666666666663</ele><time>2026-03-29T12:52:37.999Z</time></trkpt><trkpt lat="44.63859323159098" lon="8.179595702817036"><ele>265.3333333333333</ele><time>2026-03-29T12:52:39.999Z</time></trkpt><trkpt lat="44.63864630149427" lon="8.17969243226805"><ele>265.0</ele><time>2026-03-29T12:52:41.999Z</time></trkpt><trkpt lat="44.63869938468492" lon="8.179790782211061"><ele>265.3333333333333</ele><time>2026-03-29T12:52:43.999Z</time></trkpt><trkpt lat="44.6387499761788" lon="8.1798881169108"><ele>265.66666666666663</ele><time>2026-03-29T12:52:45.999Z</time></trkpt><trkpt lat="44.638801139716676" lon="8.179983118166264"><ele>266.0</ele><time>2026-03-29T12:52:47.999Z</time></trkpt><trkpt lat="44.63885161315687" lon="8.180066577277783"><ele>266.3333333333333</ele><time>2026-03-29T12:52:49.999Z</time></trkpt><trkpt lat="44.63890400373726" lon="8.180139567936664"><ele>266.6666666666667</ele><time>2026-03-29T12:52:51.999Z</time></trkpt><trkpt lat="44.63895633496729" lon="8.1802093931845"><ele>267.0</ele><time>2026-03-29T12:52:53.999Z</time></trkpt><trkpt lat="44.63900979027777" lon="8.180272988198293"><ele>267.00000000000006</ele><time>2026-03-29T12:52:55.999Z</time></trkpt><trkpt lat="44.63906638316702" lon="8.180338874448331"><ele>267.0</ele><time>2026-03-29T12:52:57.999Z</time></trkpt><trkpt lat="44.639124593460465" lon="8.180398100719886"><ele>267.0</ele><time>2026-03-29T12:52:59.999Z</time></trkpt><trkpt lat="44.63918036597052" lon="8.180449686813173"><ele>267.0</ele><time>2026-03-29T12:53:01.999Z</time></trkpt><trkpt lat="44.63923595599687" lon="8.180499238223959"><ele>267.0</ele><time>2026-03-29T12:53:03.999Z</time></trkpt><trkpt lat="44.639299816323216" lon="8.180546050390653"><ele>267.00000000000006</ele><time>2026-03-29T12:53:05.999Z</time></trkpt><trkpt lat="44.63935464846854" lon="8.18059428564644"><ele>267.0</ele><time>2026-03-29T12:53:07.999Z</time></trkpt><trkpt lat="44.639421340086784" lon="8.180643820648783"><ele>267.0</ele><time>2026-03-29T12:53:09.999Z</time></trkpt><trkpt lat="44.639490801798765" lon="8.180693605211198"><ele>267.0</ele><time>2026-03-29T12:53:11.999Z</time></trkpt><trkpt lat="44.639557491413164" lon="8.180751638004958"><ele>267.0</ele><time>2026-03-29T12:53:13.999Z</time></trkpt><trkpt lat="44.6396254835931" lon="8.180803673406409"><ele>267.0</ele><time>2026-03-29T12:53:15.999Z</time></trkpt><trkpt lat="44.63968966219927" lon="8.180851351182278"><ele>267.0</ele><time>2026-03-29T12:53:17.999Z</time></trkpt><trkpt lat="44.639753489873414" lon="8.18089555797326"><ele>267.0</ele><time>2026-03-29T12:53:19.999Z</time></trkpt><trkpt lat="44.639827863197226" lon="8.180952400613704"><ele>267.0</ele><time>2026-03-29T12:53:22.999Z</time></trkpt><trkpt lat="44.639897085403454" lon="8.181018054791434"><ele>267.0</ele><time>2026-03-29T12:53:25.999Z</time></trkpt><trkpt lat="44.63995390895116" lon="8.181063763910142"><ele>267.0</ele><time>2026-03-29T12:53:27.999Z</time></trkpt><trkpt lat="44.640021391170976" lon="8.18113350241265"><ele>267.0</ele><time>2026-03-29T12:53:30.999Z</time></trkpt><trkpt lat="44.64008376505203" lon="8.181181311770718"><ele>267.0</ele><time>2026-03-29T12:53:32.999Z</time></trkpt><trkpt lat="44.64015549737871" lon="8.181232776383881"><ele>267.0</ele><time>2026-03-29T12:53:34.999Z</time></trkpt><trkpt lat="44.64024073562" lon="8.181294930032749"><ele>267.0</ele><time>2026-03-29T12:53:36.999Z</time></trkpt><trkpt lat="44.64033700618325" lon="8.18136917405097"><ele>267.0</ele><time>2026-03-29T12:53:38.999Z</time></trkpt><trkpt lat="44.64043167491501" lon="8.1814477097542"><ele>267.0</ele><time>2026-03-29T12:53:40.999Z</time></trkpt><trkpt lat="44.640530457112355" lon="8.181520130605476"><ele>267.0</ele><time>2026-03-29T12:53:42.999Z</time></trkpt><trkpt lat="44.64063054476635" lon="8.181603899249529"><ele>267.0</ele><time>2026-03-29T12:53:44.999Z</time></trkpt><trkpt lat="44.64073280861779" lon="8.181687040350564"><ele>267.0</ele><time>2026-03-29T12:53:46.999Z</time></trkpt><trkpt lat="44.64083064917773" lon="8.181764431241003"><ele>267.0</ele><time>2026-03-29T12:53:48.999Z</time></trkpt><trkpt lat="44.64093817883261" lon="8.181843277652183"><ele>267.0</ele><time>2026-03-29T12:53:50.999Z</time></trkpt><trkpt lat="44.641047075051866" lon="8.181921354534257"><ele>267.0</ele><time>2026-03-29T12:53:52.999Z</time></trkpt><trkpt lat="44.64114883847723" lon="8.182005326025198"><ele>265.75</ele><time>2026-03-29T12:53:54.999Z</time></trkpt><trkpt lat="44.64125237835111" lon="8.18208426986823"><ele>264.5</ele><time>2026-03-29T12:53:56.999Z</time></trkpt><trkpt lat="44.6413595267112" lon="8.18216157330675"><ele>263.25</ele><time>2026-03-29T12:53:58.999Z</time></trkpt><trkpt lat="44.64146699145205" lon="8.182233327496222"><ele>262.0</ele><time>2026-03-29T12:54:00.999Z</time></trkpt><trkpt lat="44.641570873864616" lon="8.182311371056853"><ele>262.25</ele><time>2026-03-29T12:54:02.999Z</time></trkpt><trkpt lat="44.64167213178819" lon="8.182374247811234"><ele>262.5</ele><time>2026-03-29T12:54:04.999Z</time></trkpt><trkpt lat="44.64177387552691" lon="8.18243474075531"><ele>262.75</ele><time>2026-03-29T12:54:06.999Z</time></trkpt><trkpt lat="44.64187812007667" lon="8.182498818168714"><ele>263.0</ele><time>2026-03-29T12:54:08.999Z</time></trkpt><trkpt lat="44.641986298169435" lon="8.182560226824462"><ele>262.0</ele><time>2026-03-29T12:54:10.999Z</time></trkpt><trkpt lat="44.64209490150549" lon="8.182615510638298"><ele>261.0</ele><time>2026-03-29T12:54:12.999Z</time></trkpt><trkpt lat="44.64220314907793" lon="8.182683297338677"><ele>260.0</ele><time>2026-03-29T12:54:14.999Z</time></trkpt><trkpt lat="44.642303245168804" lon="8.182744766296372"><ele>259.0</ele><time>2026-03-29T12:54:16.999Z</time></trkpt><trkpt lat="44.64240568133812" lon="8.182794886944773"><ele>259.0</ele><time>2026-03-29T12:54:18.999Z</time></trkpt><trkpt lat="44.64250147752559" lon="8.182835279042163"><ele>259.0</ele><time>2026-03-29T12:54:20.999Z</time></trkpt><trkpt lat="44.64258901902647" lon="8.18288950246976"><ele>259.0</ele><time>2026-03-29T12:54:22.999Z</time></trkpt><trkpt lat="44.64267561236961" lon="8.182947949251137"><ele>259.0</ele><time>2026-03-29T12:54:24.999Z</time></trkpt><trkpt lat="44.64276768503183" lon="8.182999966246946"><ele>259.0</ele><time>2026-03-29T12:54:26.999Z</time></trkpt><trkpt lat="44.64286350665589" lon="8.183055511554846"><ele>258.59999999999997</ele><time>2026-03-29T12:54:28.999Z</time></trkpt><trkpt lat="44.64295063148005" lon="8.183117227397446"><ele>258.2</ele><time>2026-03-29T12:54:30.999Z</time></trkpt><trkpt lat="44.643044634871394" lon="8.183164797558197"><ele>257.79999999999995</ele><time>2026-03-29T12:54:32.999Z</time></trkpt><trkpt lat="44.64313670919747" lon="8.183219405186394"><ele>257.4</ele><time>2026-03-29T12:54:34.999Z</time></trkpt><trkpt lat="44.6432362108799" lon="8.183273284631836"><ele>257.0</ele><time>2026-03-29T12:54:36.999Z</time></trkpt><trkpt lat="44.64333783455388" lon="8.18332724325952"><ele>257.0</ele><time>2026-03-29T12:54:38.999Z</time></trkpt><trkpt lat="44.643438224898325" lon="8.183383246608038"><ele>257.0</ele><time>2026-03-29T12:54:40.999Z</time></trkpt><trkpt lat="44.643537057087656" lon="8.183441819356984"><ele>257.0</ele><time>2026-03-29T12:54:42.999Z</time></trkpt><trkpt lat="44.64363443786791" lon="8.18349052723557"><ele>257.0</ele><time>2026-03-29T12:54:44.999Z</time></trkpt><trkpt lat="44.64372931794077" lon="8.183542813748433"><ele>257.0</ele><time>2026-03-29T12:54:46.999Z</time></trkpt><trkpt lat="44.64382012725073" lon="8.183599205636051"><ele>256.6</ele><time>2026-03-29T12:54:48.999Z</time></trkpt><trkpt lat="44.64391006667136" lon="8.183650955077566"><ele>256.2</ele><time>2026-03-29T12:54:50.999Z</time></trkpt><trkpt lat="44.643999408494814" lon="8.183705781062022"><ele>255.8</ele><time>2026-03-29T12:54:52.999Z</time></trkpt><trkpt lat="44.64409331200547" lon="8.183758748254759"><ele>255.4</ele><time>2026-03-29T12:54:54.999Z</time></trkpt><trkpt lat="44.64418917581742" lon="8.183812057084214"><ele>255.0</ele><time>2026-03-29T12:54:56.999Z</time></trkpt><trkpt lat="44.64428461613461" lon="8.183861275144222"><ele>255.0</ele><time>2026-03-29T12:54:58.999Z</time></trkpt><trkpt lat="44.64438088861119" lon="8.183919524129578"><ele>255.0</ele><time>2026-03-29T12:55:00.999Z</time></trkpt><trkpt lat="44.64447369041541" lon="8.183979214935295"><ele>255.0</ele><time>2026-03-29T12:55:02.999Z</time></trkpt><trkpt lat="44.64456251825354" lon="8.184026382083909"><ele>255.0</ele><time>2026-03-29T12:55:04.999Z</time></trkpt><trkpt lat="44.64465267358786" lon="8.184076328918337"><ele>255.0</ele><time>2026-03-29T12:55:06.999Z</time></trkpt><trkpt lat="44.6447490068921" lon="8.184131966754387"><ele>254.5</ele><time>2026-03-29T12:55:08.999Z</time></trkpt><trkpt lat="44.644854087742885" lon="8.184189909138862"><ele>254.0</ele><time>2026-03-29T12:55:10.999Z</time></trkpt><trkpt lat="44.64496146745502" lon="8.184251654317414"><ele>253.5</ele><time>2026-03-29T12:55:12.999Z</time></trkpt><trkpt lat="44.64507139033039" lon="8.184313143817729"><ele>253.0</ele><time>2026-03-29T12:55:14.999Z</time></trkpt><trkpt lat="44.64518303302919" lon="8.184373880729588"><ele>253.0</ele><time>2026-03-29T12:55:16.999Z</time></trkpt><trkpt lat="44.64529283880536" lon="8.184440988672849"><ele>253.0</ele><time>2026-03-29T12:55:18.999Z</time></trkpt><trkpt lat="44.64540692925752" lon="8.184503714382862"><ele>253.0</ele><time>2026-03-29T12:55:20.999Z</time></trkpt><trkpt lat="44.645524190596156" lon="8.184567239498099"><ele>253.0</ele><time>2026-03-29T12:55:22.999Z</time></trkpt><trkpt lat="44.64558289659788" lon="8.184600856992322"><ele>253.0</ele><time>2026-03-29T12:55:23.999Z</time></trkpt><trkpt lat="44.64564089750762" lon="8.184636606531184"><ele>252.8</ele><time>2026-03-29T12:55:24.999Z</time></trkpt><trkpt lat="44.64575390887938" lon="8.184705212092638"><ele>252.60000000000002</ele><time>2026-03-29T12:55:26.999Z</time></trkpt><trkpt lat="44.6458694412002" lon="8.184765677770072"><ele>252.39999999999998</ele><time>2026-03-29T12:55:28.999Z</time></trkpt><trkpt lat="44.64592848421089" lon="8.184798224374724"><ele>252.2</ele><time>2026-03-29T12:55:29.999Z</time></trkpt><trkpt lat="44.645987565158194" lon="8.184830833695353"><ele>252.0</ele><time>2026-03-29T12:55:30.999Z</time></trkpt><trkpt lat="44.646104171600676" lon="8.18489781548254"><ele>252.0</ele><time>2026-03-29T12:55:32.999Z</time></trkpt><trkpt lat="44.64621611981229" lon="8.184963807562676"><ele>252.0</ele><time>2026-03-29T12:55:34.999Z</time></trkpt><trkpt lat="44.6463268141684" lon="8.185027979051975"><ele>252.0</ele><time>2026-03-29T12:55:36.999Z</time></trkpt><trkpt lat="44.64643320207479" lon="8.185089756655023"><ele>252.0</ele><time>2026-03-29T12:55:38.999Z</time></trkpt><trkpt lat="44.64653671192149" lon="8.185149480778273"><ele>252.0</ele><time>2026-03-29T12:55:40.999Z</time></trkpt><trkpt lat="44.64663877253134" lon="8.185210883722638"><ele>252.0</ele><time>2026-03-29T12:55:42.999Z</time></trkpt><trkpt lat="44.64674137497768" lon="8.185274077001639"><ele>252.0</ele><time>2026-03-29T12:55:44.999Z</time></trkpt><trkpt lat="44.646847331094" lon="8.185338789654468"><ele>252.0</ele><time>2026-03-29T12:55:46.999Z</time></trkpt><trkpt lat="44.646956785069676" lon="8.185399650526126"><ele>251.5</ele><time>2026-03-29T12:55:48.999Z</time></trkpt><trkpt lat="44.64706797163187" lon="8.185465615614698"><ele>251.0</ele><time>2026-03-29T12:55:50.999Z</time></trkpt><trkpt lat="44.6471804760417" lon="8.185526882511493"><ele>250.5</ele><time>2026-03-29T12:55:52.999Z</time></trkpt><trkpt lat="44.64729027700521" lon="8.185593400161736"><ele>250.0</ele><time>2026-03-29T12:55:54.999Z</time></trkpt><trkpt lat="44.64740010778622" lon="8.185664124825896"><ele>249.8</ele><time>2026-03-29T12:55:56.999Z</time></trkpt><trkpt lat="44.64750685115009" lon="8.18572034183841"><ele>249.6</ele><time>2026-03-29T12:55:58.999Z</time></trkpt><trkpt lat="44.64760249032453" lon="8.185782427331834"><ele>249.39999999999998</ele><time>2026-03-29T12:56:00.999Z</time></trkpt><trkpt lat="44.6476873980691" lon="8.185829009023669"><ele>249.2</ele><time>2026-03-29T12:56:02.999Z</time></trkpt><trkpt lat="44.64776714577731" lon="8.185876055887814"><ele>249.0</ele><time>2026-03-29T12:56:04.999Z</time></trkpt><trkpt lat="44.64785230918563" lon="8.185921568263458"><ele>249.0</ele><time>2026-03-29T12:56:06.999Z</time></trkpt><trkpt lat="44.64793798151821" lon="8.185975968266227"><ele>249.0</ele><time>2026-03-29T12:56:08.999Z</time></trkpt><trkpt lat="44.64802589709992" lon="8.186029506852632"><ele>249.0</ele><time>2026-03-29T12:56:10.999Z</time></trkpt><trkpt lat="44.648105862719135" lon="8.186080644312481"><ele>249.0</ele><time>2026-03-29T12:56:12.999Z</time></trkpt><trkpt lat="44.64818530574904" lon="8.186125899394332"><ele>249.0</ele><time>2026-03-29T12:56:14.999Z</time></trkpt><trkpt lat="44.64826250808281" lon="8.186179456566308"><ele>249.0</ele><time>2026-03-29T12:56:16.999Z</time></trkpt><trkpt lat="44.648348259913135" lon="8.186230059731875"><ele>249.0</ele><time>2026-03-29T12:56:18.999Z</time></trkpt><trkpt lat="44.6484351288331" lon="8.186285425024074"><ele>249.0</ele><time>2026-03-29T12:56:20.999Z</time></trkpt><trkpt lat="44.64852222181436" lon="8.186334577528976"><ele>249.0</ele><time>2026-03-29T12:56:22.999Z</time></trkpt><trkpt lat="44.64860106532351" lon="8.186386352547201"><ele>249.0</ele><time>2026-03-29T12:56:24.999Z</time></trkpt><trkpt lat="44.64868270939166" lon="8.18642856895301"><ele>249.0</ele><time>2026-03-29T12:56:26.999Z</time></trkpt><trkpt lat="44.64875850808435" lon="8.186479106461745"><ele>249.0</ele><time>2026-03-29T12:56:28.999Z</time></trkpt><trkpt lat="44.64883624061747" lon="8.186518801549495"><ele>249.33333333333334</ele><time>2026-03-29T12:56:30.999Z</time></trkpt><trkpt lat="44.64889914100629" lon="8.18656203199988"><ele>249.66666666666669</ele><time>2026-03-29T12:56:32.999Z</time></trkpt><trkpt lat="44.648988080967605" lon="8.186609172444763"><ele>250.0</ele><time>2026-03-29T12:56:34.999Z</time></trkpt><trkpt lat="44.649064270545644" lon="8.18665246190278"><ele>250.33333333333334</ele><time>2026-03-29T12:56:36.999Z</time></trkpt><trkpt lat="44.64914184603571" lon="8.186701902492842"><ele>250.66666666666669</ele><time>2026-03-29T12:56:38.999Z</time></trkpt><trkpt lat="44.64921728096946" lon="8.186744740336016"><ele>251.0</ele><time>2026-03-29T12:56:40.999Z</time></trkpt><trkpt lat="44.64929624073778" lon="8.186784890162595"><ele>251.00000000000003</ele><time>2026-03-29T12:56:42.999Z</time></trkpt><trkpt lat="44.64937564532673" lon="8.186831164065135"><ele>251.0</ele><time>2026-03-29T12:56:44.999Z</time></trkpt><trkpt lat="44.649455907236195" lon="8.186876730195157"><ele>251.0</ele><time>2026-03-29T12:56:46.999Z</time></trkpt><trkpt lat="44.64953674198038" lon="8.186928956137615"><ele>251.0</ele><time>2026-03-29T12:56:48.999Z</time></trkpt><trkpt lat="44.64961870122292" lon="8.186974737006235"><ele>251.00000000000003</ele><time>2026-03-29T12:56:50.999Z</time></trkpt><trkpt lat="44.649697103601554" lon="8.187027080737787"><ele>251.0</ele><time>2026-03-29T12:56:52.999Z</time></trkpt><trkpt lat="44.6497769256853" lon="8.18707336542377"><ele>250.0</ele><time>2026-03-29T12:56:54.999Z</time></trkpt><trkpt lat="44.64985880645576" lon="8.187122052610455"><ele>249.00000000000003</ele><time>2026-03-29T12:56:56.999Z</time></trkpt><trkpt lat="44.649944009862054" lon="8.187178195061886"><ele>248.00000000000003</ele><time>2026-03-29T12:56:58.999Z</time></trkpt><trkpt lat="44.650029024847484" lon="8.187224833811122"><ele>247.0</ele><time>2026-03-29T12:57:00.999Z</time></trkpt><trkpt lat="44.650113305842005" lon="8.187277804424035"><ele>246.0</ele><time>2026-03-29T12:57:02.999Z</time></trkpt><trkpt lat="44.65019609055035" lon="8.187323243229411"><ele>247.0</ele><time>2026-03-29T12:57:04.999Z</time></trkpt><trkpt lat="44.65027275927516" lon="8.187364569579811"><ele>248.0</ele><time>2026-03-29T12:57:06.999Z</time></trkpt><trkpt lat="44.65035109151237" lon="8.187417279538755"><ele>249.0</ele><time>2026-03-29T12:57:08.999Z</time></trkpt><trkpt lat="44.65043538620376" lon="8.187460684763344"><ele>250.0</ele><time>2026-03-29T12:57:10.999Z</time></trkpt><trkpt lat="44.6505201246062" lon="8.187508895600688"><ele>251.0</ele><time>2026-03-29T12:57:12.999Z</time></trkpt><trkpt lat="44.65059655579664" lon="8.187552327873819"><ele>252.0</ele><time>2026-03-29T12:57:14.999Z</time></trkpt><trkpt lat="44.65066826319148" lon="8.18759818632715"><ele>252.0</ele><time>2026-03-29T12:57:16.999Z</time></trkpt><trkpt lat="44.650746204299715" lon="8.18764304298634"><ele>252.0</ele><time>2026-03-29T12:57:18.999Z</time></trkpt><trkpt lat="44.65082188325719" lon="8.187689184299847"><ele>252.0</ele><time>2026-03-29T12:57:20.999Z</time></trkpt><trkpt lat="44.650898722104316" lon="8.18772928790597"><ele>252.0</ele><time>2026-03-29T12:57:22.999Z</time></trkpt><trkpt lat="44.6509674860229" lon="8.187768140510247"><ele>252.0</ele><time>2026-03-29T12:57:24.999Z</time></trkpt><trkpt lat="44.651037788276206" lon="8.18779723834707"><ele>252.0</ele><time>2026-03-29T12:57:26.999Z</time></trkpt><trkpt lat="44.65110410024298" lon="8.187834383295066"><ele>250.85714285714286</ele><time>2026-03-29T12:57:28.999Z</time></trkpt><trkpt lat="44.65117312059913" lon="8.187866609478919"><ele>249.71428571428572</ele><time>2026-03-29T12:57:30.999Z</time></trkpt><trkpt lat="44.651246139840225" lon="8.187897203019828"><ele>248.57142857142856</ele><time>2026-03-29T12:57:32.999Z</time></trkpt><trkpt lat="44.65131257804391" lon="8.18792579702091"><ele>247.42857142857142</ele><time>2026-03-29T12:57:34.999Z</time></trkpt><trkpt lat="44.651384084910084" lon="8.187945579768641"><ele>246.28571428571428</ele><time>2026-03-29T12:57:36.999Z</time></trkpt><trkpt lat="44.65145887627469" lon="8.187960459983685"><ele>245.1428571428571</ele><time>2026-03-29T12:57:38.999Z</time></trkpt><trkpt lat="44.65153591777367" lon="8.187956617764781"><ele>243.99999999999997</ele><time>2026-03-29T12:57:40.999Z</time></trkpt><trkpt lat="44.651612145913546" lon="8.18797198655225"><ele>243.99999999999997</ele><time>2026-03-29T12:57:42.999Z</time></trkpt><trkpt lat="44.651681379621245" lon="8.187981045415029"><ele>244.0</ele><time>2026-03-29T12:57:44.999Z</time></trkpt><trkpt lat="44.65175337734843" lon="8.187986764181943"><ele>243.99999999999997</ele><time>2026-03-29T12:57:46.999Z</time></trkpt><trkpt lat="44.65182458176864" lon="8.187989232845323"><ele>243.99999999999997</ele><time>2026-03-29T12:57:48.999Z</time></trkpt><trkpt lat="44.65189609847466" lon="8.187994649938725"><ele>244.0</ele><time>2026-03-29T12:57:50.999Z</time></trkpt><trkpt lat="44.65196402882021" lon="8.187995734905575"><ele>243.99999999999997</ele><time>2026-03-29T12:57:52.999Z</time></trkpt><trkpt lat="44.65204104111551" lon="8.188009834190334"><ele>243.99999999999997</ele><time>2026-03-29T12:57:54.999Z</time></trkpt><trkpt lat="44.652117014715856" lon="8.188025116892835"><ele>244.16666666666666</ele><time>2026-03-29T12:57:56.999Z</time></trkpt><trkpt lat="44.652194682282136" lon="8.188047380925292"><ele>244.33333333333331</ele><time>2026-03-29T12:57:58.999Z</time></trkpt><trkpt lat="44.65227237933812" lon="8.188078814279628"><ele>244.5</ele><time>2026-03-29T12:58:00.999Z</time></trkpt><trkpt lat="44.65235053808526" lon="8.188125639901"><ele>244.66666666666669</ele><time>2026-03-29T12:58:02.999Z</time></trkpt><trkpt lat="44.6524191094699" lon="8.188179470623636"><ele>244.83333333333334</ele><time>2026-03-29T12:58:04.999Z</time></trkpt><trkpt lat="44.65249419954392" lon="8.188196037136299"><ele>245.0</ele><time>2026-03-29T12:58:07Z</time></trkpt><trkpt lat="44.652561466445064" lon="8.18820197572487"><ele>245.28571428571428</ele><time>2026-03-29T12:58:09Z</time></trkpt><trkpt lat="44.65262639305115" lon="8.188162092787216"><ele>245.57142857142856</ele><time>2026-03-29T12:58:11Z</time></trkpt><trkpt lat="44.65267935015941" lon="8.188094091858554"><ele>245.85714285714286</ele><time>2026-03-29T12:58:13Z</time></trkpt><trkpt lat="44.65271491648451" lon="8.188015867476684"><ele>246.14285714285714</ele><time>2026-03-29T12:58:15Z</time></trkpt><trkpt lat="44.65278249593167" lon="8.187977605256421"><ele>246.42857142857142</ele><time>2026-03-29T12:58:18Z</time></trkpt><trkpt lat="44.65286226566461" lon="8.187993871993964"><ele>246.71428571428572</ele><time>2026-03-29T12:58:22Z</time></trkpt><trkpt lat="44.65294315729077" lon="8.188030033972062"><ele>247.0</ele><time>2026-03-29T12:58:25Z</time></trkpt><trkpt lat="44.65302157528573" lon="8.188059023779374"><ele>246.99999999999997</ele><time>2026-03-29T12:58:28Z</time></trkpt><trkpt lat="44.65308890122283" lon="8.18808057728926"><ele>247.0</ele><time>2026-03-29T12:58:30Z</time></trkpt><trkpt lat="44.65315986308497" lon="8.188112420226707"><ele>247.0</ele><time>2026-03-29T12:58:32Z</time></trkpt><trkpt lat="44.653236419923104" lon="8.188146167380829"><ele>247.0</ele><time>2026-03-29T12:58:34Z</time></trkpt><trkpt lat="44.65331853154923" lon="8.188174769655692"><ele>246.99999999999997</ele><time>2026-03-29T12:58:36Z</time></trkpt><trkpt lat="44.65339212771042" lon="8.188214921387553"><ele>247.0</ele><time>2026-03-29T12:58:38Z</time></trkpt><trkpt lat="44.65345509876867" lon="8.18825072650965"><ele>246.0</ele><time>2026-03-29T12:58:40Z</time></trkpt><trkpt lat="44.65351925801338" lon="8.18828245391089"><ele>245.0</ele><time>2026-03-29T12:58:42Z</time></trkpt><trkpt lat="44.65357826086439" lon="8.18831609861569"><ele>244.0</ele><time>2026-03-29T12:58:44Z</time></trkpt><trkpt lat="44.653641139269396" lon="8.188348711564574"><ele>243.0</ele><time>2026-03-29T12:58:45.999Z</time></trkpt><trkpt lat="44.65370495150227" lon="8.18839426344199"><ele>242.0</ele><time>2026-03-29T12:58:47.999Z</time></trkpt><trkpt lat="44.65377243012156" lon="8.18843531486781"><ele>241.0</ele><time>2026-03-29T12:58:49.999Z</time></trkpt><trkpt lat="44.65386111081083" lon="8.188489595786812"><ele>240.0</ele><time>2026-03-29T12:58:51.999Z</time></trkpt><trkpt lat="44.6539482414141" lon="8.188536771858065"><ele>240.0</ele><time>2026-03-29T12:58:53.999Z</time></trkpt><trkpt lat="44.65402407282348" lon="8.188582113751737"><ele>240.0</ele><time>2026-03-29T12:58:55.999Z</time></trkpt><trkpt lat="44.65409339680125" lon="8.188616768806305"><ele>240.0</ele><time>2026-03-29T12:58:57.999Z</time></trkpt><trkpt lat="44.65418493984315" lon="8.188674390228405"><ele>240.0</ele><time>2026-03-29T12:59:00.999Z</time></trkpt><trkpt lat="44.65422860983928" lon="8.188780183194499"><ele>240.0</ele><time>2026-03-29T12:59:03.999Z</time></trkpt><trkpt lat="44.654277669044355" lon="8.188700161880023"><ele>240.0</ele><time>2026-03-29T12:59:07.999Z</time></trkpt><trkpt lat="44.65430477859766" lon="8.18858611151386"><ele>240.0</ele><time>2026-03-29T12:59:09.999Z</time></trkpt><trkpt lat="44.65433041766485" lon="8.188461230914724"><ele>240.0</ele><time>2026-03-29T12:59:11.999Z</time></trkpt><trkpt lat="44.65435198155211" lon="8.188355502732438"><ele>240.0</ele><time>2026-03-29T12:59:13.999Z</time></trkpt><trkpt lat="44.65437129606001" lon="8.188266695471032"><ele>240.0</ele><time>2026-03-29T12:59:15.999Z</time></trkpt><trkpt lat="44.65439079649686" lon="8.188179938620982"><ele>240.0</ele><time>2026-03-29T12:59:17.999Z</time></trkpt><trkpt lat="44.65442176128188" lon="8.188076439910338"><ele>240.0</ele><time>2026-03-29T12:59:20.999Z</time></trkpt><trkpt lat="44.65443709991237" lon="8.187976255496444"><ele>244.83333333333334</ele><time>2026-03-29T12:59:23.999Z</time></trkpt><trkpt lat="44.654456266682224" lon="8.187853014159362"><ele>249.66666666666669</ele><time>2026-03-29T12:59:26.999Z</time></trkpt><trkpt lat="44.65446322245006" lon="8.187748768124331"><ele>254.5</ele><time>2026-03-29T12:59:29.999Z</time></trkpt><trkpt lat="44.65454404161837" lon="8.187745619160339"><ele>259.33333333333337</ele><time>2026-03-29T12:59:33.999Z</time></trkpt><trkpt lat="44.65459406427692" lon="8.187813094896732"><ele>264.1666666666667</ele><time>2026-03-29T13:00:37Z</time></trkpt><trkpt lat="44.65464604731027" lon="8.187889970516277"><ele>269.0</ele><time>2026-03-29T13:00:43Z</time></trkpt><trkpt lat="44.65469450818984" lon="8.18796493551171"><ele>269.0</ele><time>2026-03-29T13:00:50Z</time></trkpt><trkpt lat="44.65474911355864" lon="8.18802580234012"><ele>269.0</ele><time>2026-03-29T13:00:56Z</time></trkpt><trkpt lat="44.65480461419586" lon="8.188075799270258"><ele>269.0</ele><time>2026-03-29T13:01:01Z</time></trkpt><trkpt lat="44.65485158682921" lon="8.188136729417048"><ele>269.0</ele><time>2026-03-29T13:01:03Z</time></trkpt><trkpt lat="44.654919761043146" lon="8.188191009690016"><ele>269.0</ele><time>2026-03-29T13:01:06Z</time></trkpt><trkpt lat="44.654993754930324" lon="8.188249210848458"><ele>269.0</ele><time>2026-03-29T13:01:09Z</time></trkpt><trkpt lat="44.6550525015152" lon="8.188294088781644"><ele>269.0</ele><time>2026-03-29T13:01:12Z</time></trkpt><trkpt lat="44.655113164312226" lon="8.188343281891074"><ele>267.83333333333337</ele><time>2026-03-29T13:01:15Z</time></trkpt><trkpt lat="44.65517414845161" lon="8.188389199391375"><ele>266.6666666666667</ele><time>2026-03-29T13:01:18Z</time></trkpt><trkpt lat="44.65524472738976" lon="8.188430574728226"><ele>265.5</ele><time>2026-03-29T13:01:22Z</time></trkpt><trkpt lat="44.655307768667754" lon="8.188475169534698"><ele>264.3333333333333</ele><time>2026-03-29T13:01:24.999Z</time></trkpt><trkpt lat="44.655384664874916" lon="8.188527916899393"><ele>263.16666666666663</ele><time>2026-03-29T13:01:27.999Z</time></trkpt><trkpt lat="44.65545646880337" lon="8.188586931264672"><ele>262.0</ele><time>2026-03-29T13:01:30.999Z</time></trkpt><trkpt lat="44.65553726443523" lon="8.188657499086785"><ele>262.0</ele><time>2026-03-29T13:01:33.999Z</time></trkpt><trkpt lat="44.655594104487456" lon="8.188723405742198"><ele>262.0</ele><time>2026-03-29T13:01:35.999Z</time></trkpt><trkpt lat="44.655649938377266" lon="8.188780834227503"><ele>262.0</ele><time>2026-03-29T13:01:37.999Z</time></trkpt><trkpt lat="44.655698659704576" lon="8.188841165681769"><ele>262.0</ele><time>2026-03-29T13:01:39.999Z</time></trkpt><trkpt lat="44.65576901106836" lon="8.188912085183787"><ele>262.0</ele><time>2026-03-29T13:01:42.999Z</time></trkpt><trkpt lat="44.65584278105014" lon="8.188989811335283"><ele>262.0</ele><time>2026-03-29T13:01:45.999Z</time></trkpt><trkpt lat="44.65591309386808" lon="8.189061705656757"><ele>259.16666666666663</ele><time>2026-03-29T13:01:48.999Z</time></trkpt><trkpt lat="44.655970669334465" lon="8.189113769717512"><ele>256.3333333333333</ele><time>2026-03-29T13:01:50.999Z</time></trkpt><trkpt lat="44.656025386276" lon="8.189171596678218"><ele>253.5</ele><time>2026-03-29T13:01:52.999Z</time></trkpt><trkpt lat="44.65608723067265" lon="8.189221485794855"><ele>250.66666666666669</ele><time>2026-03-29T13:01:54.999Z</time></trkpt><trkpt lat="44.656147831271774" lon="8.18927498654855"><ele>247.83333333333334</ele><time>2026-03-29T13:01:56.999Z</time></trkpt><trkpt lat="44.656222874632796" lon="8.18932787631805"><ele>245.0</ele><time>2026-03-29T13:01:59.999Z</time></trkpt><trkpt lat="44.65629684464378" lon="8.189401396935908"><ele>245.00000000000003</ele><time>2026-03-29T13:02:02.999Z</time></trkpt><trkpt lat="44.65636945629328" lon="8.189479501460383"><ele>245.0</ele><time>2026-03-29T13:02:05.999Z</time></trkpt><trkpt lat="44.65641630168182" lon="8.1895392308088"><ele>245.0</ele><time>2026-03-29T13:02:07.999Z</time></trkpt><trkpt lat="44.65648289151139" lon="8.189628799134457"><ele>245.0</ele><time>2026-03-29T13:02:10.999Z</time></trkpt><trkpt lat="44.65654938118156" lon="8.189719630541754"><ele>245.00000000000003</ele><time>2026-03-29T13:02:13.999Z</time></trkpt><trkpt lat="44.65660672161447" lon="8.189801449597363"><ele>245.0</ele><time>2026-03-29T13:02:16.999Z</time></trkpt><trkpt lat="44.65666112201466" lon="8.189882836883891"><ele>243.33333333333334</ele><time>2026-03-29T13:02:21Z</time></trkpt><trkpt lat="44.65670871089989" lon="8.189953316230758"><ele>241.66666666666669</ele><time>2026-03-29T13:02:49Z</time></trkpt><trkpt lat="44.6567705823251" lon="8.19001702482565"><ele>240.0</ele><time>2026-03-29T13:02:54Z</time></trkpt><trkpt lat="44.65684239156736" lon="8.190077671618226"><ele>238.33333333333331</ele><time>2026-03-29T13:02:58Z</time></trkpt><trkpt lat="44.65692165582049" lon="8.19009309634995"><ele>236.66666666666666</ele><time>2026-03-29T13:03:00Z</time></trkpt><trkpt lat="44.65697257439193" lon="8.190019492467291"><ele>235.0</ele><time>2026-03-29T13:03:02Z</time></trkpt><trkpt lat="44.656938690110685" lon="8.18993251981278"><ele>235.0</ele><time>2026-03-29T13:03:04Z</time></trkpt><trkpt lat="44.65689177695585" lon="8.189863337525237"><ele>235.0</ele><time>2026-03-29T13:03:07Z</time></trkpt><trkpt lat="44.656895130140356" lon="8.189769002168976"><ele>245.0</ele><time>2026-03-29T13:22:30.999Z</time></trkpt></trkseg><trkseg><trkpt lat="44.65691862793336" lon="8.189928101980042"><ele>234.99999999999997</ele><time>2026-03-29T13:51:24.999Z</time></trkpt><trkpt lat="44.65697633116617" lon="8.19003129068928"><ele>235.0</ele><time>2026-03-29T13:51:26.999Z</time></trkpt><trkpt lat="44.65692866052584" lon="8.190123494787901"><ele>235.0</ele><time>2026-03-29T13:51:28.999Z</time></trkpt><trkpt lat="44.65686862509459" lon="8.190096279956759"><ele>235.0</ele><time>2026-03-29T13:51:33.999Z</time></trkpt><trkpt lat="44.65680338846652" lon="8.190046718086773"><ele>234.99999999999997</ele><time>2026-03-29T13:51:36.999Z</time></trkpt><trkpt lat="44.65673518067478" lon="8.189986757524016"><ele>235.0</ele><time>2026-03-29T13:51:39.999Z</time></trkpt><trkpt lat="44.65669131490668" lon="8.189908170394169"><ele>235.0</ele><time>2026-03-29T13:51:44.999Z</time></trkpt><trkpt lat="44.65675880633745" lon="8.189981889342624"><ele>234.99999999999997</ele><time>2026-03-29T13:52:18.999Z</time></trkpt><trkpt lat="44.65681743624764" lon="8.190061107366224"><ele>235.0</ele><time>2026-03-29T13:52:20.999Z</time></trkpt><trkpt lat="44.6568994780576" lon="8.190100372319765"><ele>235.0</ele><time>2026-03-29T13:52:22.999Z</time></trkpt><trkpt lat="44.65690689039037" lon="8.19018955931336"><ele>234.99999999999997</ele><time>2026-03-29T13:52:26.999Z</time></trkpt><trkpt lat="44.656853184865724" lon="8.19024429549955"><ele>235.0</ele><time>2026-03-29T13:52:29.999Z</time></trkpt><trkpt lat="44.656808531153004" lon="8.190310767071662"><ele>235.0</ele><time>2026-03-29T13:52:32.999Z</time></trkpt><trkpt lat="44.656855779548735" lon="8.190249524796048"><ele>235.0</ele><time>2026-03-29T14:00:04Z</time></trkpt><trkpt lat="44.65689285212993" lon="8.190173746424508"><ele>234.99999999999997</ele><time>2026-03-29T14:00:29Z</time></trkpt><trkpt lat="44.65695209863553" lon="8.19012207189363"><ele>235.0</ele><time>2026-03-29T14:00:38.999Z</time></trkpt><trkpt lat="44.65697106465413" lon="8.190032376553582"><ele>235.0</ele><time>2026-03-29T14:00:42.999Z</time></trkpt><trkpt lat="44.65702339637166" lon="8.189962118541407"><ele>234.99999999999997</ele><time>2026-03-29T14:00:46.999Z</time></trkpt><trkpt lat="44.657078877859036" lon="8.189888493428906"><ele>235.0</ele><time>2026-03-29T14:00:49.999Z</time></trkpt><trkpt lat="44.6571379720293" lon="8.189793651005836"><ele>235.0</ele><time>2026-03-29T14:00:52.999Z</time></trkpt><trkpt lat="44.65717777996055" lon="8.18971240713977"><ele>236.7142857142857</ele><time>2026-03-29T14:00:55.999Z</time></trkpt><trkpt lat="44.65722272442253" lon="8.189643899835016"><ele>238.4285714285714</ele><time>2026-03-29T14:00:58.999Z</time></trkpt><trkpt lat="44.657272063213945" lon="8.189581663429768"><ele>240.14285714285714</ele><time>2026-03-29T14:01:01.999Z</time></trkpt><trkpt lat="44.657322336553804" lon="8.18949237468508"><ele>241.85714285714283</ele><time>2026-03-29T14:01:05.999Z</time></trkpt><trkpt lat="44.65737806543853" lon="8.189404531358"><ele>243.57142857142856</ele><time>2026-03-29T14:01:08.999Z</time></trkpt><trkpt lat="44.65742436620689" lon="8.18933861902211"><ele>245.28571428571428</ele><time>2026-03-29T14:01:11.999Z</time></trkpt><trkpt lat="44.6574766827965" lon="8.189272855728452"><ele>247.0</ele><time>2026-03-29T14:01:14.999Z</time></trkpt><trkpt lat="44.657529095379616" lon="8.189194821180758"><ele>246.99999999999997</ele><time>2026-03-29T14:01:17.999Z</time></trkpt><trkpt lat="44.65758554268537" lon="8.189139988508174"><ele>247.0</ele><time>2026-03-29T14:01:21.999Z</time></trkpt><trkpt lat="44.65766975237959" lon="8.189088475670186"><ele>247.0</ele><time>2026-03-29T14:01:26.999Z</time></trkpt><trkpt lat="44.65775772564295" lon="8.189104782072167"><ele>247.0</ele><time>2026-03-29T14:01:29.999Z</time></trkpt><trkpt lat="44.65784269076606" lon="8.189133746343536"><ele>246.99999999999997</ele><time>2026-03-29T14:01:33Z</time></trkpt><trkpt lat="44.657923964652014" lon="8.189161492304542"><ele>247.0</ele><time>2026-03-29T14:01:36Z</time></trkpt><trkpt lat="44.658015427540136" lon="8.189187318998869"><ele>248.33333333333331</ele><time>2026-03-29T14:01:39Z</time></trkpt><trkpt lat="44.65809450867682" lon="8.189216028871382"><ele>249.66666666666666</ele><time>2026-03-29T14:01:41Z</time></trkpt><trkpt lat="44.65816709316109" lon="8.189237261329902"><ele>251.0</ele><time>2026-03-29T14:01:43Z</time></trkpt><trkpt lat="44.65823886963857" lon="8.18926806154684"><ele>252.33333333333331</ele><time>2026-03-29T14:01:45Z</time></trkpt><trkpt lat="44.658315007287506" lon="8.189294692816286"><ele>253.66666666666666</ele><time>2026-03-29T14:01:47Z</time></trkpt><trkpt lat="44.658398186488306" lon="8.18932933700636"><ele>255.0</ele><time>2026-03-29T14:01:49Z</time></trkpt><trkpt lat="44.658484323810036" lon="8.189358789780954"><ele>255.0</ele><time>2026-03-29T14:01:51Z</time></trkpt><trkpt lat="44.65856670252274" lon="8.189392221493637"><ele>255.0</ele><time>2026-03-29T14:01:52.999Z</time></trkpt><trkpt lat="44.65864630833993" lon="8.189435323607858"><ele>255.0</ele><time>2026-03-29T14:01:54.999Z</time></trkpt><trkpt lat="44.65872569853503" lon="8.189460722175737"><ele>255.0</ele><time>2026-03-29T14:01:56.999Z</time></trkpt><trkpt lat="44.65880013552366" lon="8.189489537983834"><ele>255.0</ele><time>2026-03-29T14:01:58.999Z</time></trkpt><trkpt lat="44.658873416391266" lon="8.189521205209063"><ele>255.0</ele><time>2026-03-29T14:02:00.999Z</time></trkpt><trkpt lat="44.65895111587274" lon="8.189536150288527"><ele>256.5</ele><time>2026-03-29T14:02:02.999Z</time></trkpt><trkpt lat="44.659029160752155" lon="8.189564054027628"><ele>258.0</ele><time>2026-03-29T14:02:04.999Z</time></trkpt><trkpt lat="44.659112433518715" lon="8.189594440502292"><ele>259.5</ele><time>2026-03-29T14:02:06.999Z</time></trkpt><trkpt lat="44.659197858086884" lon="8.18962698905592"><ele>261.0</ele><time>2026-03-29T14:02:08.999Z</time></trkpt><trkpt lat="44.65928908732266" lon="8.189659516879845"><ele>262.5</ele><time>2026-03-29T14:02:10.999Z</time></trkpt><trkpt lat="44.6593766551123" lon="8.189700564359915"><ele>264.0</ele><time>2026-03-29T14:02:12.999Z</time></trkpt><trkpt lat="44.65946741862918" lon="8.189734316532096"><ele>266.2</ele><time>2026-03-29T14:02:14.999Z</time></trkpt><trkpt lat="44.65956339028131" lon="8.189783727948708"><ele>268.4</ele><time>2026-03-29T14:02:16.999Z</time></trkpt><trkpt lat="44.65965382137044" lon="8.18985086354559"><ele>270.6</ele><time>2026-03-29T14:02:18.999Z</time></trkpt><trkpt lat="44.659741615670264" lon="8.189930340684528"><ele>272.8</ele><time>2026-03-29T14:02:20.999Z</time></trkpt><trkpt lat="44.65983285548182" lon="8.190009253480179"><ele>275.0</ele><time>2026-03-29T14:02:22.999Z</time></trkpt><trkpt lat="44.659913606305416" lon="8.190102653398975"><ele>270.6666666666667</ele><time>2026-03-29T14:02:24.999Z</time></trkpt><trkpt lat="44.65999622719011" lon="8.19018253690546"><ele>266.33333333333337</ele><time>2026-03-29T14:02:26.999Z</time></trkpt><trkpt lat="44.66008206119114" lon="8.190238523148013"><ele>262.0</ele><time>2026-03-29T14:02:28.999Z</time></trkpt><trkpt lat="44.660156477933185" lon="8.19030290237716"><ele>257.6666666666667</ele><time>2026-03-29T14:02:30.999Z</time></trkpt><trkpt lat="44.660222857953876" lon="8.190365703666545"><ele>253.33333333333334</ele><time>2026-03-29T14:02:32.999Z</time></trkpt><trkpt lat="44.660296910968285" lon="8.19040769678674"><ele>249.0</ele><time>2026-03-29T14:02:34.999Z</time></trkpt><trkpt lat="44.660375565192865" lon="8.190451854261692"><ele>249.0</ele><time>2026-03-29T14:02:36.999Z</time></trkpt><trkpt lat="44.66044156202248" lon="8.190497063833126"><ele>249.0</ele><time>2026-03-29T14:02:38.999Z</time></trkpt><trkpt lat="44.66050689422415" lon="8.190528172398594"><ele>249.0</ele><time>2026-03-29T14:02:40.999Z</time></trkpt><trkpt lat="44.660585504230575" lon="8.190564584736725"><ele>249.0</ele><time>2026-03-29T14:02:43.999Z</time></trkpt><trkpt lat="44.66066282765837" lon="8.190601125533092"><ele>249.0</ele><time>2026-03-29T14:02:46.999Z</time></trkpt><trkpt lat="44.66074504911091" lon="8.190668397514285"><ele>249.0</ele><time>2026-03-29T14:02:49.999Z</time></trkpt><trkpt lat="44.660772980134055" lon="8.190759131698577"><ele>246.42857142857142</ele><time>2026-03-29T14:02:52.999Z</time></trkpt><trkpt lat="44.660767556469565" lon="8.190866480504448"><ele>243.85714285714283</ele><time>2026-03-29T14:02:55.999Z</time></trkpt><trkpt lat="44.66076186286918" lon="8.190957116547024"><ele>241.28571428571428</ele><time>2026-03-29T14:02:57.999Z</time></trkpt><trkpt lat="44.660752714677216" lon="8.19104920649248"><ele>238.71428571428572</ele><time>2026-03-29T14:02:59.999Z</time></trkpt><trkpt lat="44.66074659694868" lon="8.191171827321671"><ele>236.14285714285714</ele><time>2026-03-29T14:03:02.999Z</time></trkpt><trkpt lat="44.66073870729047" lon="8.19128017690653"><ele>233.57142857142856</ele><time>2026-03-29T14:03:05.999Z</time></trkpt><trkpt lat="44.660737760663864" lon="8.191382409480974"><ele>231.0</ele><time>2026-03-29T14:03:08.999Z</time></trkpt><trkpt lat="44.66073169962264" lon="8.19148022901543"><ele>230.33333333333334</ele><time>2026-03-29T14:03:11.999Z</time></trkpt><trkpt lat="44.66072380541691" lon="8.191595571223957"><ele>229.66666666666669</ele><time>2026-03-29T14:03:15Z</time></trkpt><trkpt lat="44.660715142939914" lon="8.191721322158157"><ele>229.0</ele><time>2026-03-29T14:03:18Z</time></trkpt><trkpt lat="44.66074894213719" lon="8.191797033330381"><ele>228.33333333333334</ele><time>2026-03-29T14:03:20Z</time></trkpt><trkpt lat="44.66083368834687" lon="8.19181173534254"><ele>227.66666666666669</ele><time>2026-03-29T14:03:23Z</time></trkpt><trkpt lat="44.66083044453788" lon="8.191721776586144"><ele>227.0</ele><time>2026-03-29T14:03:25Z</time></trkpt><trkpt lat="44.66077191342395" lon="8.19176947989527"><ele>227.00000000000003</ele><time>2026-03-29T14:03:28Z</time></trkpt><trkpt lat="44.66082062243429" lon="8.191834776172279"><ele>227.0</ele><time>2026-03-29T14:03:30Z</time></trkpt><trkpt lat="44.66090288132201" lon="8.191835383489495"><ele>227.0</ele><time>2026-03-29T14:03:33Z</time></trkpt><trkpt lat="44.66099600268628" lon="8.191846782647463"><ele>227.0</ele><time>2026-03-29T14:03:36Z</time></trkpt><trkpt lat="44.66106423636241" lon="8.191816537778463"><ele>227.00000000000003</ele><time>2026-03-29T14:03:38Z</time></trkpt><trkpt lat="44.66113567793361" lon="8.19180877993392"><ele>227.0</ele><time>2026-03-29T14:03:40Z</time></trkpt><trkpt lat="44.66120770150055" lon="8.191796740826709"><ele>227.16666666666669</ele><time>2026-03-29T14:03:42Z</time></trkpt><trkpt lat="44.66128510465499" lon="8.191787696505045"><ele>227.33333333333334</ele><time>2026-03-29T14:03:44Z</time></trkpt><trkpt lat="44.66136285228459" lon="8.19177762645409"><ele>227.5</ele><time>2026-03-29T14:03:46Z</time></trkpt><trkpt lat="44.66144229270203" lon="8.191744375839965"><ele>227.66666666666669</ele><time>2026-03-29T14:03:48Z</time></trkpt><trkpt lat="44.66152200168975" lon="8.191738366547577"><ele>227.83333333333334</ele><time>2026-03-29T14:03:50Z</time></trkpt><trkpt lat="44.661602939687555" lon="8.191723825151136"><ele>228.0</ele><time>2026-03-29T14:03:52Z</time></trkpt><trkpt lat="44.66168063341035" lon="8.191704907273213"><ele>228.0</ele><time>2026-03-29T14:03:54Z</time></trkpt><trkpt lat="44.661762318039735" lon="8.191704494564135"><ele>228.0</ele><time>2026-03-29T14:03:56Z</time></trkpt><trkpt lat="44.66184478541179" lon="8.191704757279071"><ele>228.0</ele><time>2026-03-29T14:03:58Z</time></trkpt><trkpt lat="44.661934611229704" lon="8.191704391456769"><ele>228.0</ele><time>2026-03-29T14:04:00Z</time></trkpt><trkpt lat="44.66202322100033" lon="8.191704375228857"><ele>228.0</ele><time>2026-03-29T14:04:02Z</time></trkpt><trkpt lat="44.6621149322058" lon="8.191707940345372"><ele>228.0</ele><time>2026-03-29T14:04:04Z</time></trkpt><trkpt lat="44.66220540814584" lon="8.191729474949254"><ele>227.83333333333334</ele><time>2026-03-29T14:04:06Z</time></trkpt><trkpt lat="44.66229053936042" lon="8.191762952015008"><ele>227.66666666666669</ele><time>2026-03-29T14:04:08Z</time></trkpt><trkpt lat="44.66238000546669" lon="8.19175933142089"><ele>227.5</ele><time>2026-03-29T14:04:10Z</time></trkpt><trkpt lat="44.66245889086488" lon="8.191769238632288"><ele>227.33333333333334</ele><time>2026-03-29T14:04:12Z</time></trkpt><trkpt lat="44.66253405051187" lon="8.19178889349781"><ele>227.16666666666669</ele><time>2026-03-29T14:04:14Z</time></trkpt><trkpt lat="44.66260837543567" lon="8.191788997308219"><ele>227.0</ele><time>2026-03-29T14:04:16Z</time></trkpt><trkpt lat="44.662683420753254" lon="8.191798801163358"><ele>227.0</ele><time>2026-03-29T14:04:18Z</time></trkpt><trkpt lat="44.66275153480897" lon="8.191814658772039"><ele>227.00000000000003</ele><time>2026-03-29T14:04:20Z</time></trkpt><trkpt lat="44.66282295003685" lon="8.191826254410605"><ele>227.0</ele><time>2026-03-29T14:04:22Z</time></trkpt><trkpt lat="44.66289671778411" lon="8.191854963639631"><ele>227.0</ele><time>2026-03-29T14:04:24Z</time></trkpt><trkpt lat="44.6629746198118" lon="8.191885314654654"><ele>227.00000000000003</ele><time>2026-03-29T14:04:26Z</time></trkpt><trkpt lat="44.66304809217015" lon="8.19191547573123"><ele>227.0</ele><time>2026-03-29T14:04:28Z</time></trkpt><trkpt lat="44.663119084244116" lon="8.191947390839951"><ele>227.0</ele><time>2026-03-29T14:04:30Z</time></trkpt><trkpt lat="44.66318835416779" lon="8.191960068658169"><ele>227.33333333333334</ele><time>2026-03-29T14:04:32Z</time></trkpt><trkpt lat="44.663251907887926" lon="8.191985572978437"><ele>227.66666666666669</ele><time>2026-03-29T14:04:34Z</time></trkpt><trkpt lat="44.66334385025467" lon="8.192018862870666"><ele>228.0</ele><time>2026-03-29T14:04:37Z</time></trkpt><trkpt lat="44.663435463076894" lon="8.192037696549912"><ele>228.33333333333331</ele><time>2026-03-29T14:04:40Z</time></trkpt><trkpt lat="44.663526090071436" lon="8.192068245623236"><ele>228.66666666666666</ele><time>2026-03-29T14:04:43Z</time></trkpt><trkpt lat="44.66360697280224" lon="8.192101617258821"><ele>229.0</ele><time>2026-03-29T14:04:46Z</time></trkpt><trkpt lat="44.663687988173244" lon="8.192142192900551"><ele>228.83333333333331</ele><time>2026-03-29T14:04:49Z</time></trkpt><trkpt lat="44.66375552123478" lon="8.192168590054976"><ele>228.66666666666666</ele><time>2026-03-29T14:04:51Z</time></trkpt><trkpt lat="44.66382794143534" lon="8.192213825176038"><ele>228.5</ele><time>2026-03-29T14:04:53Z</time></trkpt><trkpt lat="44.66391661186142" lon="8.192262325420987"><ele>228.33333333333331</ele><time>2026-03-29T14:04:54.999Z</time></trkpt><trkpt lat="44.664004056756205" lon="8.192312083969089"><ele>228.16666666666666</ele><time>2026-03-29T14:04:56.999Z</time></trkpt><trkpt lat="44.66406926529604" lon="8.192357203140421"><ele>228.0</ele><time>2026-03-29T14:04:58.999Z</time></trkpt><trkpt lat="44.66413580029765" lon="8.192393376734811"><ele>228.0</ele><time>2026-03-29T14:05:00.999Z</time></trkpt><trkpt lat="44.664204286608445" lon="8.192425839774543"><ele>228.0</ele><time>2026-03-29T14:05:02.999Z</time></trkpt><trkpt lat="44.66427904320381" lon="8.192471622968311"><ele>228.0</ele><time>2026-03-29T14:05:04.999Z</time></trkpt><trkpt lat="44.66435427817894" lon="8.192521497524826"><ele>228.0</ele><time>2026-03-29T14:05:06.999Z</time></trkpt><trkpt lat="44.66443260504999" lon="8.192574725691395"><ele>228.0</ele><time>2026-03-29T14:05:08.999Z</time></trkpt><trkpt lat="44.66451107131908" lon="8.192622999515821"><ele>228.0</ele><time>2026-03-29T14:05:10.999Z</time></trkpt><trkpt lat="44.66458363438743" lon="8.192670637383005"><ele>228.16666666666666</ele><time>2026-03-29T14:05:13Z</time></trkpt><trkpt lat="44.66465943474973" lon="8.19271843019751"><ele>228.33333333333331</ele><time>2026-03-29T14:05:15Z</time></trkpt><trkpt lat="44.66473642495391" lon="8.192768068703275"><ele>228.5</ele><time>2026-03-29T14:05:17Z</time></trkpt><trkpt lat="44.66481551038849" lon="8.192827478847613"><ele>228.66666666666666</ele><time>2026-03-29T14:05:19Z</time></trkpt><trkpt lat="44.66489916573904" lon="8.192881351509463"><ele>228.83333333333331</ele><time>2026-03-29T14:05:21Z</time></trkpt><trkpt lat="44.66497643763473" lon="8.192935319410342"><ele>229.0</ele><time>2026-03-29T14:05:23Z</time></trkpt><trkpt lat="44.66504535801665" lon="8.19299919767626"><ele>229.0</ele><time>2026-03-29T14:05:25Z</time></trkpt><trkpt lat="44.6651067501317" lon="8.19304858140105"><ele>229.0</ele><time>2026-03-29T14:05:27Z</time></trkpt><trkpt lat="44.665170721187636" lon="8.193083590376062"><ele>229.0</ele><time>2026-03-29T14:05:29Z</time></trkpt><trkpt lat="44.665235583690226" lon="8.193134217366364"><ele>229.0</ele><time>2026-03-29T14:05:31Z</time></trkpt><trkpt lat="44.66529350131701" lon="8.193191029188302"><ele>229.0</ele><time>2026-03-29T14:05:33Z</time></trkpt><trkpt lat="44.66535416113192" lon="8.19323510588272"><ele>229.0</ele><time>2026-03-29T14:05:35Z</time></trkpt><trkpt lat="44.66541992503741" lon="8.193275345258314"><ele>229.0</ele><time>2026-03-29T14:05:37Z</time></trkpt><trkpt lat="44.66548977916545" lon="8.193320187837283"><ele>228.16666666666666</ele><time>2026-03-29T14:05:39Z</time></trkpt><trkpt lat="44.665562041754654" lon="8.193373120858137"><ele>227.33333333333331</ele><time>2026-03-29T14:05:41Z</time></trkpt><trkpt lat="44.66563291359458" lon="8.19342566365257"><ele>226.5</ele><time>2026-03-29T14:05:43Z</time></trkpt><trkpt lat="44.66569451704679" lon="8.193482767275343"><ele>225.66666666666669</ele><time>2026-03-29T14:05:45Z</time></trkpt><trkpt lat="44.665754308343445" lon="8.193541312809048"><ele>224.83333333333334</ele><time>2026-03-29T14:05:47Z</time></trkpt><trkpt lat="44.665818233712905" lon="8.193591937767904"><ele>224.0</ele><time>2026-03-29T14:05:49Z</time></trkpt><trkpt lat="44.66588078683658" lon="8.193635414838356"><ele>224.00000000000003</ele><time>2026-03-29T14:05:51Z</time></trkpt><trkpt lat="44.66594180183615" lon="8.193681016546682"><ele>224.0</ele><time>2026-03-29T14:05:53Z</time></trkpt><trkpt lat="44.66600528715767" lon="8.19371564899969"><ele>224.0</ele><time>2026-03-29T14:05:55Z</time></trkpt><trkpt lat="44.666089017560054" lon="8.193776363694656"><ele>224.0</ele><time>2026-03-29T14:05:58Z</time></trkpt><trkpt lat="44.66616665620986" lon="8.193836495692727"><ele>224.00000000000003</ele><time>2026-03-29T14:06:01Z</time></trkpt><trkpt lat="44.666245680986" lon="8.193880878979417"><ele>224.0</ele><time>2026-03-29T14:06:04Z</time></trkpt><trkpt lat="44.666327608245695" lon="8.19392872289387"><ele>223.79999999999998</ele><time>2026-03-29T14:06:07Z</time></trkpt><trkpt lat="44.66640692651865" lon="8.193997180253685"><ele>223.59999999999997</ele><time>2026-03-29T14:06:10Z</time></trkpt><trkpt lat="44.66648728796685" lon="8.194058913618186"><ele>223.4</ele><time>2026-03-29T14:06:12Z</time></trkpt><trkpt lat="44.666582297418245" lon="8.19412225056043"><ele>223.2</ele><time>2026-03-29T14:06:14Z</time></trkpt><trkpt lat="44.666667726821494" lon="8.194209418106082"><ele>223.0</ele><time>2026-03-29T14:06:16Z</time></trkpt><trkpt lat="44.66674016550284" lon="8.19429993784774"><ele>222.8</ele><time>2026-03-29T14:06:18Z</time></trkpt><trkpt lat="44.66681678964597" lon="8.194380791001487"><ele>222.60000000000002</ele><time>2026-03-29T14:06:20Z</time></trkpt><trkpt lat="44.6668933192749" lon="8.194455361051313"><ele>222.39999999999998</ele><time>2026-03-29T14:06:22Z</time></trkpt><trkpt lat="44.66696879140451" lon="8.194525193784314"><ele>222.2</ele><time>2026-03-29T14:06:24Z</time></trkpt><trkpt lat="44.66704963418408" lon="8.194575089269298"><ele>222.0</ele><time>2026-03-29T14:06:26Z</time></trkpt><trkpt lat="44.66712779844884" lon="8.194622060984475"><ele>222.0</ele><time>2026-03-29T14:06:28Z</time></trkpt><trkpt lat="44.667195876323014" lon="8.194681873105253"><ele>222.0</ele><time>2026-03-29T14:06:30Z</time></trkpt><trkpt lat="44.66726795297963" lon="8.194722432925188"><ele>222.0</ele><time>2026-03-29T14:06:32Z</time></trkpt><trkpt lat="44.66732521823537" lon="8.194788599205044"><ele>222.0</ele><time>2026-03-29T14:06:34Z</time></trkpt><trkpt lat="44.66737876573167" lon="8.194861930745583"><ele>222.0</ele><time>2026-03-29T14:06:36Z</time></trkpt><trkpt lat="44.66743429673789" lon="8.194921168927584"><ele>222.0</ele><time>2026-03-29T14:06:38Z</time></trkpt><trkpt lat="44.66748595730245" lon="8.194978367874661"><ele>222.0</ele><time>2026-03-29T14:06:40Z</time></trkpt><trkpt lat="44.66753529020814" lon="8.19503949638741"><ele>222.0</ele><time>2026-03-29T14:06:42Z</time></trkpt><trkpt lat="44.66761067536075" lon="8.195106450495734"><ele>222.0</ele><time>2026-03-29T14:06:45Z</time></trkpt><trkpt lat="44.667672809709124" lon="8.195177176153742"><ele>222.0</ele><time>2026-03-29T14:06:48Z</time></trkpt><trkpt lat="44.66774163521761" lon="8.195203004446103"><ele>222.0</ele><time>2026-03-29T14:06:51Z</time></trkpt><trkpt lat="44.66783032189607" lon="8.195263780862195"><ele>222.0</ele><time>2026-03-29T14:06:54Z</time></trkpt><trkpt lat="44.667899384783524" lon="8.195313629750652"><ele>222.0</ele><time>2026-03-29T14:06:56Z</time></trkpt><trkpt lat="44.667959109809" lon="8.195359293947044"><ele>221.83333333333334</ele><time>2026-03-29T14:06:58Z</time></trkpt><trkpt lat="44.66801339494069" lon="8.195407105911398"><ele>221.66666666666669</ele><time>2026-03-29T14:07:00Z</time></trkpt><trkpt lat="44.66807241641464" lon="8.195495306298515"><ele>221.5</ele><time>2026-03-29T14:07:03Z</time></trkpt><trkpt lat="44.66812149045275" lon="8.195573830180225"><ele>221.33333333333334</ele><time>2026-03-29T14:07:06Z</time></trkpt><trkpt lat="44.66819087461037" lon="8.195661032751497"><ele>221.16666666666669</ele><time>2026-03-29T14:07:09Z</time></trkpt><trkpt lat="44.66824958411675" lon="8.19573302227821"><ele>221.0</ele><time>2026-03-29T14:07:11Z</time></trkpt><trkpt lat="44.66830070348048" lon="8.195790676910136"><ele>221.2857142857143</ele><time>2026-03-29T14:07:13Z</time></trkpt><trkpt lat="44.66836852565906" lon="8.195866778202626"><ele>221.57142857142858</ele><time>2026-03-29T14:07:16Z</time></trkpt><trkpt lat="44.66841606026713" lon="8.195938465070002"><ele>221.85714285714286</ele><time>2026-03-29T14:07:19.001Z</time></trkpt><trkpt lat="44.66847303918326" lon="8.195982095983268"><ele>222.14285714285717</ele><time>2026-03-29T14:07:22.001Z</time></trkpt><trkpt lat="44.66852647523696" lon="8.196038932508136"><ele>222.42857142857142</ele><time>2026-03-29T14:07:25.001Z</time></trkpt><trkpt lat="44.66855175438257" lon="8.196145007165091"><ele>222.71428571428572</ele><time>2026-03-29T14:07:28.001Z</time></trkpt><trkpt lat="44.66862257644167" lon="8.196155425217746"><ele>223.0</ele><time>2026-03-29T14:07:32.001Z</time></trkpt><trkpt lat="44.66868861147435" lon="8.196109009651567"><ele>222.99999999999997</ele><time>2026-03-29T14:07:36.001Z</time></trkpt><trkpt lat="44.6687204915526" lon="8.196008512752224"><ele>223.0</ele><time>2026-03-29T14:07:40.001Z</time></trkpt><trkpt lat="44.668755952711734" lon="8.195927793732425"><ele>223.0</ele><time>2026-03-29T14:07:46.001Z</time></trkpt><trkpt lat="44.668683711382926" lon="8.195905581477994"><ele>223.0</ele><time>2026-03-29T14:08:04Z</time></trkpt><trkpt lat="44.668612243705454" lon="8.195926391538363"><ele>222.99999999999997</ele><time>2026-03-29T14:08:09Z</time></trkpt><trkpt lat="44.66855214985971" lon="8.19584520942676"><ele>223.0</ele><time>2026-03-29T14:08:12Z</time></trkpt><trkpt lat="44.668491676323434" lon="8.195756048130349"><ele>222.83333333333331</ele><time>2026-03-29T14:08:14Z</time></trkpt><trkpt lat="44.6684501123864" lon="8.195657726936947"><ele>222.66666666666666</ele><time>2026-03-29T14:08:16Z</time></trkpt><trkpt lat="44.66850984660726" lon="8.19559945185031"><ele>222.5</ele><time>2026-03-29T14:08:19Z</time></trkpt><trkpt lat="44.6686241291334" lon="8.195619173058157"><ele>222.33333333333331</ele><time>2026-03-29T14:08:21Z</time></trkpt><trkpt lat="44.668683419671545" lon="8.195651161479114"><ele>222.16666666666666</ele><time>2026-03-29T14:08:22Z</time></trkpt><trkpt lat="44.66877452777224" lon="8.195710400623714"><ele>222.0</ele><time>2026-03-29T14:08:24Z</time></trkpt><trkpt lat="44.66883994805756" lon="8.195763963003369"><ele>221.5</ele><time>2026-03-29T14:08:35Z</time></trkpt><trkpt lat="44.668914143123565" lon="8.195850921592497"><ele>221.0</ele><time>2026-03-29T14:08:38Z</time></trkpt><trkpt lat="44.668967096573695" lon="8.195905692885706"><ele>220.5</ele><time>2026-03-29T14:08:40Z</time></trkpt><trkpt lat="44.669031359396676" lon="8.195954812065425"><ele>220.0</ele><time>2026-03-29T14:08:42Z</time></trkpt><trkpt lat="44.66911202511238" lon="8.195987664272275"><ele>219.5</ele><time>2026-03-29T14:08:45Z</time></trkpt><trkpt lat="44.66916688734784" lon="8.196032602311318"><ele>219.0</ele><time>2026-03-29T14:08:47Z</time></trkpt><trkpt lat="44.66923744673187" lon="8.196085497586607"><ele>219.0</ele><time>2026-03-29T14:08:50Z</time></trkpt><trkpt lat="44.66929679451396" lon="8.19614243744993"><ele>219.0</ele><time>2026-03-29T14:08:53Z</time></trkpt><trkpt lat="44.66935295332349" lon="8.196206598958044"><ele>219.0</ele><time>2026-03-29T14:08:56Z</time></trkpt><trkpt lat="44.66941365101254" lon="8.196280802766573"><ele>219.0</ele><time>2026-03-29T14:08:59Z</time></trkpt><trkpt lat="44.669487612540976" lon="8.196379726843992"><ele>219.0</ele><time>2026-03-29T14:09:02Z</time></trkpt><trkpt lat="44.66953975128374" lon="8.19643865613871"><ele>219.0</ele><time>2026-03-29T14:09:04Z</time></trkpt><trkpt lat="44.669608866629844" lon="8.196502797406069"><ele>218.66666666666666</ele><time>2026-03-29T14:09:07Z</time></trkpt><trkpt lat="44.669678582032994" lon="8.196568287851353"><ele>218.33333333333331</ele><time>2026-03-29T14:09:10Z</time></trkpt><trkpt lat="44.66973056744029" lon="8.196629068926622"><ele>218.0</ele><time>2026-03-29T14:09:12Z</time></trkpt><trkpt lat="44.66979912779259" lon="8.196714070509238"><ele>217.66666666666666</ele><time>2026-03-29T14:09:15Z</time></trkpt><trkpt lat="44.66986513046814" lon="8.19679795387445"><ele>217.33333333333331</ele><time>2026-03-29T14:09:18Z</time></trkpt><trkpt lat="44.669918473546666" lon="8.1968617845824"><ele>217.0</ele><time>2026-03-29T14:09:20Z</time></trkpt><trkpt lat="44.6699917868389" lon="8.196948927757974"><ele>216.99999999999997</ele><time>2026-03-29T14:09:23.001Z</time></trkpt><trkpt lat="44.67004538632894" lon="8.19701648020394"><ele>217.0</ele><time>2026-03-29T14:09:25.001Z</time></trkpt><trkpt lat="44.6701120865368" lon="8.19710596941498"><ele>217.0</ele><time>2026-03-29T14:09:28.001Z</time></trkpt><trkpt lat="44.67016179205211" lon="8.197193948619322"><ele>217.0</ele><time>2026-03-29T14:09:31.001Z</time></trkpt><trkpt lat="44.670229401343335" lon="8.197267396937017"><ele>216.99999999999997</ele><time>2026-03-29T14:09:34.001Z</time></trkpt><trkpt lat="44.67029455183735" lon="8.197343117280042"><ele>217.0</ele><time>2026-03-29T14:09:37.001Z</time></trkpt><trkpt lat="44.67036355978473" lon="8.19741284458712"><ele>217.0</ele><time>2026-03-29T14:09:40.001Z</time></trkpt><trkpt lat="44.670415340649946" lon="8.19747140492342"><ele>217.0</ele><time>2026-03-29T14:09:42.001Z</time></trkpt><trkpt lat="44.670466738198265" lon="8.197529997231683"><ele>217.0</ele><time>2026-03-29T14:09:44.001Z</time></trkpt><trkpt lat="44.670520759498224" lon="8.197581604756076"><ele>217.0</ele><time>2026-03-29T14:09:46.001Z</time></trkpt><trkpt lat="44.67058303538982" lon="8.197661849301902"><ele>217.0</ele><time>2026-03-29T14:09:49.001Z</time></trkpt><trkpt lat="44.670630162369854" lon="8.197739438119303"><ele>217.0</ele><time>2026-03-29T14:09:52.001Z</time></trkpt><trkpt lat="44.67069078766321" lon="8.197796575198767"><ele>217.0</ele><time>2026-03-29T14:10:00.001Z</time></trkpt><trkpt lat="44.67077417256582" lon="8.197832408887136"><ele>216.99999999999997</ele><time>2026-03-29T14:12:09.001Z</time></trkpt><trkpt lat="44.670853874283" lon="8.197868569399349"><ele>217.0</ele><time>2026-03-29T14:12:12.001Z</time></trkpt><trkpt lat="44.670940808342685" lon="8.197916238379273"><ele>217.0</ele><time>2026-03-29T14:12:15.001Z</time></trkpt><trkpt lat="44.6710127161053" lon="8.197933549809635"><ele>217.0</ele><time>2026-03-29T14:12:17.001Z</time></trkpt><trkpt lat="44.67107723328504" lon="8.197939215889201"><ele>216.99999999999997</ele><time>2026-03-29T14:12:19.001Z</time></trkpt><trkpt lat="44.671150086574855" lon="8.19791327352167"><ele>217.0</ele><time>2026-03-29T14:12:22.001Z</time></trkpt><trkpt lat="44.671219955169306" lon="8.197900650164334"><ele>216.99999999999997</ele><time>2026-03-29T14:12:26.001Z</time></trkpt><trkpt lat="44.671304312106955" lon="8.197884423934351"><ele>217.0</ele><time>2026-03-29T14:12:29.001Z</time></trkpt><trkpt lat="44.67137313546916" lon="8.197872966369053"><ele>217.0</ele><time>2026-03-29T14:12:31.001Z</time></trkpt><trkpt lat="44.67143906944783" lon="8.197857620968268"><ele>217.0</ele><time>2026-03-29T14:12:33.001Z</time></trkpt><trkpt lat="44.67153275864284" lon="8.197850579425197"><ele>216.99999999999997</ele><time>2026-03-29T14:12:36.001Z</time></trkpt><trkpt lat="44.6716242524207" lon="8.197844135395032"><ele>217.0</ele><time>2026-03-29T14:12:39.001Z</time></trkpt><trkpt lat="44.67170791107285" lon="8.19784731948099"><ele>217.0</ele><time>2026-03-29T14:12:42.001Z</time></trkpt><trkpt lat="44.67178916533849" lon="8.19784863256082"><ele>217.0</ele><time>2026-03-29T14:12:45.001Z</time></trkpt><trkpt lat="44.671857533078686" lon="8.19785847828785"><ele>217.0</ele><time>2026-03-29T14:12:47Z</time></trkpt><trkpt lat="44.67192770780308" lon="8.197861965683181"><ele>217.0</ele><time>2026-03-29T14:12:49Z</time></trkpt><trkpt lat="44.6719975098329" lon="8.197856196867871"><ele>217.0</ele><time>2026-03-29T14:12:51Z</time></trkpt><trkpt lat="44.67207148257207" lon="8.197853768081554"><ele>217.0</ele><time>2026-03-29T14:12:53Z</time></trkpt><trkpt lat="44.672144998767784" lon="8.197849445009753"><ele>217.0</ele><time>2026-03-29T14:12:55Z</time></trkpt><trkpt lat="44.672223687668364" lon="8.197837814172699"><ele>216.85714285714286</ele><time>2026-03-29T14:12:58Z</time></trkpt><trkpt lat="44.672292619445074" lon="8.1978231823358"><ele>216.71428571428572</ele><time>2026-03-29T14:13:01Z</time></trkpt><trkpt lat="44.672361196239024" lon="8.197802020616251"><ele>216.57142857142856</ele><time>2026-03-29T14:13:04Z</time></trkpt><trkpt lat="44.672423489334605" lon="8.197762602539372"><ele>216.42857142857144</ele><time>2026-03-29T14:13:07Z</time></trkpt><trkpt lat="44.672479268185526" lon="8.197700691144508"><ele>216.28571428571428</ele><time>2026-03-29T14:13:11Z</time></trkpt><trkpt lat="44.67254375845429" lon="8.197638388533433"><ele>216.14285714285714</ele><time>2026-03-29T14:13:31Z</time></trkpt><trkpt lat="44.67257944617715" lon="8.197544120139488"><ele>216.0</ele><time>2026-03-29T14:14:34.001Z</time></trkpt><trkpt lat="44.67263612731057" lon="8.197473612861227"><ele>216.0</ele><time>2026-03-29T14:14:39.001Z</time></trkpt><trkpt lat="44.67269103547202" lon="8.197416301946555"><ele>216.0</ele><time>2026-03-29T14:14:45.001Z</time></trkpt><trkpt lat="44.67272995955082" lon="8.19733945432533"><ele>216.0</ele><time>2026-03-29T14:14:48Z</time></trkpt><trkpt lat="44.67277332066573" lon="8.197257517719809"><ele>216.0</ele><time>2026-03-29T14:14:51Z</time></trkpt><trkpt lat="44.6728126780882" lon="8.197169074711802"><ele>216.0</ele><time>2026-03-29T14:14:53Z</time></trkpt><trkpt lat="44.67285158324204" lon="8.197094452977936"><ele>216.0</ele><time>2026-03-29T14:14:55Z</time></trkpt><trkpt lat="44.67290601689316" lon="8.196987065558416"><ele>216.0</ele><time>2026-03-29T14:14:58Z</time></trkpt><trkpt lat="44.67294972414314" lon="8.196891914800224"><ele>215.66666666666666</ele><time>2026-03-29T14:15:01Z</time></trkpt><trkpt lat="44.67299909141817" lon="8.19679504827541"><ele>215.33333333333331</ele><time>2026-03-29T14:15:04Z</time></trkpt><trkpt lat="44.673046912959705" lon="8.196685999983561"><ele>215.0</ele><time>2026-03-29T14:15:07Z</time></trkpt><trkpt lat="44.67310004302409" lon="8.19658360254912"><ele>214.66666666666666</ele><time>2026-03-29T14:15:10Z</time></trkpt><trkpt lat="44.67313780779853" lon="8.196485132913667"><ele>214.33333333333331</ele><time>2026-03-29T14:15:13Z</time></trkpt><trkpt lat="44.67317610806049" lon="8.196398335505656"><ele>214.0</ele><time>2026-03-29T14:15:16Z</time></trkpt><trkpt lat="44.673216931256825" lon="8.196312194875611"><ele>213.49999999999997</ele><time>2026-03-29T14:15:37Z</time></trkpt><trkpt lat="44.673256642997735" lon="8.196197538103796"><ele>213.0</ele><time>2026-03-29T14:15:39Z</time></trkpt><trkpt lat="44.6732965099485" lon="8.196126011358372"><ele>212.5</ele><time>2026-03-29T14:15:41.001Z</time></trkpt><trkpt lat="44.67334251629463" lon="8.196028399567153"><ele>212.0</ele><time>2026-03-29T14:15:43.001Z</time></trkpt><trkpt lat="44.67339273205837" lon="8.195918023315151"><ele>211.49999999999997</ele><time>2026-03-29T14:15:45.001Z</time></trkpt><trkpt lat="44.67344302906921" lon="8.195810120026573"><ele>211.0</ele><time>2026-03-29T14:15:47.001Z</time></trkpt><trkpt lat="44.673483856297125" lon="8.195705526714931"><ele>210.83333333333331</ele><time>2026-03-29T14:15:49.001Z</time></trkpt><trkpt lat="44.67351630443698" lon="8.195584117613361"><ele>210.66666666666666</ele><time>2026-03-29T14:15:51.001Z</time></trkpt><trkpt lat="44.673557840315716" lon="8.195474462434927"><ele>210.5</ele><time>2026-03-29T14:15:53.001Z</time></trkpt><trkpt lat="44.67360729980534" lon="8.195412313637283"><ele>210.33333333333331</ele><time>2026-03-29T14:15:55.001Z</time></trkpt><trkpt lat="44.67363695916909" lon="8.195313312486634"><ele>210.16666666666666</ele><time>2026-03-29T14:15:57.001Z</time></trkpt><trkpt lat="44.673677020054875" lon="8.195221920255161"><ele>210.0</ele><time>2026-03-29T14:15:59.001Z</time></trkpt><trkpt lat="44.67372289761063" lon="8.195137893221913"><ele>210.0</ele><time>2026-03-29T14:16:01.001Z</time></trkpt><trkpt lat="44.67376707098365" lon="8.195064330999037"><ele>210.0</ele><time>2026-03-29T14:16:03.001Z</time></trkpt><trkpt lat="44.673809432252504" lon="8.194996922497811"><ele>210.0</ele><time>2026-03-29T14:16:05.001Z</time></trkpt><trkpt lat="44.67387776085394" lon="8.194905739418711"><ele>210.0</ele><time>2026-03-29T14:16:08.001Z</time></trkpt><trkpt lat="44.67395406096544" lon="8.194851350961098"><ele>210.0</ele><time>2026-03-29T14:16:10.001Z</time></trkpt><trkpt lat="44.67402867962692" lon="8.194830929762476"><ele>210.0</ele><time>2026-03-29T14:16:12.001Z</time></trkpt><trkpt lat="44.67409161250736" lon="8.194841458201681"><ele>210.0</ele><time>2026-03-29T14:16:14.001Z</time></trkpt><trkpt lat="44.674158945097986" lon="8.19485755546582"><ele>210.0</ele><time>2026-03-29T14:16:16.001Z</time></trkpt><trkpt lat="44.6742275504699" lon="8.19487280094611"><ele>210.0</ele><time>2026-03-29T14:16:18.001Z</time></trkpt><trkpt lat="44.674294819295135" lon="8.19488847134952"><ele>210.0</ele><time>2026-03-29T14:16:20.001Z</time></trkpt><trkpt lat="44.6743806062936" lon="8.194911637825884"><ele>210.0</ele><time>2026-03-29T14:16:22.001Z</time></trkpt><trkpt lat="44.674454823132876" lon="8.194945361277995"><ele>210.0</ele><time>2026-03-29T14:16:24.001Z</time></trkpt><trkpt lat="44.6745320993088" lon="8.19497783527866"><ele>210.5</ele><time>2026-03-29T14:16:26.001Z</time></trkpt><trkpt lat="44.67460127987695" lon="8.194994382990933"><ele>211.0</ele><time>2026-03-29T14:16:28.001Z</time></trkpt><trkpt lat="44.674668803506385" lon="8.195019238189513"><ele>211.5</ele><time>2026-03-29T14:16:30.001Z</time></trkpt><trkpt lat="44.674745759936016" lon="8.195039317036482"><ele>212.0</ele><time>2026-03-29T14:16:32.001Z</time></trkpt><trkpt lat="44.674825842387854" lon="8.195069732004642"><ele>212.5</ele><time>2026-03-29T14:16:34.001Z</time></trkpt><trkpt lat="44.67491069151817" lon="8.19510571399137"><ele>213.0</ele><time>2026-03-29T14:16:36.001Z</time></trkpt><trkpt lat="44.67498963905093" lon="8.195142251324324"><ele>213.0</ele><time>2026-03-29T14:16:38Z</time></trkpt><trkpt lat="44.67505990394575" lon="8.195176960891434"><ele>213.0</ele><time>2026-03-29T14:16:40Z</time></trkpt><trkpt lat="44.67513848600057" lon="8.195209229639882"><ele>213.0</ele><time>2026-03-29T14:16:42Z</time></trkpt><trkpt lat="44.67520446085691" lon="8.195247958739701"><ele>213.0</ele><time>2026-03-29T14:16:44Z</time></trkpt><trkpt lat="44.675264938477085" lon="8.195275377715582"><ele>213.0</ele><time>2026-03-29T14:16:46Z</time></trkpt><trkpt lat="44.675344515439896" lon="8.195314174563084"><ele>213.0</ele><time>2026-03-29T14:16:49Z</time></trkpt><trkpt lat="44.67541407379224" lon="8.195351867494265"><ele>213.83333333333334</ele><time>2026-03-29T14:16:51Z</time></trkpt><trkpt lat="44.675496750116736" lon="8.19541166986837"><ele>214.66666666666669</ele><time>2026-03-29T14:16:54Z</time></trkpt><trkpt lat="44.675559414411595" lon="8.19544941767936"><ele>215.5</ele><time>2026-03-29T14:16:56Z</time></trkpt><trkpt lat="44.67563129085143" lon="8.195460065094876"><ele>216.33333333333334</ele><time>2026-03-29T14:16:58Z</time></trkpt><trkpt lat="44.67569375155387" lon="8.195501507058259"><ele>217.16666666666669</ele><time>2026-03-29T14:17:00Z</time></trkpt><trkpt lat="44.67576557228076" lon="8.195554120024422"><ele>218.0</ele><time>2026-03-29T14:17:03Z</time></trkpt><trkpt lat="44.675844800593566" lon="8.195608879955158"><ele>218.0</ele><time>2026-03-29T14:17:06Z</time></trkpt><trkpt lat="44.675905000592564" lon="8.195651136457958"><ele>218.0</ele><time>2026-03-29T14:17:08Z</time></trkpt><trkpt lat="44.675965032167134" lon="8.195686232822558"><ele>218.0</ele><time>2026-03-29T14:17:10Z</time></trkpt><trkpt lat="44.676046753935545" lon="8.195742039991186"><ele>218.0</ele><time>2026-03-29T14:17:13Z</time></trkpt><trkpt lat="44.67611005186506" lon="8.195798280483643"><ele>218.0</ele><time>2026-03-29T14:17:16Z</time></trkpt><trkpt lat="44.676169579001495" lon="8.195857510742812"><ele>218.0</ele><time>2026-03-29T14:17:19Z</time></trkpt><trkpt lat="44.67622858488867" lon="8.195901418840148"><ele>218.0</ele><time>2026-03-29T14:17:21Z</time></trkpt><trkpt lat="44.67631340599177" lon="8.195963815665724"><ele>216.85714285714286</ele><time>2026-03-29T14:17:24Z</time></trkpt><trkpt lat="44.676372609757614" lon="8.196009818944233"><ele>215.71428571428572</ele><time>2026-03-29T14:17:26Z</time></trkpt><trkpt lat="44.6764336270768" lon="8.196064946223412"><ele>214.57142857142856</ele><time>2026-03-29T14:17:28Z</time></trkpt><trkpt lat="44.67649273179528" lon="8.196119292406033"><ele>213.42857142857144</ele><time>2026-03-29T14:17:30Z</time></trkpt><trkpt lat="44.67656451113813" lon="8.196153574252966"><ele>212.28571428571428</ele><time>2026-03-29T14:17:32Z</time></trkpt><trkpt lat="44.67663355719412" lon="8.196201172779096"><ele>211.14285714285714</ele><time>2026-03-29T14:17:35Z</time></trkpt><trkpt lat="44.676681574449134" lon="8.196282193084445"><ele>210.0</ele><time>2026-03-29T14:17:37Z</time></trkpt><trkpt lat="44.67673232496678" lon="8.196357336732799"><ele>210.0</ele><time>2026-03-29T14:17:43Z</time></trkpt><trkpt lat="44.67679051911544" lon="8.196435225839066"><ele>210.0</ele><time>2026-03-29T14:17:47.001Z</time></trkpt><trkpt lat="44.67686624781297" lon="8.196481536305267"><ele>210.0</ele><time>2026-03-29T14:17:50.001Z</time></trkpt><trkpt lat="44.6769436012843" lon="8.196501555334885"><ele>210.0</ele><time>2026-03-29T14:17:52.001Z</time></trkpt><trkpt lat="44.67702794323375" lon="8.196577689539696"><ele>210.0</ele><time>2026-03-29T14:17:54.001Z</time></trkpt><trkpt lat="44.6770758529719" lon="8.196680507857533"><ele>210.0</ele><time>2026-03-29T14:17:56.001Z</time></trkpt><trkpt lat="44.677124619889845" lon="8.196759563935814"><ele>209.66666666666666</ele><time>2026-03-29T14:17:58.001Z</time></trkpt><trkpt lat="44.67717032124929" lon="8.196836117269395"><ele>209.33333333333331</ele><time>2026-03-29T14:18:00.001Z</time></trkpt><trkpt lat="44.67722418846735" lon="8.196917353773584"><ele>209.0</ele><time>2026-03-29T14:18:02.001Z</time></trkpt><trkpt lat="44.677269066777626" lon="8.197005722282341"><ele>208.66666666666666</ele><time>2026-03-29T14:18:04.001Z</time></trkpt><trkpt lat="44.67731059440218" lon="8.197084950631965"><ele>208.33333333333331</ele><time>2026-03-29T14:18:06.001Z</time></trkpt><trkpt lat="44.677360463332874" lon="8.197183768702198"><ele>208.0</ele><time>2026-03-29T14:18:08.001Z</time></trkpt><trkpt lat="44.67739878169948" lon="8.197274000142473"><ele>207.49999999999997</ele><time>2026-03-29T14:18:10.001Z</time></trkpt><trkpt lat="44.67744497942279" lon="8.197370212959763"><ele>207.0</ele><time>2026-03-29T14:18:12.001Z</time></trkpt><trkpt lat="44.677503201501" lon="8.197462302658376"><ele>206.5</ele><time>2026-03-29T14:18:14.001Z</time></trkpt><trkpt lat="44.677562686422924" lon="8.197551685468685"><ele>206.0</ele><time>2026-03-29T14:18:16.001Z</time></trkpt><trkpt lat="44.67762085063637" lon="8.197635390057354"><ele>205.49999999999997</ele><time>2026-03-29T14:18:18.001Z</time></trkpt><trkpt lat="44.677682066648515" lon="8.19771557922277"><ele>205.0</ele><time>2026-03-29T14:18:20.001Z</time></trkpt><trkpt lat="44.67774517643258" lon="8.197789514217979"><ele>206.16666666666666</ele><time>2026-03-29T14:18:22.001Z</time></trkpt><trkpt lat="44.67779760116235" lon="8.197855560938462"><ele>207.33333333333331</ele><time>2026-03-29T14:18:24.001Z</time></trkpt><trkpt lat="44.67785364480329" lon="8.19790619212004"><ele>208.5</ele><time>2026-03-29T14:18:26.001Z</time></trkpt><trkpt lat="44.67793190610456" lon="8.197971898881761"><ele>209.66666666666669</ele><time>2026-03-29T14:18:29.001Z</time></trkpt><trkpt lat="44.67799108098067" lon="8.198026414147892"><ele>210.83333333333334</ele><time>2026-03-29T14:18:31Z</time></trkpt><trkpt lat="44.67804758715692" lon="8.198072521858158"><ele>212.0</ele><time>2026-03-29T14:18:33Z</time></trkpt><trkpt lat="44.67812421619771" lon="8.198133360638348"><ele>210.50000000000003</ele><time>2026-03-29T14:18:36Z</time></trkpt><trkpt lat="44.678205093726234" lon="8.198186464993581"><ele>209.0</ele><time>2026-03-29T14:18:39Z</time></trkpt><trkpt lat="44.67826468836933" lon="8.19821657544015"><ele>207.5</ele><time>2026-03-29T14:18:41Z</time></trkpt><trkpt lat="44.678322882248246" lon="8.198251175593336"><ele>206.0</ele><time>2026-03-29T14:18:43Z</time></trkpt><trkpt lat="44.6783990739976" lon="8.198295231504659"><ele>204.50000000000003</ele><time>2026-03-29T14:18:46Z</time></trkpt><trkpt lat="44.67848510787444" lon="8.198337359591566"><ele>203.0</ele><time>2026-03-29T14:18:49Z</time></trkpt><trkpt lat="44.678551248217225" lon="8.198369199887313"><ele>203.83333333333334</ele><time>2026-03-29T14:18:51Z</time></trkpt><trkpt lat="44.67861628872284" lon="8.198393656371033"><ele>204.66666666666669</ele><time>2026-03-29T14:18:53Z</time></trkpt><trkpt lat="44.678681798960504" lon="8.198427860408732"><ele>205.5</ele><time>2026-03-29T14:18:55Z</time></trkpt><trkpt lat="44.678765383694184" lon="8.198459180096657"><ele>206.33333333333331</ele><time>2026-03-29T14:18:58Z</time></trkpt><trkpt lat="44.67885819714783" lon="8.198485720360756"><ele>207.16666666666666</ele><time>2026-03-29T14:19:01Z</time></trkpt><trkpt lat="44.678936858157336" lon="8.198509070109672"><ele>208.0</ele><time>2026-03-29T14:19:03Z</time></trkpt><trkpt lat="44.67901878614841" lon="8.198532789715815"><ele>207.99999999999997</ele><time>2026-03-29T14:19:06Z</time></trkpt><trkpt lat="44.67909804723159" lon="8.198550688880148"><ele>208.0</ele><time>2026-03-29T14:19:08Z</time></trkpt><trkpt lat="44.67916666604107" lon="8.198565408595648"><ele>208.0</ele><time>2026-03-29T14:19:10Z</time></trkpt><trkpt lat="44.67925671101206" lon="8.19858934207308"><ele>208.0</ele><time>2026-03-29T14:19:13Z</time></trkpt><trkpt lat="44.679344478350615" lon="8.198612969429835"><ele>207.99999999999997</ele><time>2026-03-29T14:19:16Z</time></trkpt><trkpt lat="44.67942273056421" lon="8.198617399436207"><ele>208.0</ele><time>2026-03-29T14:19:18Z</time></trkpt><trkpt lat="44.679489991936066" lon="8.198634880926111"><ele>208.33333333333331</ele><time>2026-03-29T14:19:20Z</time></trkpt><trkpt lat="44.67958022702054" lon="8.198648481254597"><ele>208.66666666666666</ele><time>2026-03-29T14:19:22Z</time></trkpt><trkpt lat="44.679660226585824" lon="8.198664460217138"><ele>209.0</ele><time>2026-03-29T14:19:24Z</time></trkpt><trkpt lat="44.679724038729475" lon="8.198686715460621"><ele>209.33333333333331</ele><time>2026-03-29T14:19:26Z</time></trkpt><trkpt lat="44.679809717112676" lon="8.198696524297013"><ele>209.66666666666666</ele><time>2026-03-29T14:19:29Z</time></trkpt><trkpt lat="44.67989555230836" lon="8.19870949880209"><ele>210.0</ele><time>2026-03-29T14:19:32Z</time></trkpt><trkpt lat="44.67998283474219" lon="8.198736955190583"><ele>210.0</ele><time>2026-03-29T14:19:35Z</time></trkpt><trkpt lat="44.68007153097319" lon="8.198751511591862"><ele>210.0</ele><time>2026-03-29T14:19:38Z</time></trkpt><trkpt lat="44.68013827705233" lon="8.198764657323176"><ele>210.0</ele><time>2026-03-29T14:19:40Z</time></trkpt><trkpt lat="44.680214690748045" lon="8.19877863448921"><ele>210.0</ele><time>2026-03-29T14:19:42Z</time></trkpt><trkpt lat="44.68027771639835" lon="8.198796572152704"><ele>210.0</ele><time>2026-03-29T14:19:44Z</time></trkpt><trkpt lat="44.68034247545095" lon="8.198809948513407"><ele>210.0</ele><time>2026-03-29T14:19:46Z</time></trkpt><trkpt lat="44.68042706845734" lon="8.19883114416104"><ele>210.0</ele><time>2026-03-29T14:19:49Z</time></trkpt><trkpt lat="44.68050740490301" lon="8.198856034226527"><ele>210.5</ele><time>2026-03-29T14:19:52Z</time></trkpt><trkpt lat="44.680587609033225" lon="8.198873352903854"><ele>211.0</ele><time>2026-03-29T14:19:55.001Z</time></trkpt><trkpt lat="44.680667113495126" lon="8.198895668064306"><ele>211.5</ele><time>2026-03-29T14:19:58.001Z</time></trkpt><trkpt lat="44.68074566102146" lon="8.198919015005682"><ele>212.0</ele><time>2026-03-29T14:20:01.001Z</time></trkpt><trkpt lat="44.68083248494449" lon="8.198937767041306"><ele>212.5</ele><time>2026-03-29T14:20:04.001Z</time></trkpt><trkpt lat="44.68090526275389" lon="8.198970494658155"><ele>213.0</ele><time>2026-03-29T14:20:07.001Z</time></trkpt><trkpt lat="44.68098419398331" lon="8.198995431141523"><ele>211.5</ele><time>2026-03-29T14:20:10.001Z</time></trkpt><trkpt lat="44.68106458104113" lon="8.199025574534208"><ele>210.0</ele><time>2026-03-29T14:20:13.001Z</time></trkpt><trkpt lat="44.68115043706294" lon="8.199056957121725"><ele>208.5</ele><time>2026-03-29T14:20:16.001Z</time></trkpt><trkpt lat="44.681233130062225" lon="8.199079291171229"><ele>207.0</ele><time>2026-03-29T14:20:19.001Z</time></trkpt><trkpt lat="44.68130162126694" lon="8.199109693737617"><ele>205.5</ele><time>2026-03-29T14:20:22.001Z</time></trkpt><trkpt lat="44.68138239116603" lon="8.199150201458476"><ele>204.0</ele><time>2026-03-29T14:20:26Z</time></trkpt><trkpt lat="44.681466133336166" lon="8.199198103735599"><ele>204.0</ele><time>2026-03-29T14:20:29Z</time></trkpt><trkpt lat="44.68153768471719" lon="8.199235179987003"><ele>204.0</ele><time>2026-03-29T14:20:32Z</time></trkpt><trkpt lat="44.68160747916983" lon="8.199287261280254"><ele>204.0</ele><time>2026-03-29T14:20:35Z</time></trkpt><trkpt lat="44.68167444043698" lon="8.199332803114876"><ele>204.0</ele><time>2026-03-29T14:20:38Z</time></trkpt><trkpt lat="44.68174925156351" lon="8.199375795451685"><ele>204.0</ele><time>2026-03-29T14:20:41Z</time></trkpt><trkpt lat="44.681843729431954" lon="8.199426238476317"><ele>204.0</ele><time>2026-03-29T14:20:44Z</time></trkpt><trkpt lat="44.6819077573613" lon="8.199473590283986"><ele>204.66666666666666</ele><time>2026-03-29T14:20:46Z</time></trkpt><trkpt lat="44.68197001947756" lon="8.19951411377363"><ele>205.33333333333331</ele><time>2026-03-29T14:20:48Z</time></trkpt><trkpt lat="44.682031724476545" lon="8.19955903980308"><ele>206.0</ele><time>2026-03-29T14:20:50Z</time></trkpt><trkpt lat="44.68211704287643" lon="8.199617086876772"><ele>206.66666666666666</ele><time>2026-03-29T14:20:53Z</time></trkpt><trkpt lat="44.68217700038852" lon="8.199659234374977"><ele>207.33333333333331</ele><time>2026-03-29T14:20:55Z</time></trkpt><trkpt lat="44.68225552544769" lon="8.199715985341397"><ele>208.0</ele><time>2026-03-29T14:20:57Z</time></trkpt><trkpt lat="44.6823204631602" lon="8.199761551499353"><ele>208.0</ele><time>2026-03-29T14:20:59Z</time></trkpt><trkpt lat="44.68238003559119" lon="8.199801406885582"><ele>208.0</ele><time>2026-03-29T14:21:01Z</time></trkpt><trkpt lat="44.68243971020717" lon="8.199842042742707"><ele>208.0</ele><time>2026-03-29T14:21:03Z</time></trkpt><trkpt lat="44.682516569450726" lon="8.199893467925564"><ele>208.0</ele><time>2026-03-29T14:21:05Z</time></trkpt><trkpt lat="44.68258431938101" lon="8.19994412685711"><ele>208.0</ele><time>2026-03-29T14:21:07Z</time></trkpt><trkpt lat="44.68264888399469" lon="8.200003192500295"><ele>208.0</ele><time>2026-03-29T14:21:09Z</time></trkpt><trkpt lat="44.68270096461946" lon="8.200085218233491"><ele>208.0</ele><time>2026-03-29T14:21:11Z</time></trkpt><trkpt lat="44.68277970124454" lon="8.20014555477345"><ele>206.49999999999997</ele><time>2026-03-29T14:21:14Z</time></trkpt><trkpt lat="44.682835086956196" lon="8.200195944624616"><ele>205.0</ele><time>2026-03-29T14:21:16Z</time></trkpt><trkpt lat="44.68288589583423" lon="8.200285392930729"><ele>203.5</ele><time>2026-03-29T14:21:18Z</time></trkpt><trkpt lat="44.68294825360245" lon="8.200354792120283"><ele>202.0</ele><time>2026-03-29T14:21:20Z</time></trkpt><trkpt lat="44.68302597264012" lon="8.20039951924684"><ele>200.49999999999997</ele><time>2026-03-29T14:21:22Z</time></trkpt><trkpt lat="44.68310089084263" lon="8.2004573329483"><ele>199.0</ele><time>2026-03-29T14:21:24Z</time></trkpt><trkpt lat="44.68316746770805" lon="8.200513793445142"><ele>198.99999999999997</ele><time>2026-03-29T14:21:26Z</time></trkpt><trkpt lat="44.6832339638091" lon="8.200564186702845"><ele>199.0</ele><time>2026-03-29T14:21:28Z</time></trkpt><trkpt lat="44.6832996315817" lon="8.20062345578612"><ele>199.0</ele><time>2026-03-29T14:21:30Z</time></trkpt><trkpt lat="44.6833726291002" lon="8.200673945216408"><ele>199.0</ele><time>2026-03-29T14:21:32Z</time></trkpt><trkpt lat="44.68344550236254" lon="8.200732353171492"><ele>198.99999999999997</ele><time>2026-03-29T14:21:34Z</time></trkpt><trkpt lat="44.683517129538075" lon="8.200801163058872"><ele>199.0</ele><time>2026-03-29T14:21:36Z</time></trkpt><trkpt lat="44.68358577143485" lon="8.200859458233015"><ele>198.99999999999997</ele><time>2026-03-29T14:21:38Z</time></trkpt><trkpt lat="44.68364733455864" lon="8.200920530643105"><ele>199.0</ele><time>2026-03-29T14:21:40Z</time></trkpt><trkpt lat="44.683704190258844" lon="8.200992855739612"><ele>199.0</ele><time>2026-03-29T14:21:42Z</time></trkpt><trkpt lat="44.683775450619386" lon="8.20108598942832"><ele>199.0</ele><time>2026-03-29T14:21:45Z</time></trkpt><trkpt lat="44.68382622346796" lon="8.201163048869"><ele>198.99999999999997</ele><time>2026-03-29T14:21:48Z</time></trkpt><trkpt lat="44.683908551224036" lon="8.201170467104827"><ele>199.0</ele><time>2026-03-29T14:21:51Z</time></trkpt><trkpt lat="44.683990677934005" lon="8.201190441089556"><ele>198.99999999999997</ele><time>2026-03-29T14:21:54Z</time></trkpt><trkpt lat="44.68406657545911" lon="8.201242013389288"><ele>199.0</ele><time>2026-03-29T14:21:55.999Z</time></trkpt><trkpt lat="44.68412304570753" lon="8.201296415274662"><ele>199.0</ele><time>2026-03-29T14:21:56.999Z</time></trkpt><trkpt lat="44.684178398570396" lon="8.201385479730744"><ele>199.0</ele><time>2026-03-29T14:21:59Z</time></trkpt><trkpt lat="44.68424012062625" lon="8.201468072697"><ele>198.99999999999997</ele><time>2026-03-29T14:22:01Z</time></trkpt><trkpt lat="44.68430602438457" lon="8.20154128883783"><ele>199.0</ele><time>2026-03-29T14:22:03Z</time></trkpt><trkpt lat="44.68435433008673" lon="8.201606533874862"><ele>198.83333333333331</ele><time>2026-03-29T14:22:05Z</time></trkpt><trkpt lat="44.68441961626306" lon="8.201676757412955"><ele>198.66666666666666</ele><time>2026-03-29T14:22:08Z</time></trkpt><trkpt lat="44.68447728251274" lon="8.201765956767614"><ele>198.5</ele><time>2026-03-29T14:22:11Z</time></trkpt><trkpt lat="44.68453741936546" lon="8.201835727768431"><ele>198.33333333333331</ele><time>2026-03-29T14:22:15Z</time></trkpt><trkpt lat="44.68460055819374" lon="8.201885801754052"><ele>198.16666666666666</ele><time>2026-03-29T14:22:18Z</time></trkpt><trkpt lat="44.68466617854582" lon="8.201945943954616"><ele>198.0</ele><time>2026-03-29T14:22:21Z</time></trkpt><trkpt lat="44.684736351311145" lon="8.2020079217917"><ele>197.71428571428572</ele><time>2026-03-29T14:22:24Z</time></trkpt><trkpt lat="44.684795167503786" lon="8.202063101104027"><ele>197.42857142857142</ele><time>2026-03-29T14:22:27Z</time></trkpt><trkpt lat="44.684848174172416" lon="8.20211370873913"><ele>197.14285714285714</ele><time>2026-03-29T14:22:29Z</time></trkpt><trkpt lat="44.68491468081953" lon="8.202199416364301"><ele>196.85714285714286</ele><time>2026-03-29T14:22:32Z</time></trkpt><trkpt lat="44.684964712225614" lon="8.202267273496025"><ele>196.57142857142856</ele><time>2026-03-29T14:22:35Z</time></trkpt><trkpt lat="44.68501675277094" lon="8.202324924517985"><ele>196.28571428571428</ele><time>2026-03-29T14:22:38Z</time></trkpt><trkpt lat="44.685092377097405" lon="8.202349250507124"><ele>196.0</ele><time>2026-03-29T14:22:41Z</time></trkpt><trkpt lat="44.68517897090027" lon="8.202377481229176"><ele>195.66666666666666</ele><time>2026-03-29T14:22:44Z</time></trkpt><trkpt lat="44.68526357986273" lon="8.20242641136174"><ele>195.33333333333331</ele><time>2026-03-29T14:22:47Z</time></trkpt><trkpt lat="44.68533546333646" lon="8.202484353760402"><ele>195.0</ele><time>2026-03-29T14:22:50Z</time></trkpt><trkpt lat="44.68540801208142" lon="8.202541334370121"><ele>194.66666666666669</ele><time>2026-03-29T14:22:53Z</time></trkpt><trkpt lat="44.68547357179037" lon="8.202594628521238"><ele>194.33333333333334</ele><time>2026-03-29T14:22:56Z</time></trkpt><trkpt lat="44.68555850313747" lon="8.202644651969779"><ele>194.0</ele><time>2026-03-29T14:22:59Z</time></trkpt><trkpt lat="44.685622313553985" lon="8.202672055349057"><ele>194.0</ele><time>2026-03-29T14:23:01Z</time></trkpt><trkpt lat="44.68568440492769" lon="8.20269746830986"><ele>194.0</ele><time>2026-03-29T14:23:03Z</time></trkpt><trkpt lat="44.68577253087762" lon="8.202737368479678"><ele>194.0</ele><time>2026-03-29T14:23:06Z</time></trkpt><trkpt lat="44.68584214100334" lon="8.202762908901562"><ele>194.0</ele><time>2026-03-29T14:23:08Z</time></trkpt><trkpt lat="44.68591141830958" lon="8.20278709241312"><ele>194.0</ele><time>2026-03-29T14:23:10Z</time></trkpt><trkpt lat="44.68597547433523" lon="8.202808800957266"><ele>194.0</ele><time>2026-03-29T14:23:12Z</time></trkpt><trkpt lat="44.686044072350796" lon="8.202837330457326"><ele>194.0</ele><time>2026-03-29T14:23:14Z</time></trkpt><trkpt lat="44.686132208488786" lon="8.202872857044813"><ele>194.0</ele><time>2026-03-29T14:23:17Z</time></trkpt><trkpt lat="44.686211804256885" lon="8.202911370911753"><ele>194.0</ele><time>2026-03-29T14:23:20Z</time></trkpt><trkpt lat="44.68628014008684" lon="8.202926529533622"><ele>194.0</ele><time>2026-03-29T14:23:22Z</time></trkpt><trkpt lat="44.68634909979815" lon="8.20293988799553"><ele>194.0</ele><time>2026-03-29T14:23:24Z</time></trkpt><trkpt lat="44.68641320397662" lon="8.202944991689401"><ele>194.0</ele><time>2026-03-29T14:23:26Z</time></trkpt><trkpt lat="44.68647630084075" lon="8.202970954499422"><ele>194.0</ele><time>2026-03-29T14:23:28Z</time></trkpt><trkpt lat="44.686546954560356" lon="8.202977300300224"><ele>194.0</ele><time>2026-03-29T14:23:30Z</time></trkpt><trkpt lat="44.68661821606542" lon="8.203011536159456"><ele>194.0</ele><time>2026-03-29T14:23:32Z</time></trkpt><trkpt lat="44.68669072755984" lon="8.203042900107631"><ele>194.0</ele><time>2026-03-29T14:23:34Z</time></trkpt><trkpt lat="44.68675487440969" lon="8.203072453138292"><ele>194.0</ele><time>2026-03-29T14:23:36Z</time></trkpt><trkpt lat="44.68681530647509" lon="8.203101427702942"><ele>194.0</ele><time>2026-03-29T14:23:42.999Z</time></trkpt><trkpt lat="44.68687705438643" lon="8.203118932769568"><ele>194.0</ele><time>2026-03-29T14:23:53.999Z</time></trkpt><trkpt lat="44.68693839848641" lon="8.203140492297193"><ele>194.0</ele><time>2026-03-29T14:25:02Z</time></trkpt><trkpt lat="44.68698861726812" lon="8.203194877107647"><ele>194.0</ele><time>2026-03-29T14:25:07Z</time></trkpt><trkpt lat="44.68703174749035" lon="8.203267842084626"><ele>194.33333333333334</ele><time>2026-03-29T14:25:16Z</time></trkpt><trkpt lat="44.68711523929157" lon="8.203328015312007"><ele>194.66666666666669</ele><time>2026-03-29T14:25:53.999Z</time></trkpt><trkpt lat="44.687175659438466" lon="8.203365977727772"><ele>195.0</ele><time>2026-03-29T14:25:57.999Z</time></trkpt><trkpt lat="44.68723972925885" lon="8.203409433355038"><ele>195.33333333333331</ele><time>2026-03-29T14:26:00.999Z</time></trkpt><trkpt lat="44.68731675086001" lon="8.20346660615178"><ele>195.66666666666666</ele><time>2026-03-29T14:26:03.999Z</time></trkpt><trkpt lat="44.68739510150021" lon="8.203513468077222"><ele>196.0</ele><time>2026-03-29T14:26:06.999Z</time></trkpt><trkpt lat="44.68748009144284" lon="8.20355541926608"><ele>195.99999999999997</ele><time>2026-03-29T14:26:09.999Z</time></trkpt><trkpt lat="44.687555385729986" lon="8.20361147107915"><ele>196.0</ele><time>2026-03-29T14:26:13Z</time></trkpt><trkpt lat="44.6876385341537" lon="8.203665751221001"><ele>196.0</ele><time>2026-03-29T14:26:16Z</time></trkpt><trkpt lat="44.6877238557169" lon="8.203697294607325"><ele>196.0</ele><time>2026-03-29T14:26:19Z</time></trkpt><trkpt lat="44.68779600544235" lon="8.20371965948348"><ele>195.99999999999997</ele><time>2026-03-29T14:26:21Z</time></trkpt><trkpt lat="44.687871678282384" lon="8.203748810857329"><ele>196.0</ele><time>2026-03-29T14:26:23Z</time></trkpt><trkpt lat="44.68795270279871" lon="8.20379077606258"><ele>195.33333333333331</ele><time>2026-03-29T14:26:26Z</time></trkpt><trkpt lat="44.6880382918861" lon="8.203816938761955"><ele>194.66666666666666</ele><time>2026-03-29T14:26:29Z</time></trkpt><trkpt lat="44.68811174767784" lon="8.203829748223596"><ele>194.0</ele><time>2026-03-29T14:26:31Z</time></trkpt><trkpt lat="44.68820082225621" lon="8.203850331842233"><ele>193.33333333333331</ele><time>2026-03-29T14:26:34Z</time></trkpt><trkpt lat="44.68828025002725" lon="8.20387999673128"><ele>192.66666666666666</ele><time>2026-03-29T14:26:37Z</time></trkpt><trkpt lat="44.68833910402925" lon="8.203911668096561"><ele>192.0</ele><time>2026-03-29T14:26:40Z</time></trkpt><trkpt lat="44.688406773781445" lon="8.203897221859137"><ele>192.0</ele><time>2026-03-29T14:28:22Z</time></trkpt><trkpt lat="44.68847678977944" lon="8.203855655183173"><ele>192.0</ele><time>2026-03-29T14:28:25Z</time></trkpt><trkpt lat="44.688548779011825" lon="8.203846375690866"><ele>192.0</ele><time>2026-03-29T14:28:27Z</time></trkpt><trkpt lat="44.68862927627139" lon="8.203836634992298"><ele>192.0</ele><time>2026-03-29T14:28:29Z</time></trkpt><trkpt lat="44.688706577682545" lon="8.203809131431523"><ele>192.0</ele><time>2026-03-29T14:28:31Z</time></trkpt><trkpt lat="44.68878672784064" lon="8.20378351789245"><ele>192.0</ele><time>2026-03-29T14:28:33Z</time></trkpt><trkpt lat="44.68885977017075" lon="8.203762970158001"><ele>192.14285714285714</ele><time>2026-03-29T14:28:35Z</time></trkpt><trkpt lat="44.68892659110674" lon="8.203744651299916"><ele>192.28571428571428</ele><time>2026-03-29T14:28:37Z</time></trkpt><trkpt lat="44.688996187433716" lon="8.203724401343099"><ele>192.42857142857144</ele><time>2026-03-29T14:28:39Z</time></trkpt><trkpt lat="44.689067044898664" lon="8.20369819106939"><ele>192.57142857142856</ele><time>2026-03-29T14:28:41Z</time></trkpt><trkpt lat="44.689141702195634" lon="8.20366636085037"><ele>192.71428571428572</ele><time>2026-03-29T14:28:43Z</time></trkpt><trkpt lat="44.689214524068895" lon="8.203630093887467"><ele>192.85714285714286</ele><time>2026-03-29T14:28:45Z</time></trkpt><trkpt lat="44.689288296493324" lon="8.203599648603785"><ele>193.0</ele><time>2026-03-29T14:28:47Z</time></trkpt><trkpt lat="44.689398264688016" lon="8.20351184623514"><ele>192.83333333333331</ele><time>2026-03-29T14:28:49Z</time></trkpt><trkpt lat="44.68947223455823" lon="8.203455910108762"><ele>192.66666666666666</ele><time>2026-03-29T14:28:51Z</time></trkpt><trkpt lat="44.689537719995634" lon="8.203403489290826"><ele>192.5</ele><time>2026-03-29T14:28:53Z</time></trkpt><trkpt lat="44.68961440908584" lon="8.203350622564933"><ele>192.33333333333331</ele><time>2026-03-29T14:28:56Z</time></trkpt><trkpt lat="44.68966278656757" lon="8.20327139691337"><ele>192.16666666666666</ele><time>2026-03-29T14:28:59Z</time></trkpt><trkpt lat="44.68971523200789" lon="8.20320669542588"><ele>192.0</ele><time>2026-03-29T14:29:02Z</time></trkpt><trkpt lat="44.68977777333185" lon="8.203152991329958"><ele>192.0</ele><time>2026-03-29T14:29:08Z</time></trkpt><trkpt lat="44.68984545158735" lon="8.203077708183852"><ele>192.0</ele><time>2026-03-29T14:29:11Z</time></trkpt><trkpt lat="44.68991393353129" lon="8.203009261408868"><ele>192.0</ele><time>2026-03-29T14:29:15Z</time></trkpt><trkpt lat="44.689982310190516" lon="8.202931927113173"><ele>192.0</ele><time>2026-03-29T14:29:18Z</time></trkpt><trkpt lat="44.6900851685698" lon="8.202824316364357"><ele>192.0</ele><time>2026-03-29T14:29:20Z</time></trkpt><trkpt lat="44.69013844247723" lon="8.202767180373186"><ele>192.0</ele><time>2026-03-29T14:29:21Z</time></trkpt><trkpt lat="44.69019740615111" lon="8.20271626834693"><ele>192.0</ele><time>2026-03-29T14:29:22Z</time></trkpt><trkpt lat="44.690295307674766" lon="8.20264617857458"><ele>192.0</ele><time>2026-03-29T14:29:24Z</time></trkpt><trkpt lat="44.690350398072" lon="8.20260188968657"><ele>192.0</ele><time>2026-03-29T14:29:25Z</time></trkpt><trkpt lat="44.69041091315313" lon="8.202560254540344"><ele>192.0</ele><time>2026-03-29T14:29:26Z</time></trkpt><trkpt lat="44.69048429893304" lon="8.202534445414692"><ele>192.0</ele><time>2026-03-29T14:29:27Z</time></trkpt><trkpt lat="44.690566718820016" lon="8.202528433821463"><ele>193.66666666666666</ele><time>2026-03-29T14:29:28Z</time></trkpt><trkpt lat="44.69064360637887" lon="8.20254488310338"><ele>195.33333333333331</ele><time>2026-03-29T14:29:29Z</time></trkpt><trkpt lat="44.69072026176149" lon="8.20258180884798"><ele>197.0</ele><time>2026-03-29T14:29:30Z</time></trkpt><trkpt lat="44.69079884927445" lon="8.202612102367986"><ele>198.66666666666666</ele><time>2026-03-29T14:29:31Z</time></trkpt><trkpt lat="44.69088418937297" lon="8.202649363490034"><ele>200.33333333333331</ele><time>2026-03-29T14:29:32Z</time></trkpt><trkpt lat="44.69096408012648" lon="8.20269130832823"><ele>202.0</ele><time>2026-03-29T14:29:33Z</time></trkpt><trkpt lat="44.691034354166135" lon="8.202734845565152"><ele>203.14285714285714</ele><time>2026-03-29T14:29:34Z</time></trkpt><trkpt lat="44.69111149809669" lon="8.20277954352687"><ele>204.28571428571428</ele><time>2026-03-29T14:29:35Z</time></trkpt><trkpt lat="44.69117918662561" lon="8.202814360337456"><ele>205.42857142857144</ele><time>2026-03-29T14:29:36Z</time></trkpt><trkpt lat="44.6912462315935" lon="8.202850983298797"><ele>206.57142857142856</ele><time>2026-03-29T14:29:37Z</time></trkpt><trkpt lat="44.69130995449032" lon="8.202894291080327"><ele>207.71428571428572</ele><time>2026-03-29T14:29:38Z</time></trkpt><trkpt lat="44.69137133710552" lon="8.202937658879861"><ele>208.85714285714286</ele><time>2026-03-29T14:29:39Z</time></trkpt><trkpt lat="44.691448049243675" lon="8.202973225757397"><ele>210.0</ele><time>2026-03-29T14:29:40Z</time></trkpt><trkpt lat="44.69152424549232" lon="8.203006386750179"><ele>210.0</ele><time>2026-03-29T14:29:41Z</time></trkpt><trkpt lat="44.69159840760181" lon="8.203044114066756"><ele>210.0</ele><time>2026-03-29T14:29:42Z</time></trkpt><trkpt lat="44.69167313726012" lon="8.203072301036515"><ele>210.0</ele><time>2026-03-29T14:29:43Z</time></trkpt><trkpt lat="44.691747804612" lon="8.203093291179222"><ele>210.0</ele><time>2026-03-29T14:29:44Z</time></trkpt><trkpt lat="44.69182206401207" lon="8.203114659785669"><ele>210.0</ele><time>2026-03-29T14:29:45Z</time></trkpt><trkpt lat="44.69189703882323" lon="8.203133048753656"><ele>210.0</ele><time>2026-03-29T14:29:46Z</time></trkpt><trkpt lat="44.691974884226624" lon="8.203144661495438"><ele>207.28571428571428</ele><time>2026-03-29T14:29:46.999Z</time></trkpt><trkpt lat="44.692038342040775" lon="8.20317242963874"><ele>204.57142857142856</ele><time>2026-03-29T14:29:47.999Z</time></trkpt><trkpt lat="44.692106426417126" lon="8.20319473199348"><ele>201.85714285714286</ele><time>2026-03-29T14:29:48.999Z</time></trkpt><trkpt lat="44.692175615458105" lon="8.203212712993993"><ele>199.14285714285714</ele><time>2026-03-29T14:29:49.999Z</time></trkpt><trkpt lat="44.69223833309581" lon="8.203245512666006"><ele>196.42857142857142</ele><time>2026-03-29T14:29:50.999Z</time></trkpt><trkpt lat="44.69228838806664" lon="8.203301762637626"><ele>193.71428571428572</ele><time>2026-03-29T14:29:51.999Z</time></trkpt><trkpt lat="44.692353144550985" lon="8.20336305399719"><ele>191.0</ele><time>2026-03-29T14:29:52.999Z</time></trkpt><trkpt lat="44.69242359178417" lon="8.203383869084602"><ele>191.0</ele><time>2026-03-29T14:29:53.999Z</time></trkpt><trkpt lat="44.69248570116072" lon="8.203401134448553"><ele>191.0</ele><time>2026-03-29T14:29:54.999Z</time></trkpt><trkpt lat="44.69260085069408" lon="8.203360321886693"><ele>191.0</ele><time>2026-03-29T14:29:56.999Z</time></trkpt><trkpt lat="44.69272073724425" lon="8.203340008577207"><ele>191.0</ele><time>2026-03-29T14:29:58.999Z</time></trkpt><trkpt lat="44.69282518232837" lon="8.203354456813043"><ele>191.0</ele><time>2026-03-29T14:30:00.999Z</time></trkpt><trkpt lat="44.69288769556478" lon="8.203452604582353"><ele>193.66666666666666</ele><time>2026-03-29T14:30:02.999Z</time></trkpt><trkpt lat="44.69296015941896" lon="8.20349048720006"><ele>196.33333333333331</ele><time>2026-03-29T14:30:06.999Z</time></trkpt><trkpt lat="44.69303053839563" lon="8.203508008781437"><ele>199.0</ele><time>2026-03-29T14:30:46Z</time></trkpt><trkpt lat="44.693108777178054" lon="8.203574805097212"><ele>201.66666666666666</ele><time>2026-03-29T14:30:50Z</time></trkpt><trkpt lat="44.69318687261631" lon="8.203626063079037"><ele>204.33333333333334</ele><time>2026-03-29T14:30:53Z</time></trkpt><trkpt lat="44.693277773494394" lon="8.20370041002251"><ele>207.0</ele><time>2026-03-29T14:30:55Z</time></trkpt><trkpt lat="44.69335923148835" lon="8.20379809869238"><ele>207.0</ele><time>2026-03-29T14:30:57Z</time></trkpt><trkpt lat="44.69342413563756" lon="8.203880466285124"><ele>207.0</ele><time>2026-03-29T14:30:59Z</time></trkpt><trkpt lat="44.6934853288656" lon="8.203960755127111"><ele>207.0</ele><time>2026-03-29T14:31:01Z</time></trkpt><trkpt lat="44.6935197176052" lon="8.204053064558176"><ele>207.0</ele><time>2026-03-29T14:31:03Z</time></trkpt><trkpt lat="44.69357379162309" lon="8.204126217558091"><ele>207.0</ele><time>2026-03-29T14:31:05Z</time></trkpt><trkpt lat="44.69363274407041" lon="8.204159558277235"><ele>207.0</ele><time>2026-03-29T14:31:07Z</time></trkpt><trkpt lat="44.69368049853286" lon="8.20423766908614"><ele>208.16666666666666</ele><time>2026-03-29T14:31:10Z</time></trkpt><trkpt lat="44.693737838468266" lon="8.204310080237438"><ele>209.33333333333331</ele><time>2026-03-29T14:31:14Z</time></trkpt><trkpt lat="44.693785951906044" lon="8.204400422914427"><ele>210.5</ele><time>2026-03-29T14:31:16Z</time></trkpt><trkpt lat="44.69382995518178" lon="8.204488597416612"><ele>211.66666666666666</ele><time>2026-03-29T14:31:18Z</time></trkpt><trkpt lat="44.69387585620601" lon="8.204568472988623"><ele>212.83333333333331</ele><time>2026-03-29T14:31:20Z</time></trkpt><trkpt lat="44.69393474515969" lon="8.20467465480145"><ele>214.0</ele><time>2026-03-29T14:31:23Z</time></trkpt><trkpt lat="44.69397338591603" lon="8.20476207598002"><ele>210.99999999999997</ele><time>2026-03-29T14:31:25Z</time></trkpt><trkpt lat="44.69400493725187" lon="8.204875665185943"><ele>208.0</ele><time>2026-03-29T14:31:28Z</time></trkpt><trkpt lat="44.69402934431413" lon="8.205003776661009"><ele>205.0</ele><time>2026-03-29T14:31:30Z</time></trkpt><trkpt lat="44.69406246150162" lon="8.205099318647685"><ele>202.0</ele><time>2026-03-29T14:33:04Z</time></trkpt><trkpt lat="44.69412615359421" lon="8.205175578240807"><ele>198.99999999999997</ele><time>2026-03-29T14:33:08Z</time></trkpt><trkpt lat="44.69418113453635" lon="8.205253549879915"><ele>196.0</ele><time>2026-03-29T14:33:11Z</time></trkpt><trkpt lat="44.69422183819655" lon="8.2053230532753"><ele>195.99999999999997</ele><time>2026-03-29T14:33:13Z</time></trkpt><trkpt lat="44.694284387101156" lon="8.205394533965023"><ele>196.0</ele><time>2026-03-29T14:33:16Z</time></trkpt><trkpt lat="44.6943289695853" lon="8.205482263765365"><ele>196.0</ele><time>2026-03-29T14:33:19Z</time></trkpt><trkpt lat="44.69436466072242" lon="8.205562550072539"><ele>196.0</ele><time>2026-03-29T14:33:21Z</time></trkpt><trkpt lat="44.694443724703916" lon="8.205656233419024"><ele>195.99999999999997</ele><time>2026-03-29T14:33:24Z</time></trkpt><trkpt lat="44.694492434001596" lon="8.20571842067434"><ele>196.0</ele><time>2026-03-29T14:33:26Z</time></trkpt><trkpt lat="44.694552964997605" lon="8.205801760338005"><ele>196.16666666666666</ele><time>2026-03-29T14:33:29Z</time></trkpt><trkpt lat="44.69460833405411" lon="8.205870539986451"><ele>196.33333333333331</ele><time>2026-03-29T14:33:32Z</time></trkpt><trkpt lat="44.6946593204536" lon="8.205958159367864"><ele>196.5</ele><time>2026-03-29T14:33:35Z</time></trkpt><trkpt lat="44.694726289594804" lon="8.206022793077281"><ele>196.66666666666669</ele><time>2026-03-29T14:33:38Z</time></trkpt><trkpt lat="44.694800233352446" lon="8.206087597533308"><ele>196.83333333333334</ele><time>2026-03-29T14:33:41Z</time></trkpt><trkpt lat="44.69487297878424" lon="8.206164270828959"><ele>197.0</ele><time>2026-03-29T14:33:44Z</time></trkpt><trkpt lat="44.6949172404466" lon="8.206231473551009"><ele>197.0</ele><time>2026-03-29T14:33:46Z</time></trkpt><trkpt lat="44.694970860021634" lon="8.206307638338963"><ele>197.0</ele><time>2026-03-29T14:33:49Z</time></trkpt><trkpt lat="44.69502223415069" lon="8.206383706721642"><ele>197.0</ele><time>2026-03-29T14:33:52Z</time></trkpt><trkpt lat="44.69506428580325" lon="8.206455031757411"><ele>197.0</ele><time>2026-03-29T14:33:55Z</time></trkpt><trkpt lat="44.695115668713676" lon="8.206511158167654"><ele>197.0</ele><time>2026-03-29T14:33:58Z</time></trkpt><trkpt lat="44.69517387968446" lon="8.206577913811447"><ele>197.0</ele><time>2026-03-29T14:34:01Z</time></trkpt><trkpt lat="44.69523367929632" lon="8.206659921656343"><ele>197.0</ele><time>2026-03-29T14:34:04Z</time></trkpt><trkpt lat="44.695282456680644" lon="8.206739012560533"><ele>196.33333333333334</ele><time>2026-03-29T14:34:07Z</time></trkpt><trkpt lat="44.69533164776821" lon="8.206799748482169"><ele>195.66666666666669</ele><time>2026-03-29T14:34:10Z</time></trkpt><trkpt lat="44.695399719800285" lon="8.206822585267519"><ele>195.0</ele><time>2026-03-29T14:34:13Z</time></trkpt><trkpt lat="44.695435668751074" lon="8.206909591532495"><ele>194.33333333333331</ele><time>2026-03-29T14:34:17Z</time></trkpt><trkpt lat="44.6954813826201" lon="8.206992983336637"><ele>193.66666666666666</ele><time>2026-03-29T14:34:21Z</time></trkpt><trkpt lat="44.69553091569503" lon="8.207093351247115"><ele>193.0</ele><time>2026-03-29T14:34:24Z</time></trkpt><trkpt lat="44.69559329896796" lon="8.207216949860136"><ele>193.00000000000003</ele><time>2026-03-29T14:34:27Z</time></trkpt><trkpt lat="44.69563766891941" lon="8.20731703519204"><ele>193.0</ele><time>2026-03-29T14:34:29Z</time></trkpt><trkpt lat="44.695694834792995" lon="8.207420311600224"><ele>193.0</ele><time>2026-03-29T14:34:31.999Z</time></trkpt><trkpt lat="44.69573993338799" lon="8.207494334212338"><ele>193.0</ele><time>2026-03-29T14:34:33.999Z</time></trkpt><trkpt lat="44.69578158491765" lon="8.20757046071636"><ele>193.0</ele><time>2026-03-29T14:34:36.001Z</time></trkpt><trkpt lat="44.695826240383724" lon="8.207645975891696"><ele>193.00000000000003</ele><time>2026-03-29T14:34:38.001Z</time></trkpt><trkpt lat="44.695865211128314" lon="8.207716550767609"><ele>193.0</ele><time>2026-03-29T14:34:40.001Z</time></trkpt><trkpt lat="44.69591183473154" lon="8.207810730975883"><ele>191.99999999999997</ele><time>2026-03-29T14:34:43.001Z</time></trkpt><trkpt lat="44.69595296082288" lon="8.207917238617439"><ele>191.0</ele><time>2026-03-29T14:34:46Z</time></trkpt><trkpt lat="44.696002939927055" lon="8.20801157700165"><ele>190.0</ele><time>2026-03-29T14:34:49Z</time></trkpt><trkpt lat="44.69606496720154" lon="8.208119048939624"><ele>189.0</ele><time>2026-03-29T14:34:53Z</time></trkpt><trkpt lat="44.696102912518825" lon="8.208203390343847"><ele>188.0</ele><time>2026-03-29T14:34:56Z</time></trkpt><trkpt lat="44.6961526500606" lon="8.208301060261201"><ele>187.0</ele><time>2026-03-29T14:34:59Z</time></trkpt><trkpt lat="44.69619298473072" lon="8.208392660569695"><ele>187.0</ele><time>2026-03-29T14:35:02Z</time></trkpt><trkpt lat="44.69621471253109" lon="8.208491909044744"><ele>187.0</ele><time>2026-03-29T14:35:05Z</time></trkpt><trkpt lat="44.69625426595434" lon="8.208578124770728"><ele>187.0</ele><time>2026-03-29T14:35:08Z</time></trkpt><trkpt lat="44.69628198245992" lon="8.20867010585959"><ele>187.0</ele><time>2026-03-29T14:35:11Z</time></trkpt><trkpt lat="44.69630851844704" lon="8.20876446025849"><ele>187.0</ele><time>2026-03-29T14:35:14Z</time></trkpt><trkpt lat="44.69637166487382" lon="8.208837457964073"><ele>187.0</ele><time>2026-03-29T14:35:17Z</time></trkpt><trkpt lat="44.6964169755934" lon="8.208915193681849"><ele>187.0</ele><time>2026-03-29T14:35:21Z</time></trkpt><trkpt lat="44.696474840415746" lon="8.209006430182551"><ele>186.42857142857142</ele><time>2026-03-29T14:35:24Z</time></trkpt><trkpt lat="44.69651748624133" lon="8.20909157513159"><ele>185.85714285714286</ele><time>2026-03-29T14:35:27Z</time></trkpt><trkpt lat="44.69656391666708" lon="8.20915226407016"><ele>185.28571428571428</ele><time>2026-03-29T14:35:31Z</time></trkpt><trkpt lat="44.69659862827247" lon="8.209226714094871"><ele>184.71428571428572</ele><time>2026-03-29T14:35:35Z</time></trkpt><trkpt lat="44.696651887745055" lon="8.209299171377845"><ele>184.14285714285717</ele><time>2026-03-29T14:35:39Z</time></trkpt><trkpt lat="44.69669026057728" lon="8.20937127826236"><ele>183.57142857142858</ele><time>2026-03-29T14:35:43Z</time></trkpt><trkpt lat="44.69673158034251" lon="8.209449327449876"><ele>183.0</ele><time>2026-03-29T14:35:47Z</time></trkpt><trkpt lat="44.69677021242632" lon="8.209531810624997"><ele>183.0</ele><time>2026-03-29T14:35:51Z</time></trkpt><trkpt lat="44.696803229989506" lon="8.209612344935197"><ele>183.0</ele><time>2026-03-29T14:35:54Z</time></trkpt><trkpt lat="44.696801156107526" lon="8.209717999102576"><ele>183.0</ele><time>2026-03-29T14:35:58Z</time></trkpt><trkpt lat="44.69676529586493" lon="8.209806607318372"><ele>183.0</ele><time>2026-03-29T14:36:04Z</time></trkpt><trkpt lat="44.696741603035036" lon="8.209898083665486"><ele>183.0</ele><time>2026-03-29T14:36:09Z</time></trkpt><trkpt lat="44.69671274197634" lon="8.209980960431139"><ele>183.0</ele><time>2026-03-29T14:36:15Z</time></trkpt><trkpt lat="44.69672951348324" lon="8.21009399844001"><ele>183.0</ele><time>2026-03-29T14:36:46.001Z</time></trkpt><trkpt lat="44.69677042977395" lon="8.210168542674726"><ele>183.0</ele><time>2026-03-29T14:36:49.001Z</time></trkpt><trkpt lat="44.69680938816982" lon="8.210273785794952"><ele>183.0</ele><time>2026-03-29T14:36:51.001Z</time></trkpt><trkpt lat="44.69684305036897" lon="8.210442164400467"><ele>183.0</ele><time>2026-03-29T14:36:53.001Z</time></trkpt><trkpt lat="44.696872923374364" lon="8.210596039515066"><ele>183.0</ele><time>2026-03-29T14:36:55.001Z</time></trkpt><trkpt lat="44.69689905288387" lon="8.210736128780795"><ele>183.0</ele><time>2026-03-29T14:36:57.001Z</time></trkpt><trkpt lat="44.69692177564848" lon="8.210857135816022"><ele>182.57142857142858</ele><time>2026-03-29T14:36:59.001Z</time></trkpt><trkpt lat="44.6969425525105" lon="8.210964144387477"><ele>182.14285714285717</ele><time>2026-03-29T14:37:01Z</time></trkpt><trkpt lat="44.696960562080456" lon="8.211060036517104"><ele>181.71428571428572</ele><time>2026-03-29T14:37:03Z</time></trkpt><trkpt lat="44.69697497071502" lon="8.211149335911452"><ele>181.28571428571428</ele><time>2026-03-29T14:37:05Z</time></trkpt><trkpt lat="44.69700131165465" lon="8.211278130890577"><ele>180.85714285714286</ele><time>2026-03-29T14:37:08Z</time></trkpt><trkpt lat="44.69702900686396" lon="8.211366767861442"><ele>180.42857142857142</ele><time>2026-03-29T14:37:10Z</time></trkpt><trkpt lat="44.69706042800969" lon="8.211452688569933"><ele>180.0</ele><time>2026-03-29T14:37:12Z</time></trkpt><trkpt lat="44.69708563276929" lon="8.211536457665968"><ele>180.0</ele><time>2026-03-29T14:37:14Z</time></trkpt><trkpt lat="44.69711015231875" lon="8.211620378118665"><ele>180.0</ele><time>2026-03-29T14:37:16Z</time></trkpt><trkpt lat="44.69714237034745" lon="8.211715413763114"><ele>180.0</ele><time>2026-03-29T14:37:18Z</time></trkpt><trkpt lat="44.69717444769063" lon="8.211811488128514"><ele>180.0</ele><time>2026-03-29T14:37:20Z</time></trkpt><trkpt lat="44.6972147165971" lon="8.211906488274339"><ele>180.0</ele><time>2026-03-29T14:37:22Z</time></trkpt><trkpt lat="44.697247693098234" lon="8.211997180645751"><ele>180.0</ele><time>2026-03-29T14:37:24Z</time></trkpt><trkpt lat="44.697277734720245" lon="8.2120938021871"><ele>180.0</ele><time>2026-03-29T14:37:26Z</time></trkpt><trkpt lat="44.697309921826395" lon="8.212174738165864"><ele>180.0</ele><time>2026-03-29T14:37:28Z</time></trkpt><trkpt lat="44.69734283074214" lon="8.212250891963693"><ele>180.0</ele><time>2026-03-29T14:37:30Z</time></trkpt><trkpt lat="44.697391557906116" lon="8.212326866463984"><ele>180.0</ele><time>2026-03-29T14:37:32Z</time></trkpt><trkpt lat="44.69744637937979" lon="8.212404443789925"><ele>180.0</ele><time>2026-03-29T14:37:34Z</time></trkpt><trkpt lat="44.69750173302391" lon="8.212482364119984"><ele>180.0</ele><time>2026-03-29T14:37:36Z</time></trkpt><trkpt lat="44.697547548733596" lon="8.212555394178551"><ele>180.0</ele><time>2026-03-29T14:37:38Z</time></trkpt><trkpt lat="44.69760002405298" lon="8.212631453038775"><ele>180.0</ele><time>2026-03-29T14:37:40Z</time></trkpt><trkpt lat="44.69764357450533" lon="8.212705892777834"><ele>180.33333333333334</ele><time>2026-03-29T14:37:42Z</time></trkpt><trkpt lat="44.697682759579166" lon="8.21278537987215"><ele>180.66666666666666</ele><time>2026-03-29T14:37:44Z</time></trkpt><trkpt lat="44.697712938339684" lon="8.212903500214269"><ele>181.0</ele><time>2026-03-29T14:37:47Z</time></trkpt><trkpt lat="44.69772603434845" lon="8.21302140389998"><ele>181.33333333333331</ele><time>2026-03-29T14:37:50Z</time></trkpt><trkpt lat="44.69773180714855" lon="8.213139745698403"><ele>181.66666666666666</ele><time>2026-03-29T14:37:53Z</time></trkpt><trkpt lat="44.69774018019771" lon="8.21323456311072"><ele>182.0</ele><time>2026-03-29T14:37:56Z</time></trkpt><trkpt lat="44.69774331325761" lon="8.213346684994264"><ele>182.0</ele><time>2026-03-29T14:37:59Z</time></trkpt><trkpt lat="44.697736160204194" lon="8.21346031722244"><ele>182.0</ele><time>2026-03-29T14:38:02Z</time></trkpt><trkpt lat="44.69772748147979" lon="8.213574252443621"><ele>182.0</ele><time>2026-03-29T14:38:05Z</time></trkpt><trkpt lat="44.69770706479354" lon="8.213676864241032"><ele>182.0</ele><time>2026-03-29T14:38:08Z</time></trkpt><trkpt lat="44.697683870479835" lon="8.213775540820613"><ele>182.0</ele><time>2026-03-29T14:38:11Z</time></trkpt><trkpt lat="44.697643309485876" lon="8.21384415332304"><ele>182.0</ele><time>2026-03-29T14:38:13Z</time></trkpt><trkpt lat="44.69756990166799" lon="8.213863830686018"><ele>182.0</ele><time>2026-03-29T14:38:16Z</time></trkpt><trkpt lat="44.69750037378412" lon="8.213897232797066"><ele>182.0</ele><time>2026-03-29T14:38:19Z</time></trkpt><trkpt lat="44.69742910678897" lon="8.213918856410126"><ele>182.0</ele><time>2026-03-29T14:38:22Z</time></trkpt><trkpt lat="44.697358144929154" lon="8.213945850199474"><ele>182.0</ele><time>2026-03-29T14:38:26Z</time></trkpt><trkpt lat="44.697321908053276" lon="8.214018654434488"><ele>182.0</ele><time>2026-03-29T14:38:33Z</time></trkpt><trkpt lat="44.69734432918135" lon="8.214110082756461"><ele>182.0</ele><time>2026-03-29T14:38:47.001Z</time></trkpt><trkpt lat="44.697410173180636" lon="8.214199695227828"><ele>182.0</ele><time>2026-03-29T14:38:51.001Z</time></trkpt><trkpt lat="44.697472196146364" lon="8.214304200313604"><ele>181.71428571428572</ele><time>2026-03-29T14:38:54.001Z</time></trkpt><trkpt lat="44.69752554460945" lon="8.214365532367808"><ele>181.42857142857144</ele><time>2026-03-29T14:38:56.001Z</time></trkpt><trkpt lat="44.69757520705149" lon="8.214438097099698"><ele>181.14285714285714</ele><time>2026-03-29T14:38:58.001Z</time></trkpt><trkpt lat="44.69762530225424" lon="8.214512626681643"><ele>180.85714285714286</ele><time>2026-03-29T14:39:00.001Z</time></trkpt><trkpt lat="44.6976757087414" lon="8.214587619772203"><ele>180.57142857142858</ele><time>2026-03-29T14:39:02.001Z</time></trkpt><trkpt lat="44.697731822756126" lon="8.214662069591043"><ele>180.28571428571428</ele><time>2026-03-29T14:39:04.001Z</time></trkpt><trkpt lat="44.69778481290271" lon="8.214740420317353"><ele>180.0</ele><time>2026-03-29T14:39:06Z</time></trkpt><trkpt lat="44.69783661050409" lon="8.214817624699549"><ele>180.16666666666666</ele><time>2026-03-29T14:39:08Z</time></trkpt><trkpt lat="44.69788842489388" lon="8.214892901319613"><ele>180.33333333333334</ele><time>2026-03-29T14:39:10Z</time></trkpt><trkpt lat="44.697946267762994" lon="8.214977925050185"><ele>180.5</ele><time>2026-03-29T14:39:12Z</time></trkpt><trkpt lat="44.69800981097483" lon="8.21506305791704"><ele>180.66666666666669</ele><time>2026-03-29T14:39:14Z</time></trkpt><trkpt lat="44.69806755734277" lon="8.215151978508107"><ele>180.83333333333334</ele><time>2026-03-29T14:39:16Z</time></trkpt><trkpt lat="44.69813234374246" lon="8.215243355709859"><ele>181.0</ele><time>2026-03-29T14:39:18Z</time></trkpt><trkpt lat="44.69819304251432" lon="8.215336281573286"><ele>181.0</ele><time>2026-03-29T14:39:20Z</time></trkpt><trkpt lat="44.69825809809886" lon="8.215432351123132"><ele>181.0</ele><time>2026-03-29T14:39:22Z</time></trkpt><trkpt lat="44.69832624138585" lon="8.215530350412996"><ele>181.0</ele><time>2026-03-29T14:39:24Z</time></trkpt><trkpt lat="44.698393009642494" lon="8.215633855377641"><ele>181.0</ele><time>2026-03-29T14:39:26Z</time></trkpt><trkpt lat="44.69846722591205" lon="8.215731067819393"><ele>181.0</ele><time>2026-03-29T14:39:28Z</time></trkpt><trkpt lat="44.69853864023635" lon="8.215832420635817"><ele>181.0</ele><time>2026-03-29T14:39:30Z</time></trkpt><trkpt lat="44.69860895095985" lon="8.215929598161086"><ele>181.0</ele><time>2026-03-29T14:39:32Z</time></trkpt><trkpt lat="44.69868238966986" lon="8.216038275355764"><ele>181.0</ele><time>2026-03-29T14:39:34Z</time></trkpt><trkpt lat="44.69875796665386" lon="8.216143573419968"><ele>181.0</ele><time>2026-03-29T14:39:36Z</time></trkpt><trkpt lat="44.69883212279309" lon="8.216245919809671"><ele>181.0</ele><time>2026-03-29T14:39:38Z</time></trkpt><trkpt lat="44.69890256942566" lon="8.216354984489827"><ele>181.0</ele><time>2026-03-29T14:39:40Z</time></trkpt><trkpt lat="44.69897199742775" lon="8.216456791027037"><ele>181.0</ele><time>2026-03-29T14:39:42Z</time></trkpt><trkpt lat="44.699034128013736" lon="8.216547893344954"><ele>181.0</ele><time>2026-03-29T14:39:44Z</time></trkpt><trkpt lat="44.699094618283475" lon="8.216643172161742"><ele>181.0</ele><time>2026-03-29T14:39:46Z</time></trkpt><trkpt lat="44.69915528327164" lon="8.216742250431864"><ele>181.0</ele><time>2026-03-29T14:39:48Z</time></trkpt><trkpt lat="44.699224846937526" lon="8.216837383764652"><ele>181.0</ele><time>2026-03-29T14:39:50Z</time></trkpt><trkpt lat="44.69929311669117" lon="8.216935720477373"><ele>181.0</ele><time>2026-03-29T14:39:52Z</time></trkpt><trkpt lat="44.69936443671249" lon="8.217029305132597"><ele>181.0</ele><time>2026-03-29T14:39:54Z</time></trkpt><trkpt lat="44.699427755406575" lon="8.217133469448122"><ele>181.0</ele><time>2026-03-29T14:39:56Z</time></trkpt><trkpt lat="44.699492537044904" lon="8.217229341190322"><ele>181.0</ele><time>2026-03-29T14:39:58Z</time></trkpt><trkpt lat="44.699558355610776" lon="8.217322409922263"><ele>181.0</ele><time>2026-03-29T14:40:00Z</time></trkpt><trkpt lat="44.69962378832547" lon="8.217419205132835"><ele>181.0</ele><time>2026-03-29T14:40:02Z</time></trkpt><trkpt lat="44.699685711931906" lon="8.217517884974178"><ele>181.0</ele><time>2026-03-29T14:40:04Z</time></trkpt><trkpt lat="44.699751531313005" lon="8.217613004632014"><ele>181.0</ele><time>2026-03-29T14:40:06Z</time></trkpt><trkpt lat="44.69981609500665" lon="8.217709637202182"><ele>181.0</ele><time>2026-03-29T14:40:08Z</time></trkpt><trkpt lat="44.69988422253869" lon="8.217802496943015"><ele>181.0</ele><time>2026-03-29T14:40:10Z</time></trkpt><trkpt lat="44.69995057350755" lon="8.217896632466914"><ele>181.0</ele><time>2026-03-29T14:40:12Z</time></trkpt><trkpt lat="44.70001629833021" lon="8.217994484731832"><ele>181.0</ele><time>2026-03-29T14:40:14Z</time></trkpt><trkpt lat="44.70007958963579" lon="8.21808841521112"><ele>181.0</ele><time>2026-03-29T14:40:16Z</time></trkpt><trkpt lat="44.70014694126117" lon="8.218186579749199"><ele>181.0</ele><time>2026-03-29T14:40:18Z</time></trkpt><trkpt lat="44.700210175586506" lon="8.218278786944254"><ele>181.0</ele><time>2026-03-29T14:40:20Z</time></trkpt><trkpt lat="44.7002696790631" lon="8.21836483675442"><ele>181.0</ele><time>2026-03-29T14:40:22Z</time></trkpt><trkpt lat="44.700327159076146" lon="8.218451468018703"><ele>181.0</ele><time>2026-03-29T14:40:24Z</time></trkpt><trkpt lat="44.70038793640956" lon="8.218538460363579"><ele>181.0</ele><time>2026-03-29T14:40:26Z</time></trkpt><trkpt lat="44.70044832036646" lon="8.218628229524874"><ele>181.0</ele><time>2026-03-29T14:40:28Z</time></trkpt><trkpt lat="44.70050818004217" lon="8.218713405934777"><ele>181.0</ele><time>2026-03-29T14:40:30Z</time></trkpt><trkpt lat="44.700576542743036" lon="8.218815801802995"><ele>181.0</ele><time>2026-03-29T14:40:32Z</time></trkpt><trkpt lat="44.70064524977772" lon="8.218913662430898"><ele>181.0</ele><time>2026-03-29T14:40:34Z</time></trkpt><trkpt lat="44.700711790708795" lon="8.219011890046678"><ele>181.0</ele><time>2026-03-29T14:40:35.999Z</time></trkpt><trkpt lat="44.700778134786205" lon="8.21909662750933"><ele>181.0</ele><time>2026-03-29T14:40:37.999Z</time></trkpt><trkpt lat="44.70083814525863" lon="8.219185813224357"><ele>181.0</ele><time>2026-03-29T14:40:39.999Z</time></trkpt><trkpt lat="44.70089650702124" lon="8.219268582077342"><ele>180.85714285714286</ele><time>2026-03-29T14:40:41.999Z</time></trkpt><trkpt lat="44.70094445731889" lon="8.219346080889784"><ele>180.71428571428572</ele><time>2026-03-29T14:40:43.999Z</time></trkpt><trkpt lat="44.70099856113793" lon="8.219416089870402"><ele>180.57142857142856</ele><time>2026-03-29T14:40:45.999Z</time></trkpt><trkpt lat="44.70104394621453" lon="8.21949175740906"><ele>180.42857142857144</ele><time>2026-03-29T14:40:47.999Z</time></trkpt><trkpt lat="44.701090635158124" lon="8.21956419038072"><ele>180.2857142857143</ele><time>2026-03-29T14:40:49.999Z</time></trkpt><trkpt lat="44.70114606572196" lon="8.219643670102007"><ele>180.14285714285714</ele><time>2026-03-29T14:40:52.001Z</time></trkpt><trkpt lat="44.70120338206565" lon="8.219723775865274"><ele>180.0</ele><time>2026-03-29T14:40:54.001Z</time></trkpt><trkpt lat="44.70126038191111" lon="8.219802098764225"><ele>179.66666666666666</ele><time>2026-03-29T14:40:56.001Z</time></trkpt><trkpt lat="44.70131751584097" lon="8.219881974643737"><ele>179.33333333333334</ele><time>2026-03-29T14:40:58.001Z</time></trkpt><trkpt lat="44.701376005668735" lon="8.219980996548466"><ele>179.0</ele><time>2026-03-29T14:41:00.001Z</time></trkpt><trkpt lat="44.70143718370515" lon="8.220068074308132"><ele>178.66666666666669</ele><time>2026-03-29T14:41:02.001Z</time></trkpt><trkpt lat="44.70149772254332" lon="8.220154062252798"><ele>178.33333333333334</ele><time>2026-03-29T14:41:04.001Z</time></trkpt><trkpt lat="44.701560107180576" lon="8.220251817842225"><ele>178.0</ele><time>2026-03-29T14:41:06.001Z</time></trkpt><trkpt lat="44.70162961301145" lon="8.22034677807782"><ele>178.0</ele><time>2026-03-29T14:41:08Z</time></trkpt><trkpt lat="44.70169854441153" lon="8.220449138294091"><ele>178.0</ele><time>2026-03-29T14:41:10Z</time></trkpt><trkpt lat="44.70176775190877" lon="8.22054699343804"><ele>178.0</ele><time>2026-03-29T14:41:12Z</time></trkpt><trkpt lat="44.70183420862224" lon="8.220652005740467"><ele>178.0</ele><time>2026-03-29T14:41:14Z</time></trkpt><trkpt lat="44.701900678250496" lon="8.220744856140147"><ele>178.0</ele><time>2026-03-29T14:41:16Z</time></trkpt><trkpt lat="44.70196123817692" lon="8.220827159349877"><ele>178.0</ele><time>2026-03-29T14:41:18Z</time></trkpt><trkpt lat="44.702009769673055" lon="8.22089736248449"><ele>178.0</ele><time>2026-03-29T14:41:20Z</time></trkpt><trkpt lat="44.70205902846304" lon="8.220975325683835"><ele>178.0</ele><time>2026-03-29T14:41:22Z</time></trkpt><trkpt lat="44.7021161706822" lon="8.221054580323138"><ele>178.0</ele><time>2026-03-29T14:41:24Z</time></trkpt><trkpt lat="44.70217574107023" lon="8.221136773300092"><ele>178.0</ele><time>2026-03-29T14:41:26Z</time></trkpt><trkpt lat="44.70223491758118" lon="8.22122876775165"><ele>178.0</ele><time>2026-03-29T14:41:28Z</time></trkpt><trkpt lat="44.702295795305425" lon="8.221313943971072"><ele>178.0</ele><time>2026-03-29T14:41:30Z</time></trkpt><trkpt lat="44.70235320444309" lon="8.221398738906476"><ele>178.0</ele><time>2026-03-29T14:41:32Z</time></trkpt><trkpt lat="44.70241067920965" lon="8.221484920059302"><ele>178.0</ele><time>2026-03-29T14:41:34Z</time></trkpt><trkpt lat="44.702468958055526" lon="8.22156978529611"><ele>178.0</ele><time>2026-03-29T14:41:36Z</time></trkpt><trkpt lat="44.702529433809936" lon="8.22165338096489"><ele>178.0</ele><time>2026-03-29T14:41:38Z</time></trkpt><trkpt lat="44.70258729779961" lon="8.221736710345516"><ele>178.0</ele><time>2026-03-29T14:41:40Z</time></trkpt><trkpt lat="44.702638812260076" lon="8.221818233610154"><ele>178.33333333333334</ele><time>2026-03-29T14:41:42Z</time></trkpt><trkpt lat="44.70268793680655" lon="8.221894083102294"><ele>178.66666666666669</ele><time>2026-03-29T14:41:44Z</time></trkpt><trkpt lat="44.702746665189316" lon="8.221987934595218"><ele>179.0</ele><time>2026-03-29T14:41:46Z</time></trkpt><trkpt lat="44.70280912639337" lon="8.222061045138696"><ele>179.33333333333334</ele><time>2026-03-29T14:41:48Z</time></trkpt><trkpt lat="44.70286566997225" lon="8.222145231678594"><ele>179.66666666666666</ele><time>2026-03-29T14:41:50Z</time></trkpt><trkpt lat="44.702923598933275" lon="8.2222323447687"><ele>180.0</ele><time>2026-03-29T14:41:52Z</time></trkpt><trkpt lat="44.7029722346799" lon="8.222312734779367"><ele>179.42857142857142</ele><time>2026-03-29T14:41:54Z</time></trkpt><trkpt lat="44.70302158532253" lon="8.222384083532742"><ele>178.85714285714286</ele><time>2026-03-29T14:41:56Z</time></trkpt><trkpt lat="44.70306785348852" lon="8.222460883000737"><ele>178.28571428571428</ele><time>2026-03-29T14:41:58Z</time></trkpt><trkpt lat="44.7031176053462" lon="8.222531083198572"><ele>177.71428571428572</ele><time>2026-03-29T14:42:00Z</time></trkpt><trkpt lat="44.70317189072351" lon="8.222604361934373"><ele>177.14285714285714</ele><time>2026-03-29T14:42:02Z</time></trkpt><trkpt lat="44.703229131658" lon="8.222676044234689"><ele>176.57142857142858</ele><time>2026-03-29T14:42:04Z</time></trkpt><trkpt lat="44.7032862513317" lon="8.222763860534554"><ele>176.0</ele><time>2026-03-29T14:42:06Z</time></trkpt><trkpt lat="44.70334636234613" lon="8.22285476644516"><ele>176.0</ele><time>2026-03-29T14:42:08Z</time></trkpt><trkpt lat="44.703402977130764" lon="8.222939664763945"><ele>176.0</ele><time>2026-03-29T14:42:10Z</time></trkpt><trkpt lat="44.70345644752487" lon="8.223017959445876"><ele>176.0</ele><time>2026-03-29T14:42:12Z</time></trkpt><trkpt lat="44.70351114216371" lon="8.223097197510297"><ele>176.0</ele><time>2026-03-29T14:42:14Z</time></trkpt><trkpt lat="44.70356470819988" lon="8.22318467773855"><ele>176.0</ele><time>2026-03-29T14:42:16Z</time></trkpt><trkpt lat="44.70362403693673" lon="8.22326852231393"><ele>176.0</ele><time>2026-03-29T14:42:18Z</time></trkpt><trkpt lat="44.70368282146605" lon="8.223356435074932"><ele>175.83333333333331</ele><time>2026-03-29T14:42:20Z</time></trkpt><trkpt lat="44.70374204180445" lon="8.223445600000492"><ele>175.66666666666666</ele><time>2026-03-29T14:42:22Z</time></trkpt><trkpt lat="44.7038038625326" lon="8.223534435455935"><ele>175.5</ele><time>2026-03-29T14:42:24Z</time></trkpt><trkpt lat="44.70386061897072" lon="8.223619314350502"><ele>175.33333333333334</ele><time>2026-03-29T14:42:26Z</time></trkpt><trkpt lat="44.70391501000135" lon="8.223704533703849"><ele>175.16666666666669</ele><time>2026-03-29T14:42:28Z</time></trkpt><trkpt lat="44.70397169178942" lon="8.22379143644978"><ele>175.0</ele><time>2026-03-29T14:42:30Z</time></trkpt><trkpt lat="44.704035609663364" lon="8.223878949035974"><ele>175.0</ele><time>2026-03-29T14:42:32Z</time></trkpt><trkpt lat="44.70408956715793" lon="8.223961471510073"><ele>175.0</ele><time>2026-03-29T14:42:34Z</time></trkpt><trkpt lat="44.70413807919809" lon="8.224042047128235"><ele>175.0</ele><time>2026-03-29T14:42:36Z</time></trkpt><trkpt lat="44.70419652573958" lon="8.224121159361562"><ele>175.0</ele><time>2026-03-29T14:42:38Z</time></trkpt><trkpt lat="44.70425346390714" lon="8.224211186733081"><ele>175.0</ele><time>2026-03-29T14:42:40Z</time></trkpt><trkpt lat="44.70431126895378" lon="8.22428936228566"><ele>175.0</ele><time>2026-03-29T14:42:42Z</time></trkpt><trkpt lat="44.704371312421486" lon="8.224372526109633"><ele>175.14285714285714</ele><time>2026-03-29T14:42:43.999Z</time></trkpt><trkpt lat="44.70442723639897" lon="8.224453953053226"><ele>175.28571428571428</ele><time>2026-03-29T14:42:45.999Z</time></trkpt><trkpt lat="44.70447907001015" lon="8.224530259303304"><ele>175.42857142857144</ele><time>2026-03-29T14:42:47.999Z</time></trkpt><trkpt lat="44.70452457327337" lon="8.224602299176242"><ele>175.57142857142856</ele><time>2026-03-29T14:42:49.999Z</time></trkpt><trkpt lat="44.704575901526916" lon="8.224673085802896"><ele>175.71428571428572</ele><time>2026-03-29T14:42:51.999Z</time></trkpt><trkpt lat="44.704626166251224" lon="8.224749943551949"><ele>175.85714285714286</ele><time>2026-03-29T14:42:53.999Z</time></trkpt><trkpt lat="44.70467976543311" lon="8.224826679020069"><ele>176.0</ele><time>2026-03-29T14:42:55.999Z</time></trkpt><trkpt lat="44.70473435998903" lon="8.224902798556437"><ele>176.0</ele><time>2026-03-29T14:42:58Z</time></trkpt><trkpt lat="44.70477847610033" lon="8.22496908508056"><ele>176.0</ele><time>2026-03-29T14:43:00Z</time></trkpt><trkpt lat="44.704826213840796" lon="8.225044222205687"><ele>176.0</ele><time>2026-03-29T14:43:02Z</time></trkpt><trkpt lat="44.70487931727478" lon="8.225122312260746"><ele>176.0</ele><time>2026-03-29T14:43:04Z</time></trkpt><trkpt lat="44.7049335159124" lon="8.225196008672224"><ele>176.0</ele><time>2026-03-29T14:43:06Z</time></trkpt><trkpt lat="44.70498227627511" lon="8.225269708569074"><ele>176.0</ele><time>2026-03-29T14:43:08Z</time></trkpt><trkpt lat="44.7050360967253" lon="8.225348894314262"><ele>176.0</ele><time>2026-03-29T14:43:10Z</time></trkpt><trkpt lat="44.705092491618245" lon="8.225434601921275"><ele>176.0</ele><time>2026-03-29T14:43:12Z</time></trkpt><trkpt lat="44.705151382674394" lon="8.225518246038664"><ele>176.0</ele><time>2026-03-29T14:43:14Z</time></trkpt><trkpt lat="44.70521195115744" lon="8.225603117759025"><ele>176.0</ele><time>2026-03-29T14:43:16Z</time></trkpt><trkpt lat="44.705266303260295" lon="8.225690964250443"><ele>176.0</ele><time>2026-03-29T14:43:18Z</time></trkpt><trkpt lat="44.70532747790956" lon="8.22577671819897"><ele>176.0</ele><time>2026-03-29T14:43:20Z</time></trkpt><trkpt lat="44.70538954531349" lon="8.225866251465392"><ele>176.0</ele><time>2026-03-29T14:43:22Z</time></trkpt><trkpt lat="44.70544633717027" lon="8.225950491068959"><ele>175.83333333333331</ele><time>2026-03-29T14:43:24Z</time></trkpt><trkpt lat="44.70550123590901" lon="8.226034094183438"><ele>175.66666666666666</ele><time>2026-03-29T14:43:26Z</time></trkpt><trkpt lat="44.70555466988444" lon="8.226106266820087"><ele>175.5</ele><time>2026-03-29T14:43:28Z</time></trkpt><trkpt lat="44.70560767496479" lon="8.22618307984046"><ele>175.33333333333334</ele><time>2026-03-29T14:43:30Z</time></trkpt><trkpt lat="44.705661110053065" lon="8.226260011583717"><ele>175.16666666666669</ele><time>2026-03-29T14:43:32Z</time></trkpt><trkpt lat="44.70571533042139" lon="8.226330064075363"><ele>175.0</ele><time>2026-03-29T14:43:34Z</time></trkpt><trkpt lat="44.705779335080884" lon="8.226427925427648"><ele>175.33333333333334</ele><time>2026-03-29T14:43:37Z</time></trkpt><trkpt lat="44.70584212514763" lon="8.226513543601948"><ele>175.66666666666669</ele><time>2026-03-29T14:43:40Z</time></trkpt><trkpt lat="44.70590279382726" lon="8.22660675776678"><ele>176.0</ele><time>2026-03-29T14:43:43Z</time></trkpt><trkpt lat="44.70596243997118" lon="8.226694243778821"><ele>176.33333333333334</ele><time>2026-03-29T14:43:46Z</time></trkpt><trkpt lat="44.70601808088703" lon="8.226775193829873"><ele>176.66666666666666</ele><time>2026-03-29T14:43:49Z</time></trkpt><trkpt lat="44.70608022465183" lon="8.226857029678587"><ele>177.0</ele><time>2026-03-29T14:43:52Z</time></trkpt><trkpt lat="44.706137577799424" lon="8.226942143050959"><ele>176.5</ele><time>2026-03-29T14:43:55Z</time></trkpt><trkpt lat="44.706183542460174" lon="8.227007462295095"><ele>176.0</ele><time>2026-03-29T14:43:57Z</time></trkpt><trkpt lat="44.70622902695049" lon="8.227071260287378"><ele>175.5</ele><time>2026-03-29T14:43:59Z</time></trkpt><trkpt lat="44.706292467011274" lon="8.227160446011046"><ele>175.0</ele><time>2026-03-29T14:44:02Z</time></trkpt><trkpt lat="44.70635303336914" lon="8.227250525455387"><ele>174.5</ele><time>2026-03-29T14:44:05Z</time></trkpt><trkpt lat="44.70641436459316" lon="8.227334236467211"><ele>174.0</ele><time>2026-03-29T14:44:08Z</time></trkpt><trkpt lat="44.70647878596825" lon="8.227425856936332"><ele>174.0</ele><time>2026-03-29T14:44:11Z</time></trkpt><trkpt lat="44.70652564887982" lon="8.227493789404399"><ele>174.0</ele><time>2026-03-29T14:44:13Z</time></trkpt><trkpt lat="44.706570406019544" lon="8.22756010067883"><ele>174.0</ele><time>2026-03-29T14:44:15Z</time></trkpt><trkpt lat="44.70662148831876" lon="8.227624558906786"><ele>174.0</ele><time>2026-03-29T14:44:17Z</time></trkpt><trkpt lat="44.70668440868954" lon="8.227719970629991"><ele>174.0</ele><time>2026-03-29T14:44:20Z</time></trkpt><trkpt lat="44.70674254369083" lon="8.227810901045975"><ele>174.0</ele><time>2026-03-29T14:44:23Z</time></trkpt><trkpt lat="44.706796632808704" lon="8.22789260741579"><ele>174.0</ele><time>2026-03-29T14:44:25.999Z</time></trkpt><trkpt lat="44.706845783712645" lon="8.227975314489495"><ele>174.0</ele><time>2026-03-29T14:44:28.999Z</time></trkpt><trkpt lat="44.70690006008077" lon="8.228054450764875"><ele>174.0</ele><time>2026-03-29T14:44:31.999Z</time></trkpt><trkpt lat="44.70695630930865" lon="8.228136687995804"><ele>174.0</ele><time>2026-03-29T14:44:34.999Z</time></trkpt><trkpt lat="44.707020403640314" lon="8.228218228948851"><ele>174.0</ele><time>2026-03-29T14:44:37.999Z</time></trkpt><trkpt lat="44.70707743536042" lon="8.228308882979558"><ele>174.0</ele><time>2026-03-29T14:44:40.999Z</time></trkpt><trkpt lat="44.70714028141882" lon="8.22839764410375"><ele>173.83333333333334</ele><time>2026-03-29T14:44:43.999Z</time></trkpt><trkpt lat="44.707202995875406" lon="8.228485330646201"><ele>173.66666666666666</ele><time>2026-03-29T14:44:46.999Z</time></trkpt><trkpt lat="44.707265824851504" lon="8.228566366035587"><ele>173.5</ele><time>2026-03-29T14:44:49.999Z</time></trkpt><trkpt lat="44.70732588597168" lon="8.228649183179373"><ele>173.33333333333331</ele><time>2026-03-29T14:44:52.999Z</time></trkpt><trkpt lat="44.707393948891756" lon="8.228733688942661"><ele>173.16666666666666</ele><time>2026-03-29T14:44:55.999Z</time></trkpt><trkpt lat="44.707466158737134" lon="8.228826009848209"><ele>173.0</ele><time>2026-03-29T14:44:58.999Z</time></trkpt><trkpt lat="44.707530670744276" lon="8.228925293006817"><ele>173.0</ele><time>2026-03-29T14:45:01.999Z</time></trkpt><trkpt lat="44.70760106793979" lon="8.229024470374183"><ele>173.0</ele><time>2026-03-29T14:45:05Z</time></trkpt><trkpt lat="44.70766680887284" lon="8.229121295695288"><ele>173.0</ele><time>2026-03-29T14:45:08Z</time></trkpt><trkpt lat="44.70771492923616" lon="8.229182785270353"><ele>173.0</ele><time>2026-03-29T14:45:10Z</time></trkpt><trkpt lat="44.707761973959634" lon="8.229242796110475"><ele>173.0</ele><time>2026-03-29T14:45:12Z</time></trkpt><trkpt lat="44.707829928238766" lon="8.229326493248143"><ele>173.0</ele><time>2026-03-29T14:45:15Z</time></trkpt><trkpt lat="44.70789338750993" lon="8.229408037713368"><ele>173.0</ele><time>2026-03-29T14:45:18Z</time></trkpt><trkpt lat="44.70795201973436" lon="8.229485401825295"><ele>173.0</ele><time>2026-03-29T14:45:21Z</time></trkpt><trkpt lat="44.70801973181488" lon="8.229489062630579"><ele>173.0</ele><time>2026-03-29T14:45:24Z</time></trkpt><trkpt lat="44.70806492282047" lon="8.229409691458413"><ele>173.0</ele><time>2026-03-29T14:45:27Z</time></trkpt><trkpt lat="44.708122400195755" lon="8.229334680398717"><ele>173.0</ele><time>2026-03-29T14:45:29Z</time></trkpt><trkpt lat="44.70818692739644" lon="8.229273008235255"><ele>173.0</ele><time>2026-03-29T14:45:31Z</time></trkpt><trkpt lat="44.7082390772595" lon="8.229208128033559"><ele>173.0</ele><time>2026-03-29T14:45:33Z</time></trkpt><trkpt lat="44.70828496980937" lon="8.22914249871132"><ele>173.0</ele><time>2026-03-29T14:45:35Z</time></trkpt><trkpt lat="44.70829804629757" lon="8.229022633461486"><ele>173.0</ele><time>2026-03-29T14:45:39Z</time></trkpt><trkpt lat="44.708248269805374" lon="8.228954107491692"><ele>173.0</ele><time>2026-03-29T14:45:41Z</time></trkpt><trkpt lat="44.70818358706629" lon="8.228854741655283"><ele>173.0</ele><time>2026-03-29T14:45:44Z</time></trkpt><trkpt lat="44.70814545994552" lon="8.228774524345166"><ele>173.0</ele><time>2026-03-29T14:45:46Z</time></trkpt><trkpt lat="44.70814397811916" lon="8.228679997983575"><ele>173.0</ele><time>2026-03-29T14:45:48Z</time></trkpt><trkpt lat="44.708122852243406" lon="8.228566242705826"><ele>170.0</ele><time>2026-03-29T14:45:51Z</time></trkpt><trkpt lat="44.708124464437766" lon="8.228474994325502"><ele>170.0</ele><time>2026-03-29T14:45:54Z</time></trkpt></trkseg></trk></gpx>